[[{"header":{"parameterUnit":"m.s-1","parameterCategory":1,"la1":31.0,"la2":29.5877,"lo1":-88.7671,"lo2":-86.6584,"dy":0.0162,"dx":0.0185,"nx":115,"ny":88,"refTime":"2026-05-03T00:00:00:Z","depth":0,"parameterNumber":2,"parameterNumberName":"U-component_of_WINDS"},"data":[0.0,0.0,0.0,0.0,0.0,0.0,0.0,0.0,0.0,0.0,0.0,0.0,0.0,0.0,0.0,0.0,0.0,0.0,0.0,0.0,0.0,0.0,0.0,0.0,0.0,0.0,0.0,0.0,0.0,0.0,0.0,0.0,0.0,0.0,0.0,0.0,0.0,0.0,0.0,0.0,0.0,0.0,0.0,0.0,0.0,0.0,0.0,0.0,0.0,0.0,0.0,0.0,0.0,0.0,0.0,0.0,0.0,0.0,0.0,0.0,0.0,0.0,0.0,0.0,0.0,0.0,0.0,0.0,0.0,0.0,0.0,0.0,0.0,0.0,0.0,0.0,0.0,0.0,0.0,0.0,0.0,0.0,0.0,0.0,0.0,0.0,0.0,0.0,0.0,0.0,0.0,0.0,0.0,0.0,0.0,0.0,0.0,0.0,0.0,0.0,0.0,0.0,0.0,0.0,0.0,0.0,0.0,0.0,0.0,0.0,0.0,0.0,0.0,0.0,0.0,0.0,0.0,0.0,0.0,0.0,0.0,0.0,0.0,0.0,0.0,0.0,0.0,0.0,0.0,0.0,0.0,0.0,0.0,0.0,0.0,0.0,0.0,0.0,0.0,0.0,0.0,0.0,0.0,0.0,0.0,0.0,0.0,0.0,0.0,0.0,0.0,0.0,0.0,0.0,0.0,0.0,0.0,0.0,0.0,0.0,0.0,0.0,0.0,0.0,0.0,0.0,0.0,0.0,0.0,0.0,0.0,0.0,0.0,0.0,0.0,0.0,0.0,0.0,0.0,0.0,0.0,0.0,0.0,0.0,0.0,0.0,0.0,0.0,0.0,0.0,0.0,0.0,0.0,0.0,0.0,0.0,0.0,0.0,0.0,0.0,0.0,0.0,0.0,0.0,0.0,0.0,0.0,0.0,0.0,0.0,0.0,0.0,0.0,0.0,0.0,0.0,0.0,0.0,0.0,0.0,0.0,0.0,0.0,0.0,0.0,0.0,0.0,0.0,0.0,0.0,0.0,0.0,0.0,0.0,0.0,0.0,0.0,0.0,0.0,0.0,0.0,0.0,0.0,0.0,0.0,0.0,0.0,0.0,0.0,0.0,0.0,0.0,0.0,0.0,0.0,0.0,0.0,0.0,0.0,0.0,0.0,0.0,0.0,0.0,0.0,0.0,0.0,0.0,0.0,0.0,0.0,0.0,0.0,0.0,0.0,0.0,0.0,0.0,0.0,0.0,0.0,0.0,0.0,0.0,0.0,0.0,0.0,0.0,0.0,0.0,0.0,0.0,0.0,0.0,0.0,0.0,0.0,0.0,0.0,0.0,0.0,0.0,0.0,0.0,0.0,0.0,0.0,0.0,0.0,0.0,0.0,0.0,0.0,0.0,0.0,0.0,0.0,0.0,0.0,0.0,0.0,0.0,0.0,0.0,0.0,0.0,0.0,0.0,0.0,0.0,0.0,0.0,0.0,0.0,0.0,0.0,0.0,0.0,0.0,0.0,0.0,0.0,0.0,0.0,0.0,0.0,0.0,0.0,0.0,0.0,0.0,0.0,0.0,0.0,0.0,0.0,0.0,0.0,0.0,0.0,0.0,0.0,0.0,0.0,0.0,0.0,0.0,0.0,0.0,0.0,0.0,0.0,0.0,0.0,0.0,0.0,0.0,0.0,0.0,0.0,0.0,0.0,0.0,0.0,0.0,0.0,0.0,0.0,0.0,0.0,0.0,0.0,0.0,0.0,0.0,0.0,0.0,0.0,0.0,0.0,0.0,0.0,0.0,0.0,0.0,0.0,0.0,0.0,0.0,0.0,0.0,0.0,0.0,0.0,0.0,0.0,0.0,0.0,0.0,0.0,0.0,0.0,0.0,0.0,0.0,0.0,0.0,0.0,0.0,0.0,0.0,0.0,0.0,0.0,0.0,0.0,0.0,0.0,0.0,0.0,0.0,0.0,0.0,0.0,0.0,0.0,0.0,0.0,0.0,0.0,0.0,0.0,0.0,0.0,0.0,0.0,0.0,0.0,0.0,0.0,0.0,0.0,0.0,0.0,0.0,0.0,0.0,0.0,0.0,0.0,0.0,0.0,0.0,0.0,0.0,0.0,0.0,0.0,0.0,0.0,0.0,0.0,0.0,0.0,0.0,0.0,0.0,0.0,0.0,0.0,0.0,0.0,0.0,0.0,0.0,0.0,0.0,0.0,0.0,0.0,0.0,0.0,0.0,0.0,0.0,0.0,0.0,0.0,0.0,0.0,0.0,0.0,0.0,0.0,0.0,0.0,0.0,0.0,0.0,0.0,0.0,0.0,0.0,0.0,0.0,0.0,0.0,0.0,0.0,0.0,0.0,0.0,0.0,0.0,0.0,0.0,0.0,0.0,0.0,0.0,0.0,0.0,0.0,0.0,0.0,0.0,0.0,0.0,0.0,0.0,0.0,0.0,0.0,0.0,0.0,0.0,0.0,0.0,0.0,0.0,0.0,0.0,0.0,0.0,0.0,0.0,0.0,0.0,0.0,0.0,0.0,0.0,0.0,0.0,0.0,0.0,0.0,0.0,0.0,0.0,0.0,0.0,0.0,0.0,0.0,0.0,0.0,0.0,0.0,0.0,0.0,0.0,0.0,0.0,0.0,0.0,0.0,0.0,0.0,0.0,0.0,0.0,0.0,0.0,0.0,0.0,0.0,0.0,0.0,0.0,0.0,0.0,0.0,0.0,0.0,0.0,0.0,0.0,0.0,0.0,0.0,0.0,0.0,0.0,0.0,0.0,0.0,0.0,0.0,0.0,0.0,0.0,0.0,0.0,0.0,0.0,0.0,0.0,0.0,0.0,0.0,0.0,0.0,0.0,0.0,0.0,0.0,0.0,0.0,0.0,0.0,0.0,0.0,0.0,0.0,0.0,0.0,0.0,0.0,0.0,0.0,0.0,0.0,0.0,0.0,0.0,0.0,0.0,0.0,0.0,0.0,0.0,0.0,0.0,0.0,0.0,0.0,0.0,0.0,0.0,0.0,0.0,0.0,0.0,0.0,0.0,0.0,0.0,0.0,0.0,0.0,0.0,0.0,0.0,0.0,0.0,0.0,0.0,0.0,0.0,0.0,0.0,0.0,0.0,0.0,0.0,0.0,0.0,0.0,0.0,0.0,0.0,0.0,0.0,0.0,0.0,0.0,0.0,0.0,0.0,0.0,0.0,0.0,0.0,0.0,0.0,0.0,0.0,0.0,0.0,0.0,0.0,0.0,0.0,0.0,0.0,0.0,0.0,0.0,0.0,0.0,0.0,0.0,0.0,0.0,0.0,0.0,0.0,0.0,0.0,0.0,0.0,0.0,0.0,0.0,0.0,0.0,0.0,0.0,0.0,0.0,0.0,0.0,0.0,0.0,0.0,0.0,0.0,0.0,0.0,0.0,0.0,0.0,0.0,0.0,0.0,0.0,0.0,0.0,0.0,0.0,0.0,0.0,0.0,0.0,0.0,0.0,0.0,0.0,0.0,0.0,0.0,0.0,0.0,0.0,0.0,0.0,0.0,0.0,0.0,0.0,0.0,0.0,0.0,0.0,0.0,0.0,0.0,0.0,0.0,0.0,0.0,0.0,0.0,0.0,0.0,0.0,0.0,0.0,0.0,0.0,0.0,0.0,0.0,0.0,0.0,0.0,0.0,0.0,0.0,0.0,0.0,0.0,0.0,0.0,0.0,0.0,0.0,0.0,0.0,0.0,0.0,0.0,0.0,0.0,0.0,0.0,0.0,0.0,0.0,0.0,0.0,0.0,0.0,0.0,0.0,0.0,0.0,0.0,0.0,0.0,0.0,0.0,0.0,0.0,0.0,0.0,0.0,0.0,0.0,0.0,0.0,0.0,0.0,0.0,0.0,0.0,0.0,0.0,0.0,0.0,0.0,0.0,0.0,0.0,0.0,0.0,0.0,0.0,0.0,0.0,0.0,0.0,0.0,0.0,0.0,0.0,0.0,0.0,0.0,0.0,0.0,0.0,0.0,0.0,0.0,0.0,0.0,0.0,0.0,0.0,0.0,0.0,0.0,0.0,0.0,0.0,0.0,0.0,0.0,0.0,0.0,0.0,0.0,0.0,0.0,0.0,0.0,0.0,0.0,0.0,0.0,0.0,0.0,0.0,0.0,0.0,0.0,0.0,0.0,0.0,0.0,0.0,0.0,0.0,0.0,0.0,0.0,0.0,0.0,0.0,0.0,0.0,0.0,0.0,0.0,0.0,0.0,0.0,0.0,0.0,0.0,0.0,0.0,0.0,0.0,1.0113,0.0,0.0,0.0,0.0,0.0,0.0,0.0,0.0,0.0,0.0,0.0,0.0,0.0,0.0,0.0,0.0,0.0,0.0,0.0,0.0,0.0,0.0,0.0,0.0,0.0,0.0,0.0,0.0,0.0,0.0,0.0,0.0,0.0,0.0,0.0,0.0,0.0,0.0,0.0,0.0,0.0,0.0,0.0,0.0,0.0,0.0,0.0,0.0,0.0,0.0,0.0,0.0,0.0,0.0,0.0,0.0,0.0,0.0,0.0,0.0,0.0,0.0,0.0,0.0,0.0,0.0,0.0,0.0,0.0,0.0,0.0,0.0,0.0,0.0,0.0,0.0,0.0,0.0,0.0,0.0,0.0,0.0,0.0,0.0,0.0,0.0,0.0,0.0,0.0,0.0,0.0,0.0,0.0,0.0,0.0,0.0,0.0,0.0,0.0,0.0,0.0,0.0,0.0,0.0,0.0,0.0,0.0,0.0,0.0,0.0,1.0154,1.0154,1.0154,1.0115,1.0113,0.0,0.0,0.0,0.0,0.0,0.0,0.0,0.0,0.0,0.0,0.0,0.0,0.0,0.0,0.0,0.0,0.0,0.0,0.0,0.0,0.0,0.0,0.0,0.0,0.0,0.0,0.0,0.0,0.0,0.0,0.0,0.0,0.0,0.0,0.0,0.0,0.0,0.0,0.0,0.0,0.0,0.0,0.0,0.0,0.0,0.0,0.0,0.0,0.0,0.0,0.0,0.0,0.0,0.0,0.0,0.0,0.0,0.0,0.0,0.0,0.0,0.0,0.0,0.0,0.0,0.0,0.0,0.0,0.0,0.0,0.0,0.0,0.0,0.0,0.0,0.0,0.0,0.0,0.0,0.0,0.0,0.0,0.0,0.0,0.0,0.0,0.0,0.0,0.0,0.0,0.0,0.0,0.0,0.0,0.0,0.0,0.0,0.0,0.0,0.0,0.0,0.0,0.0,0.0,0.0,0.0,0.0,0.0,0.0,0.0,0.0,0.0,1.0502,1.0379,1.0368,0.0,0.0,0.0,0.0,0.0,0.0,0.0,0.0,0.0,0.0,0.0,0.0,0.0,0.0,0.0,0.0,0.0,0.0,0.0,0.0,0.0,0.0,0.0,0.0,0.0,0.0,0.0,0.0,0.0,0.0,0.0,0.0,0.0,0.0,0.0,0.0,0.0,0.0,0.0,0.0,0.0,0.0,0.0,0.0,0.0,0.0,0.0,0.0,0.0,0.0,0.0,0.0,0.0,0.0,0.0,0.0,0.0,0.0,0.0,0.0,0.0,0.0,0.0,0.0,0.0,0.0,0.0,0.0,0.0,0.0,0.0,0.0,0.0,0.0,0.0,0.0,0.0,0.0,0.0,0.0,0.0,0.0,0.0,0.0,0.0,0.0,0.0,0.0,0.0,0.0,0.0,0.0,0.0,0.0,0.0,0.0,0.0,0.0,0.0,0.0,0.0,0.0,0.0,0.0,0.0,0.0,0.0,0.0,0.0,0.0,1.0847,1.2391,1.1698,0.0,1.1204,0.0,0.0,0.0,0.0,0.0,0.0,0.0,0.0,0.0,0.0,0.0,0.0,0.0,0.0,0.0,0.0,0.0,0.0,0.0,0.0,0.0,0.0,0.0,0.0,0.0,0.0,0.0,0.0,0.0,0.0,0.0,0.0,0.0,0.0,0.0,0.0,0.0,0.0,0.0,0.0,0.0,0.0,0.0,0.0,0.0,0.0,0.0,0.0,0.0,0.0,0.0,0.0,0.0,0.0,0.0,0.0,0.0,0.0,0.0,0.0,0.0,0.0,0.0,0.0,0.0,0.0,0.0,0.0,0.0,0.0,0.0,0.0,0.0,0.0,0.0,0.0,0.0,0.0,0.0,0.0,0.0,0.0,0.0,0.0,0.0,0.0,0.0,0.0,0.0,0.0,0.0,0.0,0.0,0.0,0.0,0.0,0.0,0.0,0.0,0.0,0.0,0.0,0.0,0.0,0.0,0.0,0.0,0.0,0.0,0.0,1.1969,1.2702,1.2353,1.192,0.0,0.0,0.0,0.0,0.0,0.0,0.0,0.0,0.0,0.0,0.0,0.0,0.0,0.0,0.0,0.0,0.0,0.0,0.0,0.0,0.0,0.0,0.0,0.0,0.0,0.0,0.0,0.0,0.0,0.0,0.0,0.0,0.0,0.0,0.0,0.0,0.0,0.0,0.0,0.0,0.0,0.0,0.0,0.0,0.0,0.0,0.0,0.0,0.0,0.0,0.0,0.0,0.0,0.0,0.0,0.0,0.0,0.0,0.0,0.0,0.0,0.0,0.0,0.0,0.0,0.0,0.0,0.0,0.0,0.0,0.0,0.0,0.0,0.0,0.0,0.0,0.0,0.0,0.0,0.0,0.0,0.0,0.0,0.0,0.0,0.0,0.0,0.0,0.0,0.0,0.0,0.0,0.0,0.0,0.0,0.0,0.0,0.0,0.0,0.0,0.0,0.0,0.0,0.0,0.0,0.0,0.0,0.0,0.0,0.0,1.2314,0.0,1.3003,1.2815,1.2272,1.1408,0.0,0.0,0.0,0.0,0.0,0.0,0.0,0.0,0.0,0.0,0.0,0.0,0.0,0.0,0.0,0.0,0.0,0.0,0.0,0.0,0.0,0.0,0.0,0.0,0.0,0.0,0.0,0.0,0.0,0.0,0.0,0.0,0.0,0.0,0.0,0.0,0.0,0.0,0.0,0.0,0.0,0.0,0.0,0.0,0.0,0.0,0.0,0.0,0.0,0.0,0.0,0.0,0.0,0.0,0.0,0.0,0.0,0.0,0.0,0.0,0.0,0.0,0.0,0.0,0.0,0.0,0.0,0.0,0.0,0.0,0.0,0.0,0.0,0.0,0.0,0.0,0.0,0.0,0.0,0.0,0.0,0.0,0.0,0.0,0.0,0.0,0.0,0.0,0.0,0.0,0.0,0.0,0.0,0.0,0.0,0.0,0.0,0.0,0.0,0.0,0.0,0.0,0.0,0.0,0.0,0.0,0.0,0.0,0.0,1.3468,1.3082,1.3802,1.312,1.2253,0.0,0.0,0.0,0.0,0.0,0.0,0.0,0.0,0.0,0.0,0.0,0.0,0.0,0.0,0.0,0.0,0.0,0.0,0.0,0.0,0.0,0.0,0.0,0.0,0.0,0.0,0.0,0.0,0.0,0.0,0.0,0.0,0.0,0.0,0.0,0.0,0.0,0.0,0.0,0.0,0.0,0.0,0.0,0.0,0.0,0.0,0.0,0.0,0.0,0.0,0.0,0.0,0.0,0.0,0.0,0.0,0.0,0.0,0.0,0.0,0.0,0.0,0.0,0.0,0.0,0.0,0.0,0.0,0.0,0.0,0.0,0.0,0.0,0.0,0.0,0.0,0.0,0.0,0.0,0.0,0.0,0.0,0.0,0.0,0.0,0.0,0.0,0.0,0.0,0.0,0.0,0.0,0.0,0.0,0.0,0.0,0.0,0.0,0.0,0.0,0.0,0.0,0.0,0.0,0.0,0.0,0.0,0.0,0.0,1.1883,1.2428,1.333,1.4503,1.3325,1.2452,0.0,0.0,0.0,0.0,0.0,0.0,0.0,0.0,0.0,0.0,0.0,0.0,0.0,0.0,0.0,0.0,0.0,0.0,0.0,0.0,0.0,0.0,0.0,0.0,0.0,0.0,0.0,0.0,0.0,0.0,0.0,0.0,0.0,0.0,0.0,0.0,0.0,0.0,0.0,0.0,0.0,0.0,0.0,0.0,0.0,0.0,0.0,0.0,0.0,0.0,0.0,0.0,0.0,0.0,0.0,0.0,0.0,0.0,0.0,0.0,0.0,0.0,0.0,0.0,0.0,0.0,0.0,0.0,0.0,0.0,0.0,0.0,0.0,0.0,0.0,0.0,0.0,0.0,0.0,0.0,0.0,0.0,0.0,0.0,0.0,0.0,0.0,0.0,0.0,0.0,0.0,0.0,0.0,0.0,0.0,0.0,0.0,0.0,0.0,0.0,0.0,0.0,0.0,0.0,0.0,0.0,0.0,0.0,0.0,1.1767,0.0,1.4552,0.0,1.3712,1.2556,0.0,0.0,0.0,0.0,0.0,0.0,0.0,0.0,0.0,0.0,0.0,0.0,0.0,0.0,0.0,0.0,0.0,0.0,0.0,0.0,0.0,0.0,0.0,0.0,0.0,0.0,0.0,0.0,0.0,0.0,0.0,0.0,0.0,0.0,0.0,0.0,0.0,0.0,0.0,0.0,0.0,0.0,0.0,0.0,0.0,0.0,0.0,0.0,0.0,0.0,0.0,0.0,0.0,0.0,0.0,0.0,0.0,0.0,0.0,0.0,0.0,0.0,0.0,0.0,0.0,0.0,0.0,0.0,0.0,0.0,0.0,0.0,0.0,0.0,0.0,0.0,0.0,0.0,0.0,0.0,0.0,0.0,0.0,0.0,0.0,0.0,0.0,0.0,0.0,0.0,0.0,0.0,0.0,0.0,0.0,0.0,0.0,0.0,0.0,0.0,0.0,0.0,0.0,0.0,0.0,0.0,0.0,0.0,1.1804,1.4959,1.6649,1.6617,1.5148,1.4248,1.2574,0.0,0.0,0.0,0.0,0.0,0.0,0.0,0.0,0.0,0.0,0.0,0.0,0.0,0.0,0.0,0.0,0.0,0.0,0.0,0.0,0.0,0.0,0.0,0.0,0.0,0.0,0.0,0.0,0.0,0.0,0.0,0.0,0.0,0.0,0.0,0.0,0.0,0.0,0.0,0.0,0.0,0.0,0.0,0.0,0.0,0.0,0.0,0.0,0.0,0.0,0.0,0.0,0.0,0.0,0.0,0.0,0.0,0.0,0.0,0.0,0.0,0.0,0.0,0.0,0.0,0.0,0.0,0.0,0.0,0.0,0.0,0.0,0.0,0.0,0.0,0.0,0.0,0.0,0.0,0.0,0.0,0.0,0.0,0.0,0.0,0.0,0.0,0.0,0.0,0.0,0.0,0.0,0.0,0.0,0.0,0.0,0.0,0.0,0.0,0.0,0.0,0.0,0.0,0.0,0.0,0.0,0.0,0.0,0.0,1.33,1.4833,1.562,1.5548,1.4244,1.3076,0.0,0.0,0.0,0.0,0.0,0.0,0.0,0.0,0.0,0.0,0.0,0.0,0.0,0.0,0.0,0.0,0.0,0.0,0.0,0.0,0.0,0.0,0.0,0.0,0.0,0.0,0.0,0.0,0.0,0.0,0.0,0.0,0.0,0.0,0.0,0.0,0.0,0.0,0.0,0.0,0.0,0.0,0.0,0.0,0.0,0.0,0.0,0.0,0.0,0.0,0.0,0.0,0.0,0.0,0.0,0.0,0.0,0.0,0.0,0.0,0.0,0.0,0.0,0.0,0.0,0.0,0.0,0.0,0.0,0.0,0.0,0.0,0.0,0.0,0.0,0.0,0.0,0.0,0.0,0.0,0.0,0.0,0.0,0.0,0.0,0.0,0.0,0.0,0.0,0.0,0.0,0.0,0.0,0.0,0.0,0.0,0.0,0.0,0.0,0.0,0.0,0.0,0.0,0.0,0.0,0.0,0.0,0.0,0.0,1.4754,1.5952,1.666,1.6792,1.5121,1.3871,1.3083,0.0,0.0,0.0,0.0,0.0,0.0,0.0,0.0,0.0,0.0,0.0,0.0,0.0,0.0,0.0,0.0,0.0,0.0,0.0,0.0,0.0,0.0,0.0,0.0,0.0,0.0,0.0,0.0,0.0,0.0,0.0,0.0,0.0,0.0,0.0,0.0,0.0,0.0,0.0,0.0,0.0,0.0,0.0,0.0,0.0,0.0,0.0,0.0,0.0,0.0,0.0,0.0,0.0,0.0,0.0,0.0,0.0,0.0,0.0,0.0,0.0,0.0,0.0,0.0,0.0,0.0,0.0,0.0,0.0,0.0,0.0,0.0,0.0,0.0,0.0,0.0,0.0,0.0,0.0,0.0,0.0,0.0,0.0,0.0,0.0,0.0,0.0,0.0,0.0,0.0,0.0,0.0,0.0,0.0,0.0,0.0,0.0,0.0,0.0,0.0,0.0,0.0,0.0,0.0,0.0,0.0,0.0,0.0,1.8627,1.9456,1.9454,1.8522,1.6761,1.4977,0.0,0.0,0.0,0.0,0.0,0.0,0.0,0.0,0.0,0.0,0.0,0.0,0.0,0.0,0.0,0.0,0.0,0.0,0.0,0.0,0.0,0.0,0.0,0.0,0.0,0.0,0.0,0.0,0.0,0.0,0.0,0.0,0.0,0.0,0.0,0.0,0.0,0.0,0.0,0.0,0.0,0.0,0.0,0.0,0.0,0.0,0.0,0.0,0.0,0.0,0.0,0.0,0.0,0.0,0.0,0.0,0.0,0.0,0.0,0.0,0.0,0.0,0.0,0.0,0.0,0.0,0.0,0.0,0.0,0.0,0.0,0.0,0.0,0.0,0.0,0.0,0.0,0.0,0.0,0.0,0.0,0.0,0.0,0.0,0.0,0.0,0.0,0.0,0.0,0.0,0.0,0.0,0.0,0.0,0.0,0.0,0.0,0.0,0.0,0.0,0.0,0.0,0.0,0.0,0.0,0.0,0.0,0.0,0.0,2.0273,2.094,2.0872,1.9965,1.8204,1.641,0.0,0.0,0.0,0.0,0.0,0.0,0.0,0.0,0.0,0.0,0.0,0.0,0.0,0.0,0.0,0.0,0.0,0.0,0.0,0.0,0.0,0.0,0.0,0.0,0.0,0.0,0.0,0.0,0.0,0.0,0.0,0.0,0.0,0.0,0.0,0.0,0.0,0.0,0.0,0.0,0.0,0.0,0.0,0.0,0.0,0.0,0.0,0.0,0.0,0.0,0.0,0.0,0.0,0.0,0.0,0.0,0.0,0.0,0.0,0.0,0.0,0.0,0.0,0.0,0.0,0.0,0.0,0.0,0.0,0.0,0.0,0.0,0.0,0.0,0.0,0.0,0.0,0.0,0.0,0.0,0.0,0.0,0.0,0.0,0.0,0.0,0.0,0.0,0.0,0.0,0.0,0.0,0.0,0.0,0.0,0.0,0.0,0.0,0.0,0.0,0.0,0.0,0.0,0.0,0.0,0.0,0.0,0.0,1.9435,2.1869,2.2503,2.234,2.1371,1.9596,1.7793,0.0,0.0,0.0,0.0,0.0,0.0,0.0,0.0,0.0,0.0,0.0,0.0,0.0,0.0,0.0,0.0,0.0,0.0,0.0,0.0,0.0,0.0,0.0,0.0,0.0,0.0,0.0,0.0,0.0,0.0,0.0,0.0,0.0,0.0,0.0,0.0,0.0,0.0,0.0,0.0,0.0,0.0,0.0,0.0,0.0,0.0,0.0,0.0,0.0,0.0,0.0,0.0,0.0,0.0,0.0,0.0,0.0,0.0,0.0,0.0,0.0,0.0,0.0,0.0,0.0,0.0,0.0,0.0,0.0,0.0,0.0,0.0,0.0,0.0,0.0,0.0,0.0,0.0,0.0,0.0,0.0,0.0,0.0,0.0,0.0,0.0,0.0,0.0,0.0,0.0,0.0,0.0,0.0,0.0,0.0,0.0,0.0,0.0,0.0,0.0,0.0,0.0,0.0,0.0,0.0,0.0,0.0,0.0,2.0884,2.3155,2.3801,2.3589,2.2566,2.0838,1.9089,0.0,0.0,0.0,0.0,0.0,0.0,0.0,0.0,0.0,0.0,0.0,0.0,0.0,0.0,0.0,0.0,0.0,0.0,0.0,0.0,0.0,0.0,0.0,0.0,0.0,0.0,0.0,0.0,0.0,0.0,0.0,0.0,0.0,0.0,0.0,0.0,0.0,0.0,0.0,0.0,0.0,0.0,0.0,0.0,0.0,0.0,0.0,0.0,0.0,0.0,0.0,0.0,0.0,0.0,0.0,0.0,0.0,0.0,0.0,0.0,0.0,0.0,0.0,0.0,0.0,0.0,0.0,0.0,0.0,0.0,0.0,0.0,0.0,0.0,0.0,0.0,0.0,0.0,0.0,0.0,0.0,0.0,0.0,0.0,0.0,0.0,0.0,0.0,0.0,0.0,0.0,0.0,0.0,0.0,0.0,0.0,0.0,0.0,0.0,0.0,0.0,0.0,0.0,0.0,0.0,0.0,0.0,0.0,2.1268,2.3147,2.3337,2.3283,2.3042,2.1548,1.9881,0.0,0.0,0.0,0.0,0.0,0.0,0.0,0.0,0.0,0.0,0.0,0.0,0.0,0.0,0.0,0.0,0.0,0.0,0.0,0.0,0.0,0.0,0.0,0.0,0.0,0.0,0.0,0.0,0.0,0.0,0.0,0.0,0.0,0.0,0.0,0.0,0.0,0.0,0.0,0.0,0.0,0.0,0.0,0.0,0.0,0.0,0.0,0.0,1.4675,0.0,0.0,0.0,0.0,0.0,0.0,0.0,0.0,0.0,0.0,0.0,0.0,0.0,0.0,0.0,0.0,0.0,0.0,0.0,0.0,0.0,0.0,0.0,0.0,0.0,0.0,0.0,0.0,0.0,0.0,0.0,0.0,0.0,0.0,0.0,0.0,0.0,0.0,0.0,0.0,0.0,0.0,0.0,0.0,0.0,0.0,0.0,0.0,0.0,0.0,0.0,0.0,0.0,0.0,0.0,0.0,0.0,0.0,0.0,2.1612,2.3371,2.345,2.3276,2.2958,2.2192,2.076,0.0,0.0,0.0,0.0,0.0,0.0,0.0,0.0,0.0,0.0,0.0,0.0,0.0,0.0,0.0,0.0,0.0,0.0,0.0,0.0,0.0,0.0,0.0,0.0,0.0,0.0,0.0,0.0,0.0,0.0,0.0,0.0,0.0,0.0,0.0,0.0,0.0,0.0,0.0,0.0,0.0,0.0,0.0,0.0,0.0,0.0,0.0,0.0,0.0,0.0,0.0,0.0,0.0,0.0,0.0,0.0,0.0,0.0,0.0,0.0,0.0,0.0,0.0,0.0,0.0,0.0,0.0,0.0,0.0,0.0,0.0,0.0,0.0,0.0,0.0,0.0,0.0,0.0,0.0,0.0,0.0,0.0,0.0,0.0,0.0,0.0,0.0,0.0,0.0,0.0,0.0,0.0,0.0,0.0,0.0,0.0,0.0,0.0,0.0,0.0,0.0,0.0,0.0,0.0,0.0,0.0,0.0,2.0107,2.175,2.3598,2.3549,2.3212,2.2717,2.2646,2.1524,1.9156,0.0,0.0,0.0,0.0,0.0,0.0,0.0,0.0,0.0,0.0,0.0,0.0,0.0,0.0,0.0,0.0,0.0,0.0,0.0,0.0,0.0,0.0,0.0,0.0,0.0,0.0,0.0,0.0,0.0,0.0,0.0,0.0,0.0,0.0,0.0,0.0,0.0,0.0,1.436,1.6472,0.0,0.0,0.0,0.0,0.0,0.0,0.0,0.0,1.6677,0.0,0.0,0.0,0.0,0.0,0.0,0.0,0.0,0.0,0.0,0.0,0.0,0.0,0.0,0.0,0.0,0.0,0.0,0.0,0.0,0.0,0.0,0.0,0.0,0.0,0.0,0.0,0.0,0.0,0.0,0.0,0.0,0.0,0.0,0.0,0.0,0.0,0.0,0.0,0.0,0.0,0.0,0.0,0.0,0.0,0.0,0.0,0.0,0.0,0.0,0.0,0.0,0.0,0.0,0.0,0.0,2.0495,2.0207,2.1208,2.3597,2.2939,2.2577,2.2685,2.2473,2.1563,1.987,0.0,0.0,0.0,0.0,0.0,0.0,0.0,0.0,0.0,0.0,0.0,0.0,0.0,0.0,0.0,0.0,0.0,0.0,0.0,0.0,0.0,0.0,0.0,0.0,0.0,0.0,0.0,0.0,0.0,0.0,0.0,0.0,0.0,0.0,0.0,0.0,0.0,0.0,0.0,1.8942,2.0366,0.0,0.0,0.0,0.0,0.0,0.0,0.0,0.0,1.7338,0.0,0.0,0.0,0.0,0.0,0.0,0.0,0.0,0.0,0.0,0.0,0.0,0.0,0.0,0.0,0.0,0.0,0.0,0.0,0.0,0.0,0.0,0.0,0.0,0.0,0.0,0.0,0.0,0.0,0.0,0.0,0.0,0.0,0.0,0.0,0.0,0.0,0.0,0.0,0.0,0.0,0.0,0.0,0.0,0.0,0.0,0.0,0.0,0.0,0.0,0.0,0.0,0.0,0.0,0.0,1.9904,2.0884,2.1903,2.3115,2.2736,2.2497,2.2483,2.198,2.1214,0.0,0.0,0.0,0.0,0.0,0.0,0.0,0.0,0.0,0.0,0.0,0.0,0.0,0.0,0.0,0.0,0.0,0.0,0.0,0.0,0.0,0.0,0.0,0.0,0.0,0.0,0.0,0.0,0.0,0.0,0.0,0.0,0.0,0.0,0.0,0.0,0.0,0.0,0.0,0.0,1.9741,2.0617,2.1328,0.0,0.0,0.0,0.0,0.0,0.0,1.8819,1.8284,0.0,0.0,0.0,0.0,0.0,0.0,0.0,0.0,0.0,0.0,0.0,0.0,0.0,0.0,0.0,0.0,0.0,0.0,0.0,0.0,0.0,0.0,0.0,0.0,0.0,0.0,0.0,0.0,0.0,0.0,0.0,0.0,0.0,0.0,0.0,0.0,0.0,0.0,0.0,0.0,0.0,0.0,0.0,0.0,0.0,0.0,0.0,0.0,0.0,0.0,0.0,0.0,0.0,0.0,0.0,1.9365,2.1241,2.2361,2.2664,2.2668,2.2524,2.2297,2.1725,2.0974,0.0,0.0,0.0,0.0,0.0,0.0,0.0,0.0,0.0,0.0,0.0,0.0,0.0,0.0,0.0,0.0,0.0,0.0,0.0,0.0,0.0,0.0,0.0,0.0,0.0,0.0,0.0,0.0,0.0,0.0,0.0,0.0,0.0,0.0,0.0,0.0,0.0,0.0,0.0,0.0,0.0,2.1174,2.2163,2.1025,0.0,0.0,0.0,0.0,2.1109,2.0361,0.0,0.0,0.0,0.0,0.0,0.0,0.0,0.0,0.0,0.0,0.0,0.0,0.0,0.0,0.0,0.0,0.0,0.0,0.0,0.0,0.0,0.0,0.0,0.0,0.0,0.0,0.0,0.0,0.0,0.0,0.0,0.0,0.0,0.0,0.0,0.0,0.0,0.0,0.0,0.0,0.0,0.0,0.0,0.0,0.0,0.0,0.0,0.0,0.0,0.0,0.0,0.0,0.0,0.0,0.0,0.0,1.9972,2.0392,2.1283,2.2585,2.245,2.2359,2.2313,2.2215,2.1505,0.0,0.0,0.0,0.0,0.0,0.0,0.0,0.0,0.0,0.0,0.0,0.0,0.0,0.0,0.0,0.0,0.0,0.0,0.0,0.0,0.0,0.0,0.0,0.0,0.0,0.0,0.0,0.0,0.0,0.0,0.0,0.0,0.0,0.0,0.0,0.0,0.0,0.0,0.0,0.0,0.0,2.4012,2.3406,2.2889,2.2623,0.0,0.0,2.2022,2.352,2.2787,0.0,0.0,0.0,0.0,0.0,0.0,0.0,0.0,0.0,0.0,0.0,0.0,0.0,0.0,0.0,0.0,0.0,0.0,0.0,0.0,0.0,0.0,0.0,0.0,0.0,0.0,0.0,0.0,0.0,0.0,0.0,0.0,0.0,0.0,0.0,0.0,0.0,0.0,0.0,0.0,0.0,0.0,0.0,0.0,0.0,0.0,0.0,0.0,0.0,0.0,0.0,0.0,0.0,0.0,0.0,1.7891,1.9934,2.1076,2.1929,2.2429,2.2374,2.2313,2.2313,2.1644,2.0679,0.0,0.0,0.0,0.0,0.0,0.0,0.0,0.0,0.0,0.0,0.0,0.0,0.0,0.0,0.0,0.0,0.0,0.0,0.0,0.0,0.0,0.0,0.0,0.0,0.0,0.0,0.0,0.0,0.0,0.0,0.0,0.0,0.0,0.0,0.0,0.0,0.0,0.0,0.0,0.0,0.0,0.0,2.419,2.3939,0.0,0.0,0.0,2.3707,2.5334,0.0,0.0,0.0,0.0,0.0,0.0,0.0,0.0,0.0,0.0,0.0,0.0,0.0,0.0,0.0,0.0,0.0,0.0,0.0,0.0,0.0,0.0,0.0,0.0,0.0,0.0,0.0,0.0,0.0,0.0,0.0,0.0,0.0,0.0,0.0,0.0,0.0,0.0,0.0,0.0,0.0,0.0,0.0,0.0,0.0,0.0,0.0,0.0,0.0,0.0,0.0,0.0,0.0,0.0,0.0,0.0,0.0,2.0048,2.1712,2.2569,2.2571,2.2292,2.2255,2.2543,2.1417,0.0,0.0,0.0,0.0,0.0,0.0,0.0,0.0,0.0,0.0,0.0,0.0,0.0,0.0,0.0,0.0,0.0,0.0,0.0,0.0,0.0,0.0,0.0,0.0,0.0,0.0,0.0,1.0582,0.0,0.0,0.0,0.0,0.0,0.0,0.0,0.0,0.0,0.0,0.0,0.0,0.0,0.0,2.4232,2.4905,2.4898,2.5077,0.0,0.0,2.5281,2.669,2.582,2.4733,0.0,0.0,0.0,0.0,0.0,0.0,0.0,0.0,0.0,0.0,0.0,0.0,0.0,0.0,0.0,0.0,0.0,0.0,0.0,0.0,0.0,0.0,0.0,0.0,0.0,0.0,0.0,0.0,0.0,0.0,0.0,0.0,0.0,0.0,0.0,0.0,0.0,0.0,0.0,0.0,0.0,0.0,0.0,0.0,0.0,0.0,0.0,0.0,0.0,0.0,0.0,0.0,0.0,0.0,0.0,2.0739,2.1777,2.266,2.3267,2.2245,2.2189,2.3256,2.2152,2.1031,0.0,0.0,0.0,0.0,0.0,0.0,0.0,0.0,0.0,0.0,0.0,0.0,0.0,0.0,0.0,0.0,0.0,0.0,0.0,0.0,0.0,0.0,0.0,0.0,0.0,0.0,0.0,0.0,0.0,0.0,0.0,0.0,0.0,0.0,0.0,0.0,0.0,0.0,0.0,0.0,0.0,2.5552,2.5529,2.6035,2.6721,0.0,0.0,2.6714,2.7576,2.706,2.6084,2.4697,0.0,0.0,0.0,0.0,0.0,0.0,0.0,0.0,0.0,0.0,0.0,0.0,0.0,0.0,0.0,0.0,0.0,0.0,0.0,0.0,0.0,0.0,0.0,0.0,0.0,0.0,0.0,0.0,0.0,0.0,0.0,0.0,0.0,0.0,0.0,0.0,0.0,0.0,0.0,0.0,0.0,0.0,0.0,0.0,0.0,0.0,0.0,0.0,0.0,0.0,0.0,0.0,0.0,1.9539,2.1432,2.2452,2.3342,2.4015,2.3301,2.2923,2.2948,2.1968,2.0629,0.0,0.0,0.0,0.0,0.0,0.0,0.0,0.0,0.0,0.0,0.0,0.0,0.0,0.0,0.0,0.0,0.0,0.0,0.0,0.0,0.0,0.0,0.0,0.0,0.0,0.0,0.0,0.0,1.4272,1.4785,1.4879,0.0,0.0,0.0,0.0,0.0,0.0,0.0,0.0,0.0,0.0,2.5976,2.6675,2.7743,0.0,0.0,2.9,2.8922,2.9235,2.8421,2.7162,2.5459,2.3942,0.0,0.0,0.0,0.0,0.0,0.0,0.0,0.0,0.0,0.0,0.0,0.0,0.0,0.0,0.0,0.0,0.0,0.0,0.0,0.0,0.0,0.0,0.0,0.0,0.0,0.0,0.0,0.0,0.0,0.0,0.0,0.0,0.0,0.0,0.0,0.0,0.0,0.0,0.0,0.0,0.0,0.0,0.0,0.0,0.0,0.0,0.0,0.0,0.0,0.0,0.0,0.0,1.9611,2.1785,2.2846,2.3853,2.4801,2.3964,2.3379,2.3036,2.191,2.05,0.0,0.0,0.0,0.0,0.0,0.0,0.0,0.0,0.0,0.0,0.0,0.0,0.0,0.0,0.0,0.0,0.0,0.0,0.0,0.0,0.0,0.0,0.0,0.0,0.0,0.0,0.0,0.0,1.575,1.5871,1.5413,0.0,0.0,0.0,0.0,0.0,0.0,0.0,0.0,0.0,0.0,2.6671,2.7637,2.9033,3.0075,3.0319,3.0163,2.9969,2.9856,2.916,2.8003,2.6239,0.0,0.0,0.0,0.0,0.0,0.0,0.0,0.0,0.0,0.0,0.0,0.0,0.0,0.0,0.0,0.0,0.0,0.0,0.0,0.0,0.0,0.0,0.0,0.0,0.0,0.0,0.0,1.2043,0.0,0.0,1.2001,0.0,0.0,0.0,0.0,0.0,0.0,0.0,0.0,0.0,0.0,0.0,0.0,0.0,0.0,0.0,0.0,0.0,0.0,0.0,0.0,0.0,0.0,1.9448,2.1475,2.2769,2.4109,2.5459,2.3982,2.3362,2.3774,2.2204,2.0856,1.9843,0.0,0.0,0.0,0.0,0.0,0.0,0.0,0.0,0.0,0.0,0.0,0.0,0.0,0.0,0.0,0.0,0.0,0.0,0.0,0.0,0.0,0.0,0.0,0.0,0.0,0.0,1.5993,1.5944,1.5568,0.0,0.0,0.0,0.0,0.0,0.0,0.0,0.0,0.0,0.0,2.5802,2.7929,2.836,2.9777,3.0819,3.0794,3.0182,2.9518,2.919,2.9054,2.8541,0.0,0.0,0.0,0.0,0.0,0.0,0.0,0.0,0.0,0.0,0.0,0.0,0.0,0.0,0.0,0.0,0.0,0.0,0.0,0.0,0.0,0.0,0.0,0.0,0.0,0.0,0.0,1.5088,1.3929,0.0,0.0,0.0,0.0,0.0,0.0,0.0,0.0,0.0,0.0,0.0,1.9726,2.0103,0.0,0.0,0.0,0.0,0.0,0.0,0.0,0.0,0.0,0.0,0.0,0.0,2.0304,2.2402,2.3217,2.4157,2.5257,2.4436,2.3826,2.3577,2.2265,2.0677,1.8773,0.0,0.0,0.0,0.0,0.0,0.0,0.0,0.0,0.0,0.0,0.0,0.0,0.0,0.0,0.0,0.0,0.0,0.0,0.0,0.0,0.0,0.0,0.0,0.0,0.0,1.7451,0.0,0.0,0.0,0.0,0.0,0.0,0.0,0.0,0.0,0.0,0.0,2.4429,2.5667,2.7414,2.8906,2.9811,3.1271,3.2182,0.0,0.0,0.0,0.0,0.0,0.0,0.0,0.0,0.0,0.0,0.0,0.0,0.0,0.0,2.8426,2.4871,2.376,2.3588,2.4112,0.0,0.0,0.0,0.0,0.0,0.0,0.0,0.0,0.0,0.0,0.0,0.0,0.0,0.0,1.737,1.6485,1.5959,0.0,0.0,0.0,0.0,0.0,0.0,0.0,0.0,2.1138,2.1537,2.1853,2.2187,2.2063,0.0,2.1192,2.0351,0.0,0.0,0.0,0.0,0.0,0.0,0.0,0.0,2.1087,2.2807,2.3667,2.4439,2.5142,2.4682,2.4064,2.3417,2.2081,2.0561,1.8862,1.8219,1.7587,0.0,0.0,0.0,0.0,0.0,0.0,0.0,0.0,0.0,0.0,0.0,0.0,0.0,0.0,0.0,0.0,0.0,0.0,0.0,0.0,0.0,0.0,0.0,1.8698,0.0,0.0,0.0,0.0,0.0,0.0,0.0,0.0,0.0,2.4874,2.5167,2.589,2.7604,2.8709,2.9896,3.1308,0.0,0.0,0.0,0.0,0.0,0.0,0.0,3.0206,2.9691,2.9727,2.9689,2.9399,3.0386,3.1184,3.1114,0.0,0.0,2.7625,2.6795,2.6754,2.7257,2.7924,2.8324,2.818,2.8901,2.9444,0.0,0.0,0.0,0.0,0.0,0.0,0.0,0.0,1.9151,1.945,0.0,1.951,0.0,0.0,0.0,0.0,1.865,1.984,0.0,0.0,2.2863,2.3808,2.4451,2.4424,2.4424,2.4435,2.4368,2.3665,2.2222,1.9826,0.0,0.0,0.0,0.0,0.0,0.0,2.1836,2.2674,2.3993,2.4887,2.5107,2.4606,2.4059,2.3378,2.1702,2.0626,2.0194,1.9577,1.8958,1.833,1.6945,0.0,0.0,0.0,0.0,0.0,0.0,0.0,0.0,0.0,0.0,0.0,0.0,0.0,0.0,0.0,0.0,0.0,0.0,0.0,0.0,1.9183,0.0,0.0,0.0,0.0,0.0,0.0,0.0,0.0,0.0,0.0,2.549,2.6538,2.7732,2.8945,0.0,0.0,0.0,0.0,3.3289,3.3987,3.3542,3.2934,3.2512,3.2755,3.2786,3.203,0.0,0.0,3.2723,3.2468,3.2242,3.1441,3.1802,3.2015,3.2275,3.1473,3.0997,3.1059,3.1064,3.116,3.1243,3.1738,3.2268,2.1467,0.0,0.0,0.0,0.0,2.1487,2.1745,2.171,2.2285,2.2236,2.1696,2.1178,0.0,0.0,0.0,0.0,0.0,0.0,2.3502,2.4686,2.4451,2.448,2.4688,2.4285,2.3854,2.3457,2.3778,2.371,2.3283,2.2925,2.1509,1.9161,0.0,0.0,0.0,0.0,2.2381,2.3601,2.3713,2.3841,2.4049,2.3911,2.3539,2.2914,2.239,2.1624,2.0587,2.0645,2.0146,1.899,1.8363,0.0,0.0,0.0,0.0,0.0,0.0,0.0,0.0,0.0,0.0,0.0,0.0,0.0,0.0,0.0,0.0,0.0,0.0,0.0,1.9798,2.0393,2.0553,0.0,0.0,0.0,0.0,0.0,0.0,0.0,0.0,0.0,2.8496,2.9171,3.0013,0.0,0.0,3.2662,3.3218,3.3738,3.4157,3.4373,3.465,0.0,3.4671,3.4315,3.4153,3.4451,3.5469,3.6195,3.6284,3.5858,3.5446,3.5145,3.4798,3.4556,3.4522,3.3155,3.2252,3.2641,3.2825,3.301,3.3543,3.3872,3.4072,2.3965,2.3266,2.2465,2.2465,2.3056,2.3459,2.3672,2.3777,2.413,2.4144,2.3905,2.3472,2.3279,2.3193,2.2724,0.0,0.0,0.0,2.5104,2.6036,2.5471,2.5385,2.5709,2.537,2.5013,2.468,2.4959,2.5054,2.4964,2.5287,2.4356,2.2224,0.0,0.0,2.2511,2.3137,2.3691,2.4176,2.443,2.4482,2.4404,2.4137,2.3699,2.3082,2.2823,2.2308,2.152,2.146,2.1017,2.0081,1.9583,1.8943,0.0,0.0,0.0,0.0,0.0,0.0,0.0,0.0,0.0,0.0,0.0,1.5332,1.3342,0.0,0.0,0.0,1.7826,1.9509,2.1284,2.1808,0.0,0.0,0.0,0.0,0.0,0.0,0.0,2.6346,2.7717,2.9148,3.0894,3.1939,3.2663,3.3131,3.3296,3.3715,3.4637,0.0,3.5145,3.5751,3.6226,3.6515,3.6519,3.6146,3.6011,3.6423,3.6898,3.7362,3.777,3.7517,3.7246,3.7178,3.684,3.645,3.6225,3.524,3.4535,3.4862,3.5109,3.5431,3.5883,3.5962,3.6033,2.5896,2.5835,2.5044,2.4797,2.4949,2.5022,2.5027,2.4959,2.5012,2.5388,2.6022,2.6027,2.6048,2.6092,2.5978,0.0,2.5909,2.5914,2.6014,2.6157,2.6143,2.6497,2.7206,2.7164,2.7142,2.7079,2.7121,2.7041,2.6852,2.6929,2.6914,2.6699,2.5439,2.4651,2.4485,2.531,2.5327,2.4508,2.5679,2.6073,2.5585,2.4969,2.4311,2.3689,2.3087,2.2773,2.2673,2.2069,2.1579,2.1236,2.0549,1.9929,1.9342,0.0,0.0,0.0,0.0,0.0,0.0,0.0,0.0,0.0,0.0,0.0,0.0,0.0,0.0,0.0,2.0355,0.0,2.2448,2.3393,0.0,0.0,0.0,2.3789,2.5589,2.5834,2.6355,2.7542,0.0,0.0,3.2818,3.4548,3.5452,3.4845,3.4167,3.4531,3.6599,3.6254,3.6321,3.7703,3.7966,3.7989,3.8031,3.8032,3.8017,3.8043,3.8079,3.813,3.8135,3.8042,3.8006,3.7984,3.7944,3.7741,3.7291,3.7524,3.7837,3.7209,3.7499,3.7793,3.7616,3.7636,3.7711,2.865,2.8627,2.8413,2.723,2.5502,2.5982,2.5921,2.5497,2.5976,2.6239,2.6311,2.6291,2.6549,2.6903,2.6883,2.6886,2.6876,2.6881,2.7182,2.7705,2.7269,2.7195,2.7396,2.6953,2.6476,2.6049,2.6394,2.657,2.657,2.7412,2.7591,2.7128,2.7165,2.6915,2.6271,2.5697,2.5586,2.5894,2.5813,2.5713,2.5585,2.4969,2.4504,2.4365,2.3724,2.3166,2.2703,2.2034,2.1444,2.0863,2.0204,1.9619,1.9264,1.7982,0.0,0.0,0.0,0.0,0.0,0.0,0.0,0.0,0.0,1.8535,1.5096,0.0,2.097,0.0,2.1672,2.3298,2.4257,2.5092,0.0,0.0,2.6235,2.6904,2.877,2.8511,2.8725,3.0139,3.1811,3.3386,3.4756,3.5864,3.6652,3.7026,3.6944,3.7015,3.7603,3.7497,3.7685,3.8516,3.8731,3.8945,3.9436,3.9581,3.9565,3.9581,3.9587,3.9568,3.9587,3.9085,3.8746,3.87,3.8255,3.8018,3.8197,3.85,3.8595,3.8295,3.8064,3.772,3.7128,3.7467,3.7895,2.9608,2.9608,2.9608,2.874,2.741,2.7775,2.7722,2.7416,2.7782,2.7898,2.782,2.782,2.8139,2.8643,2.8655,2.8655,2.8666,2.8655,2.874,2.8876,2.8511,2.8259,2.7984,2.7651,2.7295,2.6883,2.6924,2.7198,2.7743,2.8108,2.8243,2.8184,2.8249,2.8068,2.7593,2.67,2.6298,2.6485,2.6471,2.6339,2.6028,2.5693,2.5202,2.4629,2.424,2.3754,2.3106,2.2483,2.1844,2.1186,2.0498,2.0127,1.9992,1.8616,1.7834,0.0,0.0,0.0,0.0,0.0,0.0,0.0,0.0,0.0,0.0,0.0,2.2467,2.2126,2.376,2.5233,2.6144,2.7211,2.804,2.8447,2.8793,2.9524,3.0944,3.0702,3.1181,3.2948,3.3875,3.5035,3.67,3.7419,3.7922,3.8338,3.867,3.8753,3.8454,3.8381,3.8661,3.9337,3.9477,3.9737,4.0495,4.0869,4.1078,4.1075,4.1088,4.1068,4.1071,4.0732,4.0466,4.0419,3.9583,3.8912,3.9148,3.8975,3.8805,3.8562,3.8636,3.8348,3.7433,3.755,3.784,2.9841,2.9847,2.9847,2.9841,2.9847,2.9847,2.9751,2.9608,2.9608,2.9608,2.9608,2.9608,2.9876,3.0377,3.0389,3.0389,3.0389,3.0389,3.0101,2.9628,2.9608,2.9309,2.8733,2.8733,2.8701,2.8608,2.8089,2.8376,2.9376,2.8974,2.8986,2.9408,2.8974,2.8736,2.8614,2.7986,2.7381,2.674,2.7309,2.7321,2.6764,2.6644,2.6004,2.4814,2.4664,2.4281,2.3615,2.3032,2.2433,2.1844,2.1171,2.0863,2.0918,1.9467,1.9006,0.0,1.8643,0.0,0.0,0.0,0.0,0.0,0.0,0.0,0.0,2.2018,2.3468,2.4937,2.6427,2.7537,2.8191,2.9523,3.0374,3.0408,3.1128,3.1911,3.2621,3.2796,3.3603,3.5577,3.5755,3.6477,3.8237,3.8695,3.8694,3.8805,3.9463,3.9752,3.9282,3.9242,3.9574,4.0174,4.0309,4.0677,4.1228,4.1742,4.199,4.2045,4.1828,4.197,4.1798,4.182,4.1862,4.1741,4.0754,3.9982,3.9921,3.9346,3.8836,3.848,3.8952,3.9068,3.8074,3.8006,3.8019,3.1122,3.1122,3.1129,3.1122,3.1129,3.1152,3.0545,2.9608,2.9608,2.9608,2.9608,2.9608,2.9675,2.9773,2.9773,2.9766,2.9773,2.9773,2.9706,2.9608,2.9608,2.9525,2.9398,2.9398,2.9405,2.9392,2.9272,2.9322,2.9572,2.9949,2.9937,2.9579,2.9943,2.9885,2.9408,0.0,0.0,0.0,2.7531,2.7525,2.7405,2.6884,2.6219,2.5423,2.4862,0.0,2.3615,2.3022,2.2648,2.2488,2.1884,0.0,0.0,0.0,0.0,0.0,0.0,0.0,0.0,0.0,0.0,0.0,2.4049,2.3902,2.2967,2.4678,2.6512,2.8013,2.9469,3.0391,3.0536,3.1345,3.1887,3.1916,3.3056,3.4178,3.4906,3.5526,3.6214,3.6699,3.6615,3.7012,3.8302,3.7779,3.7419,3.8122,3.9235,3.9981,3.9916,4.0346,4.0791,4.1001,4.1335,4.1841,4.2085,4.1626,4.1382,4.1205,4.0671,4.0403,4.046,4.0413,4.0341,4.0403,4.0023,3.9846,3.9844,3.9674,3.9291,3.8682,3.8707,3.8577,3.7833,3.8587,3.9236,3.2482,3.2482,3.2482,3.2482,0.0,3.2482,3.2138,3.1524,3.1187,3.1225,3.1524,3.1517,3.1517,3.1524,3.1187,3.1038,3.1001,3.0672,3.0538,3.0538,3.0538,3.0342,3.005,3.005,3.0047,3.0029,2.9746,2.9753,3.0035,3.0062,2.9883,2.9598,2.9896,2.989,2.9621,2.9608,2.9255,2.8603,2.8261,2.8081,2.8081,2.7459,2.677,2.6123,2.5764,0.0,0.0,0.0,0.0,0.0,0.0,0.0,0.0,0.0,0.0,2.2365,2.3198,2.378,2.3917,2.4639,2.5519,2.6649,2.8053,2.8116,2.6331,2.7212,2.8609,3.0439,3.1335,3.1892,3.2288,3.328,3.3931,3.4004,3.5284,3.6327,3.6658,3.6742,3.6923,3.7355,3.7295,3.7583,3.8564,3.8502,3.8379,3.8738,3.9422,3.9961,4.0083,4.0976,4.1639,4.119,4.1338,4.1577,4.1628,4.1669,4.149,4.1412,4.1139,4.0926,4.0903,4.0903,4.0911,4.0839,4.0301,3.9841,4.0108,3.9675,3.8985,3.8674,3.8758,3.8767,3.8174,3.8342,3.8513,3.3522,3.3522,3.3522,3.3522,3.3522,3.3522,3.3574,3.3642,3.2976,0.0,0.0,3.3522,3.3522,3.3455,3.2908,3.2662,3.2639,3.2108,3.1832,3.1877,3.1839,3.1495,3.0874,3.0844,3.0783,3.0654,3.0165,3.0186,3.0661,3.0165,2.993,2.9937,2.993,2.9924,2.9937,2.993,2.993,2.9907,2.9175,2.8763,2.8757,2.8231,2.7645,2.6967,2.6848,2.6465,2.5788,2.4621,2.3939,2.3944,2.2946,2.2491,2.2728,2.3112,2.3813,2.4825,2.5536,2.6283,2.708,2.7502,2.8245,2.9493,3.1283,3.153,2.9697,2.978,3.0681,3.2517,3.2939,3.3401,3.3948,3.5193,3.6011,3.6011,3.7268,3.8043,3.7892,3.7581,3.7544,3.7883,3.791,3.8086,3.8643,3.9004,3.9374,3.9376,3.9511,3.994,4.0263,4.1211,4.1748,4.134,4.1436,4.1322,4.119,4.143,4.182,4.1644,4.1522,4.1559,4.1519,4.1519,4.1519,4.1269,4.0429,4.002,4.0223,3.9499,3.863,3.8559,3.8981,3.9242,3.8691,3.8161,3.7884,3.3522,3.3522,3.3522,3.3522,3.3522,3.3522,3.3821,3.4278,3.3634,3.3425,3.3522,3.3522,3.3522,3.3522,3.3395,3.3335,3.3335,3.3283,3.3215,3.3223,3.3208,3.2878,3.2243,3.222,3.1935,3.14,3.1254,3.1262,3.1333,3.1262,3.1249,3.1219,3.1241,3.1212,3.1241,3.1249,3.1219,3.1212,3.005,2.9458,2.9458,2.9375,2.9003,2.8338,2.7758,2.7129,2.6465,2.5734,2.5304,2.5315,2.516,2.4824,2.4357,2.5293,2.5724,2.5457,2.7393,2.8731,2.886,3.0482,3.1626,3.1907,3.2216,3.2209,3.1904,3.2832,3.3669,3.4212,3.5441,3.6388,3.6411,3.7037,3.7485,3.7592,3.831,3.8574,3.7991,3.8709,3.9072,3.8647,3.8534,3.8458,3.8568,3.8227,3.8,3.802,3.9014,4.0103,4.104,4.1306,4.1367,4.177,4.2238,4.2279,4.1669,4.1416,4.1139,4.0888,4.0309,3.9994,4.0003,3.9973,3.9973,3.9835,3.9661,3.9546,3.9622,3.9466,3.92,3.9191,3.9331,3.9331,3.9191,3.9062,3.9023,3.4592,3.4584,3.4592,3.4592,3.4592,3.4584,3.4749,3.5011,3.4711,3.4592,3.4592,3.4592,3.4592,3.4554,3.421,3.4039,3.4046,3.3672,3.3522,3.3522,3.3522,3.3342,3.3058,3.3036,3.2871,3.2609,3.2602,3.2572,3.2572,3.2572,3.2602,3.2572,3.2579,3.2392,3.2056,3.2026,3.1877,3.1481,3.0575,3.008,3.008,2.9788,2.9465,2.9152,2.8836,2.8543,2.8231,2.759,2.7224,2.723,2.6877,2.6554,2.6291,2.7085,2.7594,2.7684,2.9056,3.004,3.0364,3.1632,3.2581,3.2981,3.339,3.3734,3.4061,3.4275,3.4611,3.5133,3.6598,3.7517,3.741,3.7681,3.798,3.8361,3.8702,3.8895,3.8886,3.8956,3.9048,3.8741,3.8557,3.8496,3.8493,3.8486,3.8471,3.8576,3.921,3.9873,4.0497,4.0354,4.0383,4.1108,4.1137,4.086,4.0653,4.0378,4.0148,3.9999,3.9666,3.9409,3.9412,3.9412,3.9412,3.9412,3.9412,3.9412,3.9412,3.9382,3.9412,3.9412,3.9412,3.9412,3.9412,3.9412,3.9412,3.5922,3.593,3.593,3.593,3.593,3.593,3.593,3.593,3.593,3.5938,3.59,3.5623,3.5489,3.5421,3.4929,3.4727,3.4667,3.4181,3.3971,3.3941,3.3963,3.3881,3.3732,3.3732,3.3649,3.3514,3.3522,3.3522,3.3522,3.3522,3.3385,3.3201,3.317,3.2802,3.21,3.2306,3.2168,3.1657,3.1349,3.1031,3.0724,3.026,3.0006,3.002,2.9864,2.9788,2.9794,2.9152,2.8823,2.8816,2.8327,2.8077,2.807,2.853,2.9022,2.9535,3.0293,3.1154,3.2061,3.2774,3.3341,3.3704,3.4238,3.4722,3.5058,3.4983,3.5053,3.5724,3.6864,3.7721,3.7812,3.7985,3.8295,3.8917,3.9026,3.9149,3.9414,3.9098,3.8727,3.8607,3.8585,3.863,3.8693,3.9077,3.9313,3.9304,3.9412,3.9412,3.9412,3.9412,3.972,4.0034,3.9835,3.9553,3.9412,3.9436,3.9445,3.9412,3.943,3.9412,3.9412,3.9412,3.9412,3.9412,3.9412,3.9412,3.9412,3.9412,3.9412,3.9412,3.9412,3.9412,3.9412,3.9412,3.9412,3.7178,3.7216,3.7186,3.7216,3.7186,3.7186,3.7148,3.7186,3.7216,3.7216,3.7028,3.602,3.5549,3.5489,3.5451,3.5459,3.5429,3.5332,3.5302,3.531,3.5302,3.4981,3.4458,3.4406,3.4099,3.3604,3.3574,3.3642,3.3604,3.3551,3.3083,3.2309,3.2213,3.1793,3.1015,3.1724,3.2113,3.2056,3.2824,3.2632,3.1481,3.1361,3.1331,3.1308,3.0754,3.0425,3.0492,2.9811,2.9518,2.9495,2.9518,2.9435,2.9458,2.9488,2.9559,2.9676,3.0834,3.23,3.4055,3.4944,3.4952,3.449,3.4435,3.4336,3.397,3.4916,3.5577,3.5874,3.6613,3.74,3.7711,3.8298,3.8877,3.9515,3.956,3.9485,3.8978,3.9193,3.923,3.8494,3.8929,3.9311,3.9251,3.9331,3.9382,3.9412,3.9412,3.9412,3.9412,3.9412,3.9409,3.9544,3.94,3.94,3.9412,3.9412,3.9412,3.9412,3.9412,3.9412,3.9412,3.9412,3.9412,3.9412,3.9412,3.9412,3.9412,3.9412,3.9412,3.9412,3.9412,3.9412,3.9412,3.9412,3.9412,3.7387,3.7387,3.7387,3.7387,3.7387,3.7387,3.7387,3.7387,3.7387,3.7387,3.7336,3.6819,3.6626,3.6648,3.6618,3.6618,3.6588,3.6267,3.6289,3.6498,3.587,3.5557,3.5655,3.5258,3.4921,3.4681,3.4681,3.4681,3.4586,3.4101,3.3586,3.3197,3.269,3.1974,3.1344,3.2168,3.2503,3.2145,3.3022,3.3215,3.2759,3.2691,3.2677,3.2669,3.2407,3.2265,3.2265,3.2026,3.1913,3.1906,3.192,3.1913,3.1913,3.1906,3.1906,3.192,3.2393,3.3068,3.3885,3.4207,3.4405,3.4448,3.4501,3.468,3.5224,3.5491,3.5853,3.6628,3.7369,3.811,3.8787,3.8806,3.8937,3.9491,3.9273,3.9009,3.9117,3.933,3.9297,3.9056,3.9212,3.9412,3.9412,3.9412,3.9412,3.9412,3.9412,3.9412,3.9412,3.9412,3.9412,3.9412,3.9412,3.9412,3.9412,3.9412,3.9412,3.9412,3.9412,3.9412,3.9412,3.9412,3.9412,3.9412,3.9412,3.9412,3.9412,3.9412,3.9412,3.9412,3.9412,3.9412,3.9412,3.9412,3.9412,3.7926,3.7973,3.7956,3.7964,3.7964,3.7956,3.7956,3.7964,3.7964,3.7934,3.7956,3.7956,3.7926,3.7904,3.7575,3.7387,3.7336,3.6926,3.6956,3.7276,3.6409,3.6289,3.6656,3.6267,3.6011,3.602,3.602,3.5887,3.5574,3.4924,3.4168,3.3493,3.277,3.1992,3.1343,3.2307,3.2748,3.2404,3.3411,3.4061,3.4053,3.4061,3.3873,3.3552,3.3522,3.3522,3.3522,3.3522,3.3522,3.3492,3.3522,3.3522,3.3522,3.3522,3.3522,3.3514,3.3672,3.3791,3.3791,3.3941,3.433,3.4937,3.5035,3.5514,3.6395,3.6297,3.6537,3.752,3.823,3.8898,3.9191,3.8886,3.8858,3.94,3.8987,3.891,3.932,3.9412,3.9409,3.9412,3.9382,3.9412,3.9412,3.9412,3.9412,3.9412,3.9412,3.9412,3.9412,3.9412,3.9442,3.9631,3.9695,3.9608,3.9454,3.9412,3.9412,3.9412,3.9412,3.9412,3.9412,3.9412,3.9412,3.9412,3.9412,3.9412,3.9412,3.9412,3.9472,3.9412,3.9442,3.9472,3.9412,3.9412,3.9412,3.9302,3.9302,3.9293,3.9233,3.9272,3.9242,3.9272,3.9182,3.9233,3.9272,3.9203,3.9233,3.9302,3.9152,3.8015,3.7426,3.7417,3.7396,3.7417,3.7486,3.7306,3.7306,3.7357,3.7327,3.7268,3.7157,3.7118,3.6719,3.5923,3.57,3.4527,3.2275,3.2097,3.132,3.0512,3.1901,3.2636,3.2865,3.4464,3.5429,3.5421,3.54,3.4823,3.3821,3.3544,3.3612,3.3582,3.3552,3.3552,3.3552,3.3612,3.3574,3.3544,3.3544,3.3612,3.3604,3.4121,3.4488,3.4578,3.5078,3.5677,3.6246,3.6314,3.6665,3.7255,3.7216,3.7516,3.829,3.8912,3.9126,3.8723,3.8652,3.877,3.9328,3.9364,3.937,3.9382,3.9412,3.9412,3.9412,3.9412,3.9412,3.9412,3.9412,3.9421,3.9451,3.9451,3.9493,3.961,3.952,3.9805,4.0201,4.0301,4.0149,3.9588,3.9727,3.9631,3.9679,3.9846,3.9571,3.9442,3.9412,3.9472,3.9511,3.966,3.969,3.9472,3.9472,3.9601,3.966,3.972,3.969,3.99,3.9571,3.9631,3.9412,3.9412,3.9412,3.9412,3.9412,3.9412,3.9412,3.9412,3.9412,3.9412,3.9412,3.9412,3.9412,3.9352,3.8913,3.8673,3.8635,3.8234,3.8272,3.8524,3.7806,3.7635,3.7973,3.7614,3.7387,3.7387,3.7379,3.6874,3.5816,3.4612,3.348,3.2606,3.1893,3.131,3.1257,3.2781,3.3753,3.3946,3.5688,3.6716,3.6678,3.6708,3.6297,3.5476,3.4989,3.4793,3.4779,3.4763,3.4771,3.4763,3.4771,3.4771,3.4771,3.4763,3.4771,3.4831,3.5416,3.5775,3.5865,3.6357,3.6798,3.7037,3.7067,3.7375,3.7832,3.7704,3.7853,3.8802,3.9221,3.9251,3.9122,3.9032,3.9116,3.9325,3.9412,3.9412,3.9412,3.9412,3.9412,3.9412,3.9412,3.9412,3.9451,3.9412,3.9571,3.995,4.004,4.02,4.0574,4.0664,4.0725,4.0954,4.1032,4.0948,4.0769,4.0694,4.0704,4.0708,4.0718,4.0724,4.0636,4.0528,4.0588,4.0516,4.0487,4.0445,4.0415,4.0436,4.0427,4.0489,4.0489,4.0397,4.0696,4.0425,4.0484,3.9412,3.9412,3.9412,3.9412,3.9412,3.9412,3.9412,3.9412,3.9412,3.9412,3.9412,3.9412,3.9412,3.9412,3.9412,3.9412,3.9352,3.8922,3.899,3.9302,3.8473,3.8293,3.8563,3.8263,3.8045,3.7984,3.7674,3.6856,3.5508,3.4095,3.3174,3.2577,3.1945,3.1562,3.1777,3.3397,3.4389,3.4752,3.6397,3.7387,3.7387,3.7387,3.7216,3.6814,3.6327,3.59,3.5549,3.5489,3.5489,3.5489,3.5489,3.5609,3.5789,3.6028,3.6109,3.6178,3.6537,3.6784,3.6814,3.7195,3.7486,3.7695,3.7734,3.8003,3.861,3.8302,3.8554,3.9173,3.9412,3.9412,3.9412,3.9382,3.9412,3.9412,3.9412,3.9412,3.9412,3.9412,3.9412,3.943,3.9631,3.9721,3.9741,3.9943,4.025,4.0679,4.0729,4.0968,4.1283,4.1426,4.1521,4.166,4.1724,4.1834,4.191,4.1986,4.1468,4.1391,4.13,4.144,4.1554,4.1515,4.1515,4.1454,4.1452,4.1411,4.1421,4.1432,4.1454,4.1475,4.1255,4.1014,4.1192,4.1319,4.1271,3.9412,3.9412,3.9412,3.9412,3.9412,3.9412,3.9412,3.9412,3.9412,3.9412,3.9412,3.9412,3.9412,3.9412,3.9412,3.9412,3.9391,3.9331,3.9331,3.9352,3.9293,3.9263,3.9302,3.9233,3.9092,3.8966,3.8151,3.6617,3.4829,3.4435,3.3654,3.2489,3.2288,3.2014,3.1492,3.3507,3.4527,3.5004,3.6592,3.752,3.7434,3.7584,3.7545,3.7426,3.7375,3.6798,3.5669,3.5609,3.5661,3.5639,3.5639,3.5857,3.6477,3.6956,3.7298,3.7246,3.7366,3.7404,3.7426,3.7486,3.7913,3.8272,3.8392,3.8661,3.9131,3.9251,3.9272,3.9361,3.9412,3.9412,3.9412,3.9412,3.9412,3.9412,3.9412,3.9412,3.9412,3.9412,3.9412,3.9577,4.0007,4.0371,4.0519,4.0787,4.1174,4.1322,4.1392,4.1483,4.1675,4.1749,4.1821,4.2212,4.2406,4.2495,4.2892,4.32,4.2464,4.188,4.1774,4.1804,4.1898,4.1935,4.1994,4.1984,4.2013,4.1982,4.202,4.2031,4.1905,4.1876,4.1685,4.1733,4.1871,4.198,4.179,3.9412,3.9412,3.9412,3.9412,3.9412,3.9412,3.9412,3.9412,3.9412,3.9412,3.9412,3.9412,3.9412,3.9412,3.9412,3.9412,3.9412,3.9412,3.9412,3.9412,3.9412,3.9412,3.9412,3.9373,3.9007,3.8088,3.6476,3.5386,3.4671,3.3974,3.3263,3.2906,3.2803,3.2738,3.2653,3.4543,3.5631,3.5883,3.77,3.8754,3.8763,3.8763,3.8563,3.8153,3.8071,3.7674,3.6887,3.6798,3.6827,3.6768,3.6827,3.6917,3.7127,3.7276,3.7387,3.7456,3.7853,3.8093,3.8144,3.8503,3.8802,3.9041,3.9071,3.9161,3.9352,3.9412,3.9412,3.9412,3.9412,3.9412,3.9412,3.9412,3.9442,3.9412,3.9412,3.9442,3.9562,3.9815,4.0063,4.0164,4.0671,4.1067,4.1102,4.136,4.1647,4.2026,4.2098,4.2178,4.2563,4.2571,4.2721,4.3,4.3051,4.312,4.3489,4.3708,4.3319,4.2792,4.2585,4.2327,4.2366,4.2403,4.2463,4.2503,4.2522,4.2551,4.257,4.2551,4.2463,4.2563,4.2642,4.2691,4.2691,4.268,4.2559,3.9412,3.9412,3.9412,3.9412,3.9412,3.9412,3.9412,3.9412,3.9412,3.9412,3.9412,3.9412,3.9412,3.9412,3.9412,3.9412,3.9412,3.9412,3.9412,3.9412,3.9412,3.9412,3.931,3.8943,3.8247,3.7089,3.5517,3.4491,3.4079,3.345,3.3101,3.3101,3.3126,3.3101,3.3315,3.5105,3.6184,3.6516,3.8264,3.9412,3.9382,3.9412,3.9191,3.8841,3.8781,3.8571,3.8165,3.8135,3.7896,3.7575,3.7605,3.7772,3.7789,3.8003,3.8135,3.8234,3.8512,3.8781,3.8811,3.9122,3.9412,3.9412,3.9412,3.9382,3.9412,3.9412,3.9412,3.9412,3.9412,3.9493,3.9714,3.978,3.9879,4.0157,3.993,3.9909,4.01,4.0481,4.0631,4.0731,4.1208,4.161,4.1662,4.1999,4.2209,4.2673,4.2743,4.2783,4.319,4.326,4.3399,4.3539,4.3657,4.3836,4.4037,4.4117,4.4088,4.3808,4.3519,4.318,4.3001,4.2991,4.3011,4.2981,4.3,4.2971,4.298,4.306,4.3041,4.329,4.3449,4.3359,4.3299,4.3558,4.3597,3.9412,3.9412,3.9412,3.9412,3.9412,3.9412,3.9412,3.9412,3.9412,3.9412,3.9412,3.9412,3.9412,3.9412,3.9412,3.9412,3.9412,3.9412,3.9412,3.9412,3.9373,3.9328,3.9044,3.8163,3.7146,3.6083,3.503,3.4089,3.3326,3.3165,3.3126,3.3126,3.3126,3.3126,3.3492,3.5177,3.6184,3.6487,3.8312,3.9364,3.9412,3.9412,3.9391,3.9331,3.9331,3.9272,3.9203,3.9173,3.8733,3.7806,3.8174,3.8457,3.8552,3.9068,3.9263,3.9221,3.9361,3.9331,3.9352,3.9352,3.9412,3.9412,3.9412,3.9412,3.9412,3.9517,3.9577,3.9592,3.9621,3.9863,4.0345,4.0461,4.0726,4.1214,4.0825,4.0726,4.1254,4.1364,4.1294,4.1134,4.1722,4.2369,4.2192,4.2822,4.322,4.3389,4.3449,4.3608,4.3619,4.3838,4.3858,4.4026,4.4321,4.4441,4.4653,4.4666,4.4667,4.4547,4.4296,4.4077,4.3798,4.3768,4.3778,4.3718,4.3559,4.3509,4.3519,4.3698,4.3758,4.3868,4.3927,4.3838,4.4018,4.4278,4.4459,3.9412,3.9412,3.9412,3.9412,3.9412,3.9412,3.9412,3.9421,3.9412,3.9511,3.9412,3.9412,3.9472,3.9412,3.9442,3.9412,3.9472,3.9451,3.9412,3.9412,3.9412,3.8907,3.8144,3.7127,3.612,3.5122,3.4137,3.34,3.3122,3.3126,3.3126,3.3126,3.3126,3.3126,3.3407,3.5136,3.6105,3.6497,3.8303,3.9364,3.9412,3.9412,3.9412,3.9412,3.9412,3.9412,3.9412,3.9412,3.9302,3.8943,3.9002,3.9131,3.9119,3.9311,3.9412,3.9412,3.9412,3.9412,3.9412,3.9412,3.9412,3.9412,3.9472,3.9412,3.9421,3.9872,4.0076,4.0238,4.056,4.0909,4.1085,4.115,4.1474,4.1922,4.1643,4.1334,4.1553,4.1832,4.1992,4.1833,4.2529,4.2969,4.3179,4.3548,4.4044,4.4115,4.4346,4.4606,4.4497,4.4539,4.465,4.4842,4.5053,4.5104,4.5177,4.5213,4.5196,4.5135,4.5055,4.5014,4.4825,4.4755,4.4805,4.4815,4.4496,4.4346,4.4498,4.4669,4.4639,4.4505,4.4596,4.4645,4.4815,4.5037,4.5087,3.8751,3.8758,3.921,3.9571,3.981,3.9819,3.9969,4.0217,4.0238,4.0247,4.0238,4.0247,4.0247,4.0238,4.0247,4.0238,4.0247,4.0247,4.0247,4.0146,3.9745,3.8885,3.7701,3.6377,3.5248,3.4677,3.3609,3.3176,3.3126,3.3126,3.3126,3.3126,3.3126,3.3126,3.3197,3.465,3.5824,3.6399,3.788,3.8898,3.9346,3.9412,3.9412,3.9412,3.9412,3.9412,3.9412,3.9412,3.9391,3.9382,3.9382,3.9412,3.9412,3.9412,3.9412,3.9412,3.9412,3.9412,3.9412,3.9412,3.9541,3.9759,3.9819,3.9969,4.0245,4.0629,4.084,4.0866,4.1228,4.1509,4.1808,4.2015,4.2491,4.305,4.287,4.2611,4.2631,4.301,4.298,4.297,4.3427,4.4137,4.4118,4.4506,4.466,4.4779,4.4952,4.5124,4.5186,4.5312,4.5464,4.5633,4.5788,4.5858,4.6092,4.6211,4.6337,4.6226,4.6202,4.6102,4.5748,4.5629,4.5373,4.5334,4.5254,4.5244,4.5319,4.532,4.5254,4.5199,4.5351,4.5463,4.5603,4.5874,4.5915,3.7996,3.8262,3.9206,3.9969,4.0457,4.0526,4.0765,4.1283,4.1283,4.1293,4.1283,4.1373,4.1224,4.1413,4.1164,4.1343,4.1304,4.0918,4.0796,4.0305,3.9514,3.8392,3.7383,3.5978,3.5088,3.4611,3.3649,3.3291,3.3241,3.319,3.3126,3.3126,3.3126,3.3126,3.3336,3.4267,3.5207,3.6221,3.7339,3.849,3.921,3.9412,3.9481,3.9631,3.9621,3.9592,3.9592,3.9562,3.9601,3.9631,3.949,3.9412,3.9412,3.9412,3.9481,3.9571,3.9601,3.9601,3.966,3.9819,3.9909,4.0406,4.0526,4.0735,4.1132,4.1363,4.15,4.1493,4.157,4.2076,4.2642,4.315,4.3708,4.4167,4.4307,4.4396,4.4476,4.4446,4.4177,4.3698,4.4679,4.5152,4.5364,4.5413,4.5409,4.5439,4.5685,4.5942,4.5992,4.6018,4.6201,4.6353,4.6501,4.6653,4.694,4.7279,4.7417,4.7471,4.7513,4.7336,4.6686,4.6369,4.587,4.5693,4.5982,4.6012,4.5864,4.5831,4.5924,4.5922,4.6066,4.6149,4.6251,4.6634,4.6805,3.9371,4.0653,4.089,4.1064,4.1154,4.1184,4.1283,4.1433,4.1443,4.1523,4.1433,4.1433,4.1444,4.1425,4.1428,4.1413,4.1198,4.0471,3.9537,3.8498,3.7529,3.6972,3.6613,3.6023,3.5494,3.4762,3.4048,3.3757,3.3671,3.338,3.3126,3.3165,3.3266,3.3126,3.3337,3.4213,3.5203,3.6192,3.729,3.8373,3.932,3.9541,3.9759,4.0127,4.0178,4.0178,4.0178,4.0178,4.0457,4.0576,4.0058,3.9571,3.9571,3.9502,3.972,4.0098,4.0187,4.0388,4.0816,4.0864,4.1005,4.1124,4.1194,4.1244,4.1392,4.1972,4.2162,4.2279,4.2602,4.318,4.3738,4.4456,4.4825,4.5005,4.5095,4.5294,4.5653,4.5394,4.5155,4.5335,4.5327,4.5447,4.5845,4.6015,4.6102,4.6148,4.6437,4.6798,4.6871,4.6862,4.7053,4.7303,4.7355,4.7488,4.7644,4.797,4.8172,4.8301,4.8404,4.8421,4.7778,4.7401,4.6997,4.6871,4.6961,4.6882,4.6873,4.6879,4.7054,4.6932,4.687,4.7046,4.726,4.7584,4.7744,3.8643,3.9116,4.01,4.0724,4.1077,4.1631,4.2022,4.2252,4.2282,4.2272,4.2312,4.2282,4.201,4.1509,4.1449,4.127,4.0677,4.0048,3.913,3.8185,3.7398,3.6914,3.6364,3.6253,3.5777,3.4812,3.4438,3.4288,3.4187,3.3986,3.3908,3.3847,3.3811,3.3911,3.3847,3.4425,3.5558,3.6859,3.7598,3.8639,4.0048,4.0337,4.0427,4.0795,4.0855,4.0855,4.0846,4.0846,4.1064,4.1124,4.0726,4.0337,4.0337,4.0337,4.0516,4.0765,4.0885,4.0975,4.1313,4.1443,4.1532,4.1862,4.1852,4.2262,4.2591,4.3118,4.3438,4.3738,4.4077,4.4426,4.4732,4.4994,4.5384,4.5713,4.5773,4.6072,4.6491,4.6191,4.5982,4.6411,4.6411,4.6448,4.6618,4.6813,4.7061,4.7224,4.7355,4.772,4.8211,4.8222,4.8233,4.8361,4.8311,4.8338,4.8412,4.8603,4.8835,4.8932,4.8954,4.898,4.8714,4.8477,4.8278,4.8139,4.7989,4.8257,4.8238,4.8243,4.8144,4.8194,4.8182,4.8222,4.8281,4.8456,4.8595,3.8019,3.7514,3.939,4.0501,4.1135,4.212,4.2791,4.321,4.329,4.2991,4.3021,4.306,4.211,4.1457,4.1251,4.0654,3.9862,3.9519,3.8745,3.7696,3.7526,3.7025,3.6508,3.6294,3.5981,3.5002,3.4853,3.4828,3.4803,3.4728,3.4477,3.4628,3.4653,3.4527,3.4639,3.4791,3.5728,3.7551,3.7934,3.9066,4.0843,4.1254,4.1283,4.1313,4.1523,4.1523,4.1553,4.1543,4.1613,4.1703,4.1703,4.1703,4.1643,4.1433,4.1502,4.1493,4.1553,4.1703,4.1903,4.1992,4.2271,4.268,4.285,4.3349,4.4137,4.4286,4.4456,4.4906,4.5226,4.5373,4.5445,4.5718,4.6042,4.6461,4.6629,4.6939,4.7328,4.7089,4.7189,4.7249,4.7336,4.7398,4.7575,4.7794,4.8078,4.8283,4.8398,4.861,4.9093,4.931,4.9115,4.8977,4.885,4.9056,4.9153,4.9254,4.9498,4.9714,4.97,4.9681,4.9696,4.969,4.9505,4.9097,4.9041,4.9157,4.9119,4.8902,4.8951,4.9275,4.9178,4.8854,4.9003,4.934,4.9404,4.1033,4.2164,4.2534,4.2763,4.2832,4.3071,4.313,4.33,4.321,4.272,4.1947,4.1864,4.1242,4.0404,4.0167,3.9514,3.8637,3.8356,3.7849,3.6966,3.6838,3.657,3.6499,3.6405,3.6217,3.6055,3.5668,3.5394,3.5269,3.4942,3.494,3.4778,3.4803,3.4803,3.4828,3.4852,3.5923,3.7768,3.8241,3.9404,4.0919,4.1565,4.1613,4.1643,4.2012,4.2191,4.2221,4.2241,4.2441,4.293,4.298,4.298,4.2841,4.2112,4.1942,4.2131,4.2311,4.2511,4.2841,4.3439,4.3768,4.4077,4.4327,4.4686,4.4974,4.4902,4.5033,4.5407,4.5868,4.6126,4.6145,4.6572,4.7238,4.7698,4.7938,4.8128,4.8618,4.8626,4.8386,4.8289,4.8274,4.8243,4.8397,4.8565,4.8779,4.8939,4.9074,4.9224,4.9573,4.9625,4.9453,4.9316,4.9232,4.9559,4.9917,5.0014,5.0179,5.0541,5.0612,5.0612,5.0695,5.0855,5.0679,5.0074,4.9636,4.9539,4.9479,4.9498,4.9535,4.9724,4.9561,4.9348,4.964,4.9932,5.0048,4.0978,4.0749,4.1906,4.2426,4.2518,4.3061,4.2941,4.2457,4.2406,4.1792,4.099,4.0661,4.0053,3.9216,3.8961,3.8311,3.7494,3.7219,3.6896,3.6428,3.6405,3.6405,3.6443,3.6443,3.6405,3.6306,3.6081,3.5981,3.5956,3.573,3.5541,3.5591,3.5591,3.5591,3.5591,3.5662,3.6506,3.7875,3.8739,3.9812,4.1478,4.1991,4.2373,4.2491,4.2681,4.286,4.288,4.2851,4.318,4.3678,4.3818,4.3997,4.4007,4.3778,4.319,4.301,4.3199,4.3459,4.3848,4.4426,4.4766,4.4825,4.5185,4.5484,4.5642,4.5641,4.5692,4.6246,4.6517,4.6963,4.7317,4.7638,4.8098,4.8637,4.8816,4.8977,4.9235,4.9317,4.928,4.9187,4.9056,4.9002,4.9021,4.9213,4.9434,4.9594,4.9731,4.9908,5.0103,5.0103,5.0014,5.0078,5.009,5.0332,5.0699,5.0823,5.0928,5.1271,5.1445,5.1457,5.1385,5.1433,5.1146,5.0661,5.0331,5.0283,5.0301,5.0463,5.0343,5.0223,5.0283,5.0313,5.0391,5.0499,5.0667,4.0504,3.8979,4.1046,4.1918,4.206,4.2619,4.2457,4.167,4.1347,4.0629,3.9623,3.947,3.8883,3.8005,3.7666,3.7254,3.643,3.6516,3.6642,3.668,3.6795,3.677,3.6745,3.672,3.6833,3.6909,3.6822,3.6619,3.6393,3.6431,3.6482,3.6343,3.6418,3.6569,3.6519,3.6292,3.7192,3.8254,3.9321,4.0528,4.2038,4.3096,4.3698,4.3688,4.3698,4.3728,4.3788,4.3798,4.4007,4.4377,4.4556,4.4736,4.5155,4.5274,4.4796,4.4007,4.4247,4.4426,4.4666,4.5114,4.5503,4.5503,4.5663,4.6022,4.636,4.66,4.6873,4.76,4.7766,4.7934,4.8301,4.8495,4.8816,4.9265,4.9475,4.9565,4.977,4.9927,5.0124,4.9991,4.9816,4.9838,4.9981,4.9995,5.0248,5.0296,5.0423,5.0495,5.069,5.084,5.0828,5.0996,5.1087,5.1224,5.1487,5.1685,5.1786,5.1989,5.2115,5.2103,5.1941,5.181,5.1594,5.154,5.1618,5.1618,5.1546,5.1247,5.0918,5.081,5.1098,5.1247,5.1217,5.1319,5.1487,4.1452,4.1256,4.2538,4.3081,4.289,4.2193,4.1732,4.1418,4.0513,3.9437,3.8459,3.8319,3.7793,3.7045,3.6799,3.662,3.663,3.6897,3.711,3.716,3.7475,3.765,3.7739,3.7814,3.7613,3.76,3.7663,3.7235,3.6845,3.6959,3.6859,3.6695,3.6934,3.711,3.7085,3.6808,3.7257,3.8607,3.9526,4.1227,4.3525,4.4573,4.4865,4.4945,4.4945,4.4885,4.4815,4.4796,4.5015,4.5125,4.5185,4.5214,4.5274,4.5274,4.5274,4.5125,4.5125,4.5185,4.5304,4.5802,4.6271,4.639,4.667,4.7029,4.7258,4.7706,4.8312,4.9463,4.92,4.9011,4.9108,4.9176,4.9523,4.9841,5.011,5.041,5.0656,5.0745,5.0895,5.1026,5.0923,5.0971,5.1061,5.1056,5.1039,5.1081,5.1122,5.1194,5.1337,5.1546,5.1619,5.1762,5.1899,5.2048,5.2127,5.2336,5.2479,5.2641,5.2641,5.2659,5.254,5.245,5.2725,5.2707,5.2737,5.2456,5.1977,5.1606,5.1337,5.1439,5.1713,5.1911,5.2007,5.2127,5.2247,4.1011,4.1691,4.284,4.2921,4.2295,4.1774,4.1007,4.0107,3.9548,3.8851,3.8156,3.8041,3.7732,3.7309,3.7299,3.7311,3.7361,3.755,3.7638,3.7663,3.7914,3.804,3.7965,3.799,3.799,3.809,3.799,3.7814,3.7475,3.75,3.75,3.7374,3.75,3.7638,3.765,3.7424,3.7728,3.8678,4.0064,4.2243,4.4235,4.5125,4.5304,4.5304,4.5334,4.5334,4.5364,4.5274,4.5544,4.5723,4.5773,4.5963,4.6292,4.6441,4.6431,4.6431,4.6431,4.6251,4.6042,4.654,4.6969,4.7358,4.7698,4.7878,4.8095,4.8536,4.9108,4.9805,4.9502,4.9491,4.9761,4.9811,5.02,5.0548,5.081,5.099,5.1319,5.1636,5.1756,5.1887,5.2019,5.2019,5.1905,5.1619,5.1583,5.1751,5.1846,5.1983,5.2217,5.2528,5.2533,5.2514,5.2629,5.2738,5.2797,5.2897,5.2968,5.3077,5.3048,5.3066,5.3078,5.312,5.3396,5.3348,5.3097,5.2737,5.2336,5.2276,5.2234,5.2294,5.236,5.2504,5.269,5.2797,5.2917,4.0218,4.1453,4.2455,4.2281,4.1376,4.105,4.0283,3.9221,3.8817,3.8422,3.8086,3.8002,3.8002,3.799,3.7939,3.7864,3.799,3.8153,3.8228,3.8241,3.8366,3.8492,3.8567,3.8492,3.8492,3.8417,3.8592,3.8492,3.8492,3.8417,3.8329,3.804,3.8115,3.8191,3.8191,3.8076,3.8232,3.9449,4.1021,4.3111,4.5114,4.5783,4.5843,4.5843,4.5823,4.5793,4.5783,4.5843,4.6191,4.6401,4.6461,4.6651,4.704,4.7309,4.7429,4.7519,4.7619,4.7638,4.7369,4.7508,4.7919,4.8289,4.8588,4.8667,4.9007,4.9348,4.9767,5.0292,5.0112,5.0161,5.036,5.0566,5.1006,5.1366,5.1635,5.1665,5.1773,5.2169,5.2438,5.251,5.263,5.2851,5.2636,5.2145,5.2109,5.2371,5.2557,5.2761,5.2988,5.3287,5.3159,5.3037,5.331,5.3416,5.35,5.3514,5.3545,5.3594,5.357,5.3664,5.3838,5.388,5.4054,5.3845,5.3575,5.3695,5.3713,5.3446,5.3182,5.2954,5.2809,5.3133,5.333,5.348,5.3677,3.9224,4.0836,4.1447,4.1341,4.0686,3.9554,3.937,3.9478,3.8539,3.8162,3.819,3.8065,3.8165,3.8115,3.8216,3.8191,3.8103,3.8605,3.8793,3.8994,3.9283,3.9383,3.9346,3.9346,3.9421,3.9446,3.932,3.9371,3.9546,3.9396,3.8894,3.8216,3.8668,3.8818,3.8718,3.8517,3.9504,4.0751,4.2212,4.389,4.5798,4.677,4.71,4.716,4.716,4.716,4.7149,4.716,4.7219,4.7358,4.7279,4.7309,4.7668,4.8087,4.8297,4.8308,4.8618,4.8727,4.8757,4.8427,4.8577,4.8977,4.9307,4.9557,4.9928,5.0052,5.0449,5.096,5.0934,5.1058,5.1332,5.1618,5.1959,5.2114,5.233,5.2498,5.2636,5.2911,5.3109,5.3121,5.33,5.363,5.3683,5.325,5.2932,5.3163,5.3405,5.3581,5.3523,5.3694,5.3543,5.3506,5.3901,5.4098,5.4199,5.4285,5.4401,5.4474,5.4476,5.4628,5.485,5.4862,5.4593,5.4653,5.4503,5.4803,5.4862,5.4291,5.3745,5.3366,5.3317,5.3773,5.4109,5.4319,5.4546,3.8986,3.9642,4.0244,4.0358,4.0113,3.9673,3.9363,3.9186,3.8742,3.8756,3.9019,3.9057,3.9057,3.9032,3.9044,3.9044,3.9069,3.9245,3.9371,3.9434,3.9597,3.9697,3.971,3.9722,3.9685,3.9747,3.9722,3.971,3.9685,4.0049,4.001,3.9659,3.9484,3.9383,3.9258,3.9335,4.0592,4.217,4.3284,4.4578,4.7015,4.7739,4.8098,4.8528,4.8517,4.8517,4.8528,4.8528,4.8517,4.8427,4.8218,4.8248,4.8427,4.8925,4.9045,4.8966,4.9277,4.9535,4.9733,4.9355,4.9206,4.9781,5.02,5.0552,5.0827,5.0827,5.1189,5.1563,5.1834,5.1906,5.2426,5.2648,5.2791,5.2894,5.3056,5.3259,5.3445,5.369,5.3797,5.3797,5.4186,5.4576,5.4556,5.4446,5.4142,5.3965,5.4204,5.4364,5.4239,5.4194,5.4121,5.4092,5.4446,5.4735,5.4833,5.5023,5.5251,5.5299,5.5359,5.5431,5.5521,5.5192,5.5042,5.5192,5.5311,5.5341,5.5174,5.4763,5.4421,5.4192,5.4286,5.4585,5.4892,5.5157,5.5311,3.8749,3.8943,3.9346,3.954,3.954,3.954,3.9375,3.9184,3.9145,3.9308,3.971,3.971,3.971,3.971,3.9685,3.966,3.9597,3.966,3.9685,3.9672,3.9672,3.9798,3.9898,3.9998,4.0124,4.0099,4.0161,4.0236,4.0312,4.0588,4.0638,4.0563,4.04,4.0275,4.0224,4.0331,4.1463,4.3412,4.4287,4.554,4.816,4.8618,4.8708,4.9168,4.9168,4.9168,4.9138,4.9108,4.9138,4.9067,4.8977,4.8977,4.9295,4.9643,4.9781,4.9744,4.9774,5.0103,5.023,5.023,5.0062,5.0518,5.1128,5.1397,5.154,5.1634,5.2163,5.2395,5.2503,5.2695,5.3253,5.3307,5.3463,5.3549,5.3919,5.4181,5.4199,5.4354,5.4443,5.4491,5.4862,5.5055,5.5165,5.5097,5.4999,5.4707,5.466,5.482,5.4842,5.4834,5.4877,5.4877,5.4987,5.5226,5.5453,5.5675,5.5914,5.6166,5.6179,5.6034,5.5957,5.57,5.573,5.603,5.606,5.582,5.5769,5.5747,5.5482,5.5144,5.5286,5.5415,5.5859,5.6081,5.6021,3.839,3.8881,3.8932,3.8969,3.9045,3.8932,3.9221,3.9584,3.9609,3.966,3.971,3.971,3.971,3.971,3.971,3.9747,3.9823,3.981,3.9861,3.9923,4.0049,4.0149,4.0337,4.0538,4.0625,4.1113,4.1076,4.0976,4.1113,4.124,4.1291,4.1366,4.1291,4.1177,4.1252,4.1239,4.2632,4.4797,4.4961,4.6662,4.8384,4.91,4.9355,4.9576,4.9636,4.9666,4.9696,4.9666,4.9696,4.9636,4.9606,4.9576,4.9636,5.0051,5.0219,5.0219,5.0799,5.1098,5.1217,5.1187,5.1236,5.1367,5.1947,5.2157,5.2324,5.264,5.3017,5.3116,5.3191,5.3246,5.3486,5.378,5.4052,5.4275,5.4643,5.4905,5.4922,5.5042,5.5132,5.5414,5.5324,5.5277,5.5485,5.5626,5.5686,5.5502,5.5277,5.5281,5.5431,5.5551,5.57,5.5671,5.57,5.5795,5.6051,5.6333,5.6606,5.6874,5.6861,5.6636,5.6615,5.6555,5.6688,5.6898,5.6748,5.6449,5.671,5.6985,5.6534,5.6132,5.6064,5.6247,5.6691,5.6879,5.6653,3.8718,3.8931,3.9283,3.9434,3.9434,3.9434,3.9534,3.9672,3.971,3.971,3.971,3.971,3.971,3.971,3.9798,3.9923,4.0211,4.0249,4.0325,4.07,4.0688,4.0851,4.1001,4.1051,4.1163,4.1239,4.1314,4.1389,4.125,4.1667,4.187,4.1945,4.2082,4.1968,4.1503,4.141,4.229,4.3767,4.4802,4.6336,4.84,4.94,5.0058,5.0416,5.0393,5.0463,5.0433,5.0403,5.0403,5.0403,5.0391,5.0421,5.0481,5.0847,5.0877,5.0996,5.1487,5.2097,5.2378,5.2528,5.2516,5.2606,5.2677,5.2887,5.2947,5.302,5.3368,5.374,5.3853,5.4024,5.4535,5.47,5.4865,5.4865,5.5132,5.5431,5.5581,5.5773,5.5953,5.6368,5.647,5.6359,5.6423,5.646,5.6498,5.6603,5.6432,5.6329,5.6419,5.6509,5.6628,5.6509,5.6466,5.6513,5.6649,5.7081,5.7184,5.7311,5.7238,5.6978,5.7034,5.7334,5.7274,5.7317,5.7184,5.7094,5.7313,5.7476,5.7374,5.7163,5.7086,5.6976,5.7191,5.7218,5.6978,3.9195,3.9208,3.9559,3.971,3.971,3.971,3.971,3.971,3.971,3.971,3.9747,3.9873,3.9998,4.0049,4.0199,4.0362,4.0775,4.0789,4.0851,4.1289,4.1264,4.1378,4.1517,4.1642,4.1806,4.1793,4.1893,4.1943,4.2019,4.2311,4.245,4.2562,4.2816,4.2922,4.2532,4.2594,4.2985,4.4527,4.5964,4.687,4.8567,4.9663,5.0471,5.0567,5.0757,5.1158,5.1187,5.1217,5.1247,5.1247,5.1247,5.1337,5.1445,5.1546,5.1678,5.1977,5.2276,5.2875,5.3336,5.3516,5.3563,5.3862,5.3695,5.3575,5.3635,5.3864,5.4146,5.4431,5.4537,5.4908,5.5355,5.5495,5.562,5.562,5.5854,5.6184,5.6329,5.6509,5.6611,5.7056,5.7212,5.7191,5.7247,5.7372,5.7382,5.7506,5.7633,5.7483,5.7287,5.7283,5.73,5.7197,5.7193,5.7223,5.7466,5.7919,5.7949,5.7812,5.7693,5.7603,5.7842,5.8171,5.7932,5.7782,5.7932,5.8022,5.7902,5.7892,5.7988,5.8068,5.8068,5.7942,5.7812,5.7693,5.7603,3.971,3.971,3.971,3.971,3.971,3.971,3.971,3.971,3.9747,3.9747,3.9785,4.0312,4.0499,4.0638,4.1026,4.1252,4.1327,4.1327,4.1453,4.149,4.164,4.1882,4.211,4.2249,4.2372,4.2724,4.2824,4.2624,4.2914,4.2838,4.2864,4.3014,4.3101,4.3552,4.3752,4.3779,4.4454,4.6001,4.6469,4.744,4.8801,5.03,5.0461,5.053,5.0909,5.1488,5.1606,5.1576,5.1517,5.1457,5.1397,5.1726,5.1995,5.2229,5.2648,5.3007,5.3216,5.3623,5.4102,5.4234,5.4443,5.467,5.4581,5.4359,5.4341,5.4623,5.4875,5.5122,5.5269,5.5696,5.6072,5.6243,5.6413,5.6571,5.6803,5.6965,5.7094,5.7184,5.7227,5.7386,5.7464,5.7538,5.7669,5.7798,5.8058,5.8206,5.8248,5.8141,5.7915,5.7695,5.7712,5.7719,5.7745,5.7948,5.8251,5.853,5.859,5.8411,5.859,5.859,5.886,5.883,5.862,5.853,5.886,5.889,5.856,5.862,5.8846,5.8879,5.8689,5.8643,5.8454,5.859,5.859,3.971,3.971,3.971,3.971,3.971,3.9697,3.971,3.9747,4.0074,4.0275,4.0287,4.0826,4.1051,4.1102,4.1239,4.1567,4.182,4.2009,4.2247,4.2322,4.232,4.2573,4.2688,4.2738,4.2875,4.2925,4.3,4.3,4.2975,4.3,4.3302,4.3528,4.3564,4.4125,4.4413,4.4359,4.5848,4.6879,4.6918,4.7569,4.8902,5.0355,5.0434,5.0822,5.1731,5.2306,5.2438,5.2468,5.2468,5.2528,5.2558,5.2797,5.2815,5.2947,5.3198,5.3803,5.3982,5.4192,5.476,5.4922,5.5042,5.5341,5.5401,5.5311,5.5192,5.5132,5.5461,5.5709,5.6158,5.6659,5.679,5.6877,5.707,5.7271,5.7474,5.7576,5.7693,5.7829,5.7902,5.8108,5.8188,5.8175,5.8291,5.8404,5.8651,5.8807,5.8816,5.8667,5.8544,5.8311,5.8204,5.8211,5.8288,5.8491,5.8657,5.8919,5.9009,5.9039,5.9099,5.9099,5.9039,5.9009,5.9069,5.9099,5.9099,5.9099,5.9039,5.9099,5.9099,5.9099,5.8952,5.9056,5.9099,5.9099,5.9099,3.971,3.971,3.971,3.9823,3.9985,4.0023,4.0124,4.0337,4.0462,4.06,4.0876,4.143,4.1642,4.1692,4.1918,4.2222,4.25,4.2512,4.2663,4.2799,4.3,4.295,4.2975,4.3,4.2975,4.3,4.3,4.3,4.3076,4.3288,4.3589,4.4077,4.4102,4.4665,4.5046,4.5132,4.6208,4.7173,4.7623,4.7623,4.8687,5.0201,5.078,5.1314,5.2479,5.3063,5.3258,5.3258,5.3228,5.3198,5.3198,5.3366,5.3545,5.3815,5.4054,5.4581,5.461,5.476,5.5132,5.5491,5.5551,5.576,5.6179,5.6269,5.588,5.5641,5.597,5.6325,5.7054,5.7573,5.7543,5.7521,5.7706,5.7892,5.8008,5.8112,5.8278,5.8444,5.8697,5.8949,5.9023,5.8993,5.9039,5.9099,5.9099,5.9039,5.9009,5.8979,5.8919,5.8827,5.875,5.8753,5.8843,5.8976,5.9099,5.9099,5.9099,5.9099,5.9099,5.9099,5.9099,5.9099,5.9099,5.9099,5.9099,5.9099,5.9099,5.9099,5.9099,5.9099,5.9099,5.9099,5.9099,5.9099,5.9099,3.971,3.971,3.971,3.9998,4.0462,4.0462,4.0775,4.1302,4.0914,4.0901,4.1441,4.2009,4.2235,4.2297,4.2573,4.2774,4.2889,4.2889,4.285,4.3,4.3,4.3,4.3,4.3,4.3076,4.3051,4.3126,4.3302,4.3352,4.3639,4.4127,4.4614,4.4679,4.5197,4.5959,4.5418,4.626,4.7603,4.7477,4.7259,4.8654,4.999,5.0937,5.1292,5.2293,5.3247,5.3407,5.3408,5.3348,5.3378,5.3498,5.3815,5.4264,5.4683,5.5012,5.5251,5.5281,5.5461,5.57,5.603,5.6209,5.6462,5.6821,5.7034,5.6765,5.6209,5.6419,5.7094,5.7828,5.8214,5.8221,5.8187,5.8304,5.846,5.859,5.865,5.874,5.8816,5.8919,5.9099,5.9099,5.9099,5.9099,5.9099,5.9099,5.9099,5.9099,5.9099,5.9099,5.9099,5.9099,5.9099,5.9099,5.9099,5.9099,5.9099,5.9099,5.9099,5.9099,5.9099,5.9099,5.9099,5.9099,5.9099,5.9099,5.9099,5.9099,5.9099,5.9099,5.9099,5.9099,5.9099,5.9099,5.9099,5.9099,3.971,3.971,3.971,4.0023,4.0487,4.0499,4.1103,4.1959,4.1858,4.1833,4.2085,4.2512,4.2788,4.2788,4.2889,4.3,4.3,4.3,4.3,4.3,4.3,4.3076,4.3025,4.3101,4.3251,4.3489,4.3678,4.3804,4.4141,4.4403,4.4694,4.5221,4.5296,4.5783,4.6352,4.5763,4.6465,4.7478,4.7098,4.7103,4.831,4.8895,4.9524,5.0788,5.2111,5.3528,5.4006,5.4585,5.467,5.4743,5.4725,5.4832,5.497,5.5162,5.5461,5.582,5.594,5.6119,5.6406,5.6688,5.6868,5.7107,5.7423,5.7679,5.759,5.6974,5.7034,5.7829,5.8367,5.8697,5.8876,5.8852,5.8841,5.8999,5.9099,5.9099,5.9099,5.9099,5.9099,5.9099,5.9099,5.9099,5.9099,5.9099,5.9099,5.9099,5.9099,5.9099,5.9099,5.9099,5.9099,5.9099,5.9099,5.9099,5.9099,5.9099,5.9099,5.9099,5.9099,5.9099,5.9099,5.9099,5.9099,5.9099,5.9099,5.9099,5.9099,5.9099,5.9099,5.9099,5.9099,5.9099,5.9099,5.9099,5.9099,3.971,3.9735,3.996,4.0362,4.0864,4.1128,4.1758,4.2462,4.2537,4.2537,4.2562,4.2864,4.3,4.3,4.3,4.3,4.3,4.3,4.3,4.3,4.3101,4.3215,4.324,4.3377,4.374,4.4027,4.4152,4.4403,4.4905,4.5056,4.5271,4.5748,4.5874,4.5974,4.6311,4.6311,4.6311,4.6361,4.6311,4.684,4.778,4.8222,4.9208,5.0671,5.2147,5.3429,5.4055,5.4705,5.5179,5.5341,5.5414,5.5581,5.573,5.6,5.6239,5.6479,5.6628,5.6748,5.7094,5.7363,5.7543,5.7752,5.8141,5.8487,5.8547,5.8052,5.8022,5.8697,5.8726,5.8996,5.9009,5.8999,5.8999,5.9085,5.9099,5.9099,5.9099,5.9099,5.9099,5.9099,5.9099,5.9099,5.9099,5.9099,5.9099,5.9099,5.9099,5.9099,5.9099,5.9099,5.9099,5.9099,5.9099,5.9099,5.9099,5.9099,5.9099,5.9099,5.9099,5.9099,5.9099,5.9099,5.9099,5.9099,5.9099,5.9099,5.9099,5.9099,5.9099,5.9099,5.9099,5.9099,5.9142,5.9202,5.9232,3.976,3.9873,4.0287,4.0864,4.1441,4.1959,4.2462,4.2914,4.2975,4.2975,4.2964,4.2989,4.3,4.3,4.3,4.3,4.3051,4.3201,4.3151,4.3201,4.3288,4.3603,4.3815,4.3926,4.4278,4.4629,4.4855,4.5156,4.5573,4.5623,4.5799,4.621,4.6311,4.6311,4.6311,4.6311,4.6311,4.6361,4.6386,4.6461,4.7017,4.7637,4.8952,5.0432,5.1801,5.2711,5.3461,5.4241,5.5079,5.5671,5.6042,5.6188,5.6355,5.6637,5.6941,5.715,5.7227,5.7347,5.7603,5.8008,5.8158,5.8397,5.8876,5.9069,5.9069,5.9069,5.9039,5.9039,5.9069,5.9099,5.9099,5.9099,5.9099,5.9099,5.9099,5.9099,5.9099,5.9099,5.9099,5.9099,5.9099,5.9099,5.9099,5.9099,5.9099,5.9099,5.9099,5.9099,5.9099,5.9099,5.9099,5.9099,5.9099,5.9099,5.9099,5.9099,5.9099,5.9099,5.9099,5.9099,5.9099,5.9099,5.9099,5.9099,5.9099,5.9129,5.9099,5.9099,5.9099,5.9232,5.9099,5.9172,5.9483,5.9512,5.9469,3.9948,4.0362,4.0462,4.1078,4.1945,4.2174,4.2526,4.295,4.3,4.3,4.3,4.3,4.3,4.3,4.3,4.3051,4.3176,4.3402,4.3589,4.3664,4.394,4.4242,4.4468,4.4604,4.483,4.5206,4.5608,4.5984,4.5999,4.6075,4.616,4.6286,4.6336,4.6336,4.6311,4.6361,4.6486,4.6587,4.6798,4.6948,4.6973,4.7551,4.815,4.9276,5.0301,5.2207,5.3747,5.4625,5.5624,5.6373,5.6795,5.689,5.7036,5.7202,5.7523,5.7822,5.7885,5.8112,5.8381,5.862,5.8726,5.8756,5.9099,5.9099,5.9099,5.9099,5.9069,5.9069,5.9099,5.9099,5.9099,5.9099,5.9099,5.9099,5.9099,5.9099,5.9099,5.9099,5.9099,5.9099,5.9099,5.9099,5.9099,5.9099,5.9099,5.9099,5.9099,5.9099,5.9099,5.9099,5.9099,5.9099,5.9099,5.9099,5.9099,5.9099,5.9099,5.9099,5.9099,5.9099,5.9099,5.9099,5.9099,5.9099,5.9129,5.9129,5.9129,5.9409,5.9382,5.9485,5.9232,5.9232,5.9632,5.9956,6.0016]},{"header":{"parameterUnit":"m.s-1","parameterCategory":1,"la1":31.0,"la2":29.5877,"lo1":-88.7671,"lo2":-86.6584,"dy":0.0162,"dx":0.0185,"nx":115,"ny":88,"refTime":"2026-05-03T00:00:00:Z","depth":0,"parameterNumber":3,"parameterNumberName":"V-component_of_WINDS"},"data":[0.0,0.0,0.0,0.0,0.0,0.0,0.0,0.0,0.0,0.0,0.0,0.0,0.0,0.0,0.0,0.0,0.0,0.0,0.0,0.0,0.0,0.0,0.0,0.0,0.0,0.0,0.0,0.0,0.0,0.0,0.0,0.0,0.0,0.0,0.0,0.0,0.0,0.0,0.0,0.0,0.0,0.0,0.0,0.0,0.0,0.0,0.0,0.0,0.0,0.0,0.0,0.0,0.0,0.0,0.0,0.0,0.0,0.0,0.0,0.0,0.0,0.0,0.0,0.0,0.0,0.0,0.0,0.0,0.0,0.0,0.0,0.0,0.0,0.0,0.0,0.0,0.0,0.0,0.0,0.0,0.0,0.0,0.0,0.0,0.0,0.0,0.0,0.0,0.0,0.0,0.0,0.0,0.0,0.0,0.0,0.0,0.0,0.0,0.0,0.0,0.0,0.0,0.0,0.0,0.0,0.0,0.0,0.0,0.0,0.0,0.0,0.0,0.0,0.0,0.0,0.0,0.0,0.0,0.0,0.0,0.0,0.0,0.0,0.0,0.0,0.0,0.0,0.0,0.0,0.0,0.0,0.0,0.0,0.0,0.0,0.0,0.0,0.0,0.0,0.0,0.0,0.0,0.0,0.0,0.0,0.0,0.0,0.0,0.0,0.0,0.0,0.0,0.0,0.0,0.0,0.0,0.0,0.0,0.0,0.0,0.0,0.0,0.0,0.0,0.0,0.0,0.0,0.0,0.0,0.0,0.0,0.0,0.0,0.0,0.0,0.0,0.0,0.0,0.0,0.0,0.0,0.0,0.0,0.0,0.0,0.0,0.0,0.0,0.0,0.0,0.0,0.0,0.0,0.0,0.0,0.0,0.0,0.0,0.0,0.0,0.0,0.0,0.0,0.0,0.0,0.0,0.0,0.0,0.0,0.0,0.0,0.0,0.0,0.0,0.0,0.0,0.0,0.0,0.0,0.0,0.0,0.0,0.0,0.0,0.0,0.0,0.0,0.0,0.0,0.0,0.0,0.0,0.0,0.0,0.0,0.0,0.0,0.0,0.0,0.0,0.0,0.0,0.0,0.0,0.0,0.0,0.0,0.0,0.0,0.0,0.0,0.0,0.0,0.0,0.0,0.0,0.0,0.0,0.0,0.0,0.0,0.0,0.0,0.0,0.0,0.0,0.0,0.0,0.0,0.0,0.0,0.0,0.0,0.0,0.0,0.0,0.0,0.0,0.0,0.0,0.0,0.0,0.0,0.0,0.0,0.0,0.0,0.0,0.0,0.0,0.0,0.0,0.0,0.0,0.0,0.0,0.0,0.0,0.0,0.0,0.0,0.0,0.0,0.0,0.0,0.0,0.0,0.0,0.0,0.0,0.0,0.0,0.0,0.0,0.0,0.0,0.0,0.0,0.0,0.0,0.0,0.0,0.0,0.0,0.0,0.0,0.0,0.0,0.0,0.0,0.0,0.0,0.0,0.0,0.0,0.0,0.0,0.0,0.0,0.0,0.0,0.0,0.0,0.0,0.0,0.0,0.0,0.0,0.0,0.0,0.0,0.0,0.0,0.0,0.0,0.0,0.0,0.0,0.0,0.0,0.0,0.0,0.0,0.0,0.0,0.0,0.0,0.0,0.0,0.0,0.0,0.0,0.0,0.0,0.0,0.0,0.0,0.0,0.0,0.0,0.0,0.0,0.0,0.0,0.0,0.0,0.0,0.0,0.0,0.0,0.0,0.0,0.0,0.0,0.0,0.0,0.0,0.0,0.0,0.0,0.0,0.0,0.0,0.0,0.0,0.0,0.0,0.0,0.0,0.0,0.0,0.0,0.0,0.0,0.0,0.0,0.0,0.0,0.0,0.0,0.0,0.0,0.0,0.0,0.0,0.0,0.0,0.0,0.0,0.0,0.0,0.0,0.0,0.0,0.0,0.0,0.0,0.0,0.0,0.0,0.0,0.0,0.0,0.0,0.0,0.0,0.0,0.0,0.0,0.0,0.0,0.0,0.0,0.0,0.0,0.0,0.0,0.0,0.0,0.0,0.0,0.0,0.0,0.0,0.0,0.0,0.0,0.0,0.0,0.0,0.0,0.0,0.0,0.0,0.0,0.0,0.0,0.0,0.0,0.0,0.0,0.0,0.0,0.0,0.0,0.0,0.0,0.0,0.0,0.0,0.0,0.0,0.0,0.0,0.0,0.0,0.0,0.0,0.0,0.0,0.0,0.0,0.0,0.0,0.0,0.0,0.0,0.0,0.0,0.0,0.0,0.0,0.0,0.0,0.0,0.0,0.0,0.0,0.0,0.0,0.0,0.0,0.0,0.0,0.0,0.0,0.0,0.0,0.0,0.0,0.0,0.0,0.0,0.0,0.0,0.0,0.0,0.0,0.0,0.0,0.0,0.0,0.0,0.0,0.0,0.0,0.0,0.0,0.0,0.0,0.0,0.0,0.0,0.0,0.0,0.0,0.0,0.0,0.0,0.0,0.0,0.0,0.0,0.0,0.0,0.0,0.0,0.0,0.0,0.0,0.0,0.0,0.0,0.0,0.0,0.0,0.0,0.0,0.0,0.0,0.0,0.0,0.0,0.0,0.0,0.0,0.0,0.0,0.0,0.0,0.0,0.0,0.0,0.0,0.0,0.0,0.0,0.0,0.0,0.0,0.0,0.0,0.0,0.0,0.0,0.0,0.0,0.0,0.0,0.0,0.0,0.0,0.0,0.0,0.0,0.0,0.0,0.0,0.0,0.0,0.0,0.0,0.0,0.0,0.0,0.0,0.0,0.0,0.0,0.0,0.0,0.0,0.0,0.0,0.0,0.0,0.0,0.0,0.0,0.0,0.0,0.0,0.0,0.0,0.0,0.0,0.0,0.0,0.0,0.0,0.0,0.0,0.0,0.0,0.0,0.0,0.0,0.0,0.0,0.0,0.0,0.0,0.0,0.0,0.0,0.0,0.0,0.0,0.0,0.0,0.0,0.0,0.0,0.0,0.0,0.0,0.0,0.0,0.0,0.0,0.0,0.0,0.0,0.0,0.0,0.0,0.0,0.0,0.0,0.0,0.0,0.0,0.0,0.0,0.0,0.0,0.0,0.0,0.0,0.0,0.0,0.0,0.0,0.0,0.0,0.0,0.0,0.0,0.0,0.0,0.0,0.0,0.0,0.0,0.0,0.0,0.0,0.0,0.0,0.0,0.0,0.0,0.0,0.0,0.0,0.0,0.0,0.0,0.0,0.0,0.0,0.0,0.0,0.0,0.0,0.0,0.0,0.0,0.0,0.0,0.0,0.0,0.0,0.0,0.0,0.0,0.0,0.0,0.0,0.0,0.0,0.0,0.0,0.0,0.0,0.0,0.0,0.0,0.0,0.0,0.0,0.0,0.0,0.0,0.0,0.0,0.0,0.0,0.0,0.0,0.0,0.0,0.0,0.0,0.0,0.0,0.0,0.0,0.0,0.0,0.0,0.0,0.0,0.0,0.0,0.0,0.0,0.0,0.0,0.0,0.0,0.0,0.0,0.0,0.0,0.0,0.0,0.0,0.0,0.0,0.0,0.0,0.0,0.0,0.0,0.0,0.0,0.0,0.0,0.0,0.0,0.0,0.0,0.0,0.0,0.0,0.0,0.0,0.0,0.0,0.0,0.0,0.0,0.0,0.0,0.0,0.0,0.0,0.0,0.0,0.0,0.0,0.0,0.0,0.0,0.0,0.0,0.0,0.0,0.0,0.0,0.0,0.0,0.0,0.0,0.0,0.0,0.0,0.0,0.0,0.0,0.0,0.0,0.0,0.0,0.0,0.0,0.0,0.0,0.0,0.0,0.0,0.0,0.0,0.0,0.0,0.0,0.0,0.0,0.0,0.0,0.0,0.0,0.0,0.0,0.0,0.0,0.0,0.0,0.0,0.0,0.0,0.0,0.0,0.0,0.0,0.0,0.0,0.0,0.0,0.0,0.0,0.0,0.0,0.0,0.0,0.0,0.0,0.0,0.0,0.0,0.0,0.0,0.0,0.0,0.0,0.0,0.0,0.0,0.0,0.0,0.0,0.0,0.0,0.0,0.0,0.0,0.0,0.0,0.0,0.0,0.0,0.0,0.0,0.0,0.0,0.0,0.0,0.0,0.0,0.0,0.0,0.0,0.0,0.0,0.0,0.0,0.0,0.0,0.0,0.0,0.0,0.0,0.0,0.0,0.0,0.0,0.0,0.0,0.0,0.0,0.0,0.0,0.0,0.0,0.0,0.0,0.0,0.0,0.0,0.0,0.0,0.0,0.0,0.0,0.0,0.1806,0.0,0.0,0.0,0.0,0.0,0.0,0.0,0.0,0.0,0.0,0.0,0.0,0.0,0.0,0.0,0.0,0.0,0.0,0.0,0.0,0.0,0.0,0.0,0.0,0.0,0.0,0.0,0.0,0.0,0.0,0.0,0.0,0.0,0.0,0.0,0.0,0.0,0.0,0.0,0.0,0.0,0.0,0.0,0.0,0.0,0.0,0.0,0.0,0.0,0.0,0.0,0.0,0.0,0.0,0.0,0.0,0.0,0.0,0.0,0.0,0.0,0.0,0.0,0.0,0.0,0.0,0.0,0.0,0.0,0.0,0.0,0.0,0.0,0.0,0.0,0.0,0.0,0.0,0.0,0.0,0.0,0.0,0.0,0.0,0.0,0.0,0.0,0.0,0.0,0.0,0.0,0.0,0.0,0.0,0.0,0.0,0.0,0.0,0.0,0.0,0.0,0.0,0.0,0.0,0.0,0.0,0.0,0.0,0.0,0.0,0.1802,0.1802,0.1802,0.1798,0.1809,0.0,0.0,0.0,0.0,0.0,0.0,0.0,0.0,0.0,0.0,0.0,0.0,0.0,0.0,0.0,0.0,0.0,0.0,0.0,0.0,0.0,0.0,0.0,0.0,0.0,0.0,0.0,0.0,0.0,0.0,0.0,0.0,0.0,0.0,0.0,0.0,0.0,0.0,0.0,0.0,0.0,0.0,0.0,0.0,0.0,0.0,0.0,0.0,0.0,0.0,0.0,0.0,0.0,0.0,0.0,0.0,0.0,0.0,0.0,0.0,0.0,0.0,0.0,0.0,0.0,0.0,0.0,0.0,0.0,0.0,0.0,0.0,0.0,0.0,0.0,0.0,0.0,0.0,0.0,0.0,0.0,0.0,0.0,0.0,0.0,0.0,0.0,0.0,0.0,0.0,0.0,0.0,0.0,0.0,0.0,0.0,0.0,0.0,0.0,0.0,0.0,0.0,0.0,0.0,0.0,0.0,0.0,0.0,0.0,0.0,0.0,0.0,0.1855,0.1877,0.1936,0.0,0.0,0.0,0.0,0.0,0.0,0.0,0.0,0.0,0.0,0.0,0.0,0.0,0.0,0.0,0.0,0.0,0.0,0.0,0.0,0.0,0.0,0.0,0.0,0.0,0.0,0.0,0.0,0.0,0.0,0.0,0.0,0.0,0.0,0.0,0.0,0.0,0.0,0.0,0.0,0.0,0.0,0.0,0.0,0.0,0.0,0.0,0.0,0.0,0.0,0.0,0.0,0.0,0.0,0.0,0.0,0.0,0.0,0.0,0.0,0.0,0.0,0.0,0.0,0.0,0.0,0.0,0.0,0.0,0.0,0.0,0.0,0.0,0.0,0.0,0.0,0.0,0.0,0.0,0.0,0.0,0.0,0.0,0.0,0.0,0.0,0.0,0.0,0.0,0.0,0.0,0.0,0.0,0.0,0.0,0.0,0.0,0.0,0.0,0.0,0.0,0.0,0.0,0.0,0.0,0.0,0.0,0.0,0.0,0.0,0.1922,0.2161,0.2043,0.0,0.2337,0.0,0.0,0.0,0.0,0.0,0.0,0.0,0.0,0.0,0.0,0.0,0.0,0.0,0.0,0.0,0.0,0.0,0.0,0.0,0.0,0.0,0.0,0.0,0.0,0.0,0.0,0.0,0.0,0.0,0.0,0.0,0.0,0.0,0.0,0.0,0.0,0.0,0.0,0.0,0.0,0.0,0.0,0.0,0.0,0.0,0.0,0.0,0.0,0.0,0.0,0.0,0.0,0.0,0.0,0.0,0.0,0.0,0.0,0.0,0.0,0.0,0.0,0.0,0.0,0.0,0.0,0.0,0.0,0.0,0.0,0.0,0.0,0.0,0.0,0.0,0.0,0.0,0.0,0.0,0.0,0.0,0.0,0.0,0.0,0.0,0.0,0.0,0.0,0.0,0.0,0.0,0.0,0.0,0.0,0.0,0.0,0.0,0.0,0.0,0.0,0.0,0.0,0.0,0.0,0.0,0.0,0.0,0.0,0.0,0.0,0.208,0.2197,0.215,0.2135,0.0,0.0,0.0,0.0,0.0,0.0,0.0,0.0,0.0,0.0,0.0,0.0,0.0,0.0,0.0,0.0,0.0,0.0,0.0,0.0,0.0,0.0,0.0,0.0,0.0,0.0,0.0,0.0,0.0,0.0,0.0,0.0,0.0,0.0,0.0,0.0,0.0,0.0,0.0,0.0,0.0,0.0,0.0,0.0,0.0,0.0,0.0,0.0,0.0,0.0,0.0,0.0,0.0,0.0,0.0,0.0,0.0,0.0,0.0,0.0,0.0,0.0,0.0,0.0,0.0,0.0,0.0,0.0,0.0,0.0,0.0,0.0,0.0,0.0,0.0,0.0,0.0,0.0,0.0,0.0,0.0,0.0,0.0,0.0,0.0,0.0,0.0,0.0,0.0,0.0,0.0,0.0,0.0,0.0,0.0,0.0,0.0,0.0,0.0,0.0,0.0,0.0,0.0,0.0,0.0,0.0,0.0,0.0,0.0,0.0,0.2147,0.0,0.2289,0.2231,0.2164,0.2111,0.0,0.0,0.0,0.0,0.0,0.0,0.0,0.0,0.0,0.0,0.0,0.0,0.0,0.0,0.0,0.0,0.0,0.0,0.0,0.0,0.0,0.0,0.0,0.0,0.0,0.0,0.0,0.0,0.0,0.0,0.0,0.0,0.0,0.0,0.0,0.0,0.0,0.0,0.0,0.0,0.0,0.0,0.0,0.0,0.0,0.0,0.0,0.0,0.0,0.0,0.0,0.0,0.0,0.0,0.0,0.0,0.0,0.0,0.0,0.0,0.0,0.0,0.0,0.0,0.0,0.0,0.0,0.0,0.0,0.0,0.0,0.0,0.0,0.0,0.0,0.0,0.0,0.0,0.0,0.0,0.0,0.0,0.0,0.0,0.0,0.0,0.0,0.0,0.0,0.0,0.0,0.0,0.0,0.0,0.0,0.0,0.0,0.0,0.0,0.0,0.0,0.0,0.0,0.0,0.0,0.0,0.0,0.0,0.0,0.2352,0.2292,0.248,0.2299,0.2264,0.0,0.0,0.0,0.0,0.0,0.0,0.0,0.0,0.0,0.0,0.0,0.0,0.0,0.0,0.0,0.0,0.0,0.0,0.0,0.0,0.0,0.0,0.0,0.0,0.0,0.0,0.0,0.0,0.0,0.0,0.0,0.0,0.0,0.0,0.0,0.0,0.0,0.0,0.0,0.0,0.0,0.0,0.0,0.0,0.0,0.0,0.0,0.0,0.0,0.0,0.0,0.0,0.0,0.0,0.0,0.0,0.0,0.0,0.0,0.0,0.0,0.0,0.0,0.0,0.0,0.0,0.0,0.0,0.0,0.0,0.0,0.0,0.0,0.0,0.0,0.0,0.0,0.0,0.0,0.0,0.0,0.0,0.0,0.0,0.0,0.0,0.0,0.0,0.0,0.0,0.0,0.0,0.0,0.0,0.0,0.0,0.0,0.0,0.0,0.0,0.0,0.0,0.0,0.0,0.0,0.0,0.0,0.0,0.0,0.2119,0.2177,0.2456,0.2971,0.2692,0.2665,0.0,0.0,0.0,0.0,0.0,0.0,0.0,0.0,0.0,0.0,0.0,0.0,0.0,0.0,0.0,0.0,0.0,0.0,0.0,0.0,0.0,0.0,0.0,0.0,0.0,0.0,0.0,0.0,0.0,0.0,0.0,0.0,0.0,0.0,0.0,0.0,0.0,0.0,0.0,0.0,0.0,0.0,0.0,0.0,0.0,0.0,0.0,0.0,0.0,0.0,0.0,0.0,0.0,0.0,0.0,0.0,0.0,0.0,0.0,0.0,0.0,0.0,0.0,0.0,0.0,0.0,0.0,0.0,0.0,0.0,0.0,0.0,0.0,0.0,0.0,0.0,0.0,0.0,0.0,0.0,0.0,0.0,0.0,0.0,0.0,0.0,0.0,0.0,0.0,0.0,0.0,0.0,0.0,0.0,0.0,0.0,0.0,0.0,0.0,0.0,0.0,0.0,0.0,0.0,0.0,0.0,0.0,0.0,0.0,0.2101,0.0,0.2722,0.0,0.2938,0.2917,0.0,0.0,0.0,0.0,0.0,0.0,0.0,0.0,0.0,0.0,0.0,0.0,0.0,0.0,0.0,0.0,0.0,0.0,0.0,0.0,0.0,0.0,0.0,0.0,0.0,0.0,0.0,0.0,0.0,0.0,0.0,0.0,0.0,0.0,0.0,0.0,0.0,0.0,0.0,0.0,0.0,0.0,0.0,0.0,0.0,0.0,0.0,0.0,0.0,0.0,0.0,0.0,0.0,0.0,0.0,0.0,0.0,0.0,0.0,0.0,0.0,0.0,0.0,0.0,0.0,0.0,0.0,0.0,0.0,0.0,0.0,0.0,0.0,0.0,0.0,0.0,0.0,0.0,0.0,0.0,0.0,0.0,0.0,0.0,0.0,0.0,0.0,0.0,0.0,0.0,0.0,0.0,0.0,0.0,0.0,0.0,0.0,0.0,0.0,0.0,0.0,0.0,0.0,0.0,0.0,0.0,0.0,0.0,0.2115,0.2667,0.2983,0.3155,0.3134,0.3049,0.3012,0.0,0.0,0.0,0.0,0.0,0.0,0.0,0.0,0.0,0.0,0.0,0.0,0.0,0.0,0.0,0.0,0.0,0.0,0.0,0.0,0.0,0.0,0.0,0.0,0.0,0.0,0.0,0.0,0.0,0.0,0.0,0.0,0.0,0.0,0.0,0.0,0.0,0.0,0.0,0.0,0.0,0.0,0.0,0.0,0.0,0.0,0.0,0.0,0.0,0.0,0.0,0.0,0.0,0.0,0.0,0.0,0.0,0.0,0.0,0.0,0.0,0.0,0.0,0.0,0.0,0.0,0.0,0.0,0.0,0.0,0.0,0.0,0.0,0.0,0.0,0.0,0.0,0.0,0.0,0.0,0.0,0.0,0.0,0.0,0.0,0.0,0.0,0.0,0.0,0.0,0.0,0.0,0.0,0.0,0.0,0.0,0.0,0.0,0.0,0.0,0.0,0.0,0.0,0.0,0.0,0.0,0.0,0.0,0.0,0.2994,0.3642,0.419,0.4587,0.4177,0.4123,0.0,0.0,0.0,0.0,0.0,0.0,0.0,0.0,0.0,0.0,0.0,0.0,0.0,0.0,0.0,0.0,0.0,0.0,0.0,0.0,0.0,0.0,0.0,0.0,0.0,0.0,0.0,0.0,0.0,0.0,0.0,0.0,0.0,0.0,0.0,0.0,0.0,0.0,0.0,0.0,0.0,0.0,0.0,0.0,0.0,0.0,0.0,0.0,0.0,0.0,0.0,0.0,0.0,0.0,0.0,0.0,0.0,0.0,0.0,0.0,0.0,0.0,0.0,0.0,0.0,0.0,0.0,0.0,0.0,0.0,0.0,0.0,0.0,0.0,0.0,0.0,0.0,0.0,0.0,0.0,0.0,0.0,0.0,0.0,0.0,0.0,0.0,0.0,0.0,0.0,0.0,0.0,0.0,0.0,0.0,0.0,0.0,0.0,0.0,0.0,0.0,0.0,0.0,0.0,0.0,0.0,0.0,0.0,0.0,0.3949,0.4457,0.496,0.5456,0.5036,0.4946,0.5261,0.0,0.0,0.0,0.0,0.0,0.0,0.0,0.0,0.0,0.0,0.0,0.0,0.0,0.0,0.0,0.0,0.0,0.0,0.0,0.0,0.0,0.0,0.0,0.0,0.0,0.0,0.0,0.0,0.0,0.0,0.0,0.0,0.0,0.0,0.0,0.0,0.0,0.0,0.0,0.0,0.0,0.0,0.0,0.0,0.0,0.0,0.0,0.0,0.0,0.0,0.0,0.0,0.0,0.0,0.0,0.0,0.0,0.0,0.0,0.0,0.0,0.0,0.0,0.0,0.0,0.0,0.0,0.0,0.0,0.0,0.0,0.0,0.0,0.0,0.0,0.0,0.0,0.0,0.0,0.0,0.0,0.0,0.0,0.0,0.0,0.0,0.0,0.0,0.0,0.0,0.0,0.0,0.0,0.0,0.0,0.0,0.0,0.0,0.0,0.0,0.0,0.0,0.0,0.0,0.0,0.0,0.0,0.0,0.533,0.5413,0.5567,0.5818,0.5674,0.5562,0.0,0.0,0.0,0.0,0.0,0.0,0.0,0.0,0.0,0.0,0.0,0.0,0.0,0.0,0.0,0.0,0.0,0.0,0.0,0.0,0.0,0.0,0.0,0.0,0.0,0.0,0.0,0.0,0.0,0.0,0.0,0.0,0.0,0.0,0.0,0.0,0.0,0.0,0.0,0.0,0.0,0.0,0.0,0.0,0.0,0.0,0.0,0.0,0.0,0.0,0.0,0.0,0.0,0.0,0.0,0.0,0.0,0.0,0.0,0.0,0.0,0.0,0.0,0.0,0.0,0.0,0.0,0.0,0.0,0.0,0.0,0.0,0.0,0.0,0.0,0.0,0.0,0.0,0.0,0.0,0.0,0.0,0.0,0.0,0.0,0.0,0.0,0.0,0.0,0.0,0.0,0.0,0.0,0.0,0.0,0.0,0.0,0.0,0.0,0.0,0.0,0.0,0.0,0.0,0.0,0.0,0.0,0.0,0.0,0.5825,0.6722,0.7174,0.7046,0.6857,0.662,0.0,0.0,0.0,0.0,0.0,0.0,0.0,0.0,0.0,0.0,0.0,0.0,0.0,0.0,0.0,0.0,0.0,0.0,0.0,0.0,0.0,0.0,0.0,0.0,0.0,0.0,0.0,0.0,0.0,0.0,0.0,0.0,0.0,0.0,0.0,0.0,0.0,0.0,0.0,0.0,0.0,0.0,0.0,0.0,0.0,0.0,0.0,0.0,0.0,0.0,0.0,0.0,0.0,0.0,0.0,0.0,0.0,0.0,0.0,0.0,0.0,0.0,0.0,0.0,0.0,0.0,0.0,0.0,0.0,0.0,0.0,0.0,0.0,0.0,0.0,0.0,0.0,0.0,0.0,0.0,0.0,0.0,0.0,0.0,0.0,0.0,0.0,0.0,0.0,0.0,0.0,0.0,0.0,0.0,0.0,0.0,0.0,0.0,0.0,0.0,0.0,0.0,0.0,0.0,0.0,0.0,0.0,0.0,0.5769,0.6627,0.7714,0.829,0.8311,0.8117,0.7864,0.0,0.0,0.0,0.0,0.0,0.0,0.0,0.0,0.0,0.0,0.0,0.0,0.0,0.0,0.0,0.0,0.0,0.0,0.0,0.0,0.0,0.0,0.0,0.0,0.0,0.0,0.0,0.0,0.0,0.0,0.0,0.0,0.0,0.0,0.0,0.0,0.0,0.0,0.0,0.0,0.0,0.0,0.0,0.0,0.0,0.0,0.0,0.0,0.0,0.0,0.0,0.0,0.0,0.0,0.0,0.0,0.0,0.0,0.0,0.0,0.0,0.0,0.0,0.0,0.0,0.0,0.0,0.0,0.0,0.0,0.0,0.0,0.0,0.0,0.0,0.0,0.0,0.0,0.0,0.0,0.0,0.0,0.0,0.0,0.0,0.0,0.0,0.0,0.0,0.0,0.0,0.0,0.0,0.0,0.0,0.0,0.0,0.0,0.0,0.0,0.0,0.0,0.0,0.0,0.0,0.0,0.0,0.0,0.6379,0.7489,0.8501,0.9181,0.9521,0.9284,0.9067,0.0,0.0,0.0,0.0,0.0,0.0,0.0,0.0,0.0,0.0,0.0,0.0,0.0,0.0,0.0,0.0,0.0,0.0,0.0,0.0,0.0,0.0,0.0,0.0,0.0,0.0,0.0,0.0,0.0,0.0,0.0,0.0,0.0,0.0,0.0,0.0,0.0,0.0,0.0,0.0,0.0,0.0,0.0,0.0,0.0,0.0,0.0,0.0,0.0,0.0,0.0,0.0,0.0,0.0,0.0,0.0,0.0,0.0,0.0,0.0,0.0,0.0,0.0,0.0,0.0,0.0,0.0,0.0,0.0,0.0,0.0,0.0,0.0,0.0,0.0,0.0,0.0,0.0,0.0,0.0,0.0,0.0,0.0,0.0,0.0,0.0,0.0,0.0,0.0,0.0,0.0,0.0,0.0,0.0,0.0,0.0,0.0,0.0,0.0,0.0,0.0,0.0,0.0,0.0,0.0,0.0,0.0,0.0,0.6975,0.7514,0.9392,1.0419,1.0478,0.9799,0.9403,0.0,0.0,0.0,0.0,0.0,0.0,0.0,0.0,0.0,0.0,0.0,0.0,0.0,0.0,0.0,0.0,0.0,0.0,0.0,0.0,0.0,0.0,0.0,0.0,0.0,0.0,0.0,0.0,0.0,0.0,0.0,0.0,0.0,0.0,0.0,0.0,0.0,0.0,0.0,0.0,0.0,0.0,0.0,0.0,0.0,0.0,0.0,0.0,0.4091,0.0,0.0,0.0,0.0,0.0,0.0,0.0,0.0,0.0,0.0,0.0,0.0,0.0,0.0,0.0,0.0,0.0,0.0,0.0,0.0,0.0,0.0,0.0,0.0,0.0,0.0,0.0,0.0,0.0,0.0,0.0,0.0,0.0,0.0,0.0,0.0,0.0,0.0,0.0,0.0,0.0,0.0,0.0,0.0,0.0,0.0,0.0,0.0,0.0,0.0,0.0,0.0,0.0,0.0,0.0,0.0,0.0,0.0,0.0,0.7179,0.8542,0.9736,1.0623,1.1205,1.0816,1.045,0.0,0.0,0.0,0.0,0.0,0.0,0.0,0.0,0.0,0.0,0.0,0.0,0.0,0.0,0.0,0.0,0.0,0.0,0.0,0.0,0.0,0.0,0.0,0.0,0.0,0.0,0.0,0.0,0.0,0.0,0.0,0.0,0.0,0.0,0.0,0.0,0.0,0.0,0.0,0.0,0.0,0.0,0.0,0.0,0.0,0.0,0.0,0.0,0.0,0.0,0.0,0.0,0.0,0.0,0.0,0.0,0.0,0.0,0.0,0.0,0.0,0.0,0.0,0.0,0.0,0.0,0.0,0.0,0.0,0.0,0.0,0.0,0.0,0.0,0.0,0.0,0.0,0.0,0.0,0.0,0.0,0.0,0.0,0.0,0.0,0.0,0.0,0.0,0.0,0.0,0.0,0.0,0.0,0.0,0.0,0.0,0.0,0.0,0.0,0.0,0.0,0.0,0.0,0.0,0.0,0.0,0.0,0.6111,0.7502,0.9684,1.0102,1.0762,1.1771,1.1907,1.1687,1.1039,0.0,0.0,0.0,0.0,0.0,0.0,0.0,0.0,0.0,0.0,0.0,0.0,0.0,0.0,0.0,0.0,0.0,0.0,0.0,0.0,0.0,0.0,0.0,0.0,0.0,0.0,0.0,0.0,0.0,0.0,0.0,0.0,0.0,0.0,0.0,0.0,0.0,0.0,0.376,0.5793,0.0,0.0,0.0,0.0,0.0,0.0,0.0,0.0,0.5916,0.0,0.0,0.0,0.0,0.0,0.0,0.0,0.0,0.0,0.0,0.0,0.0,0.0,0.0,0.0,0.0,0.0,0.0,0.0,0.0,0.0,0.0,0.0,0.0,0.0,0.0,0.0,0.0,0.0,0.0,0.0,0.0,0.0,0.0,0.0,0.0,0.0,0.0,0.0,0.0,0.0,0.0,0.0,0.0,0.0,0.0,0.0,0.0,0.0,0.0,0.0,0.0,0.0,0.0,0.0,0.0,0.5901,0.7411,0.8717,0.9789,1.1508,1.2203,1.1833,1.2393,1.234,1.1522,0.0,0.0,0.0,0.0,0.0,0.0,0.0,0.0,0.0,0.0,0.0,0.0,0.0,0.0,0.0,0.0,0.0,0.0,0.0,0.0,0.0,0.0,0.0,0.0,0.0,0.0,0.0,0.0,0.0,0.0,0.0,0.0,0.0,0.0,0.0,0.0,0.0,0.0,0.0,0.6418,0.7432,0.0,0.0,0.0,0.0,0.0,0.0,0.0,0.0,0.6273,0.0,0.0,0.0,0.0,0.0,0.0,0.0,0.0,0.0,0.0,0.0,0.0,0.0,0.0,0.0,0.0,0.0,0.0,0.0,0.0,0.0,0.0,0.0,0.0,0.0,0.0,0.0,0.0,0.0,0.0,0.0,0.0,0.0,0.0,0.0,0.0,0.0,0.0,0.0,0.0,0.0,0.0,0.0,0.0,0.0,0.0,0.0,0.0,0.0,0.0,0.0,0.0,0.0,0.0,0.0,0.6371,0.7834,0.9283,1.0786,1.182,1.235,1.2375,1.2475,1.224,0.0,0.0,0.0,0.0,0.0,0.0,0.0,0.0,0.0,0.0,0.0,0.0,0.0,0.0,0.0,0.0,0.0,0.0,0.0,0.0,0.0,0.0,0.0,0.0,0.0,0.0,0.0,0.0,0.0,0.0,0.0,0.0,0.0,0.0,0.0,0.0,0.0,0.0,0.0,0.0,0.6236,0.7074,0.6661,0.0,0.0,0.0,0.0,0.0,0.0,0.6885,0.6978,0.0,0.0,0.0,0.0,0.0,0.0,0.0,0.0,0.0,0.0,0.0,0.0,0.0,0.0,0.0,0.0,0.0,0.0,0.0,0.0,0.0,0.0,0.0,0.0,0.0,0.0,0.0,0.0,0.0,0.0,0.0,0.0,0.0,0.0,0.0,0.0,0.0,0.0,0.0,0.0,0.0,0.0,0.0,0.0,0.0,0.0,0.0,0.0,0.0,0.0,0.0,0.0,0.0,0.0,0.0,0.6983,0.832,0.9897,1.1704,1.195,1.2301,1.2865,1.2527,1.2109,0.0,0.0,0.0,0.0,0.0,0.0,0.0,0.0,0.0,0.0,0.0,0.0,0.0,0.0,0.0,0.0,0.0,0.0,0.0,0.0,0.0,0.0,0.0,0.0,0.0,0.0,0.0,0.0,0.0,0.0,0.0,0.0,0.0,0.0,0.0,0.0,0.0,0.0,0.0,0.0,0.0,0.6759,0.6736,0.7086,0.0,0.0,0.0,0.0,0.7443,0.767,0.0,0.0,0.0,0.0,0.0,0.0,0.0,0.0,0.0,0.0,0.0,0.0,0.0,0.0,0.0,0.0,0.0,0.0,0.0,0.0,0.0,0.0,0.0,0.0,0.0,0.0,0.0,0.0,0.0,0.0,0.0,0.0,0.0,0.0,0.0,0.0,0.0,0.0,0.0,0.0,0.0,0.0,0.0,0.0,0.0,0.0,0.0,0.0,0.0,0.0,0.0,0.0,0.0,0.0,0.0,0.0,0.7704,0.9692,1.1057,1.1772,1.2436,1.2836,1.2915,1.285,1.2439,0.0,0.0,0.0,0.0,0.0,0.0,0.0,0.0,0.0,0.0,0.0,0.0,0.0,0.0,0.0,0.0,0.0,0.0,0.0,0.0,0.0,0.0,0.0,0.0,0.0,0.0,0.0,0.0,0.0,0.0,0.0,0.0,0.0,0.0,0.0,0.0,0.0,0.0,0.0,0.0,0.0,0.7098,0.6519,0.7672,0.8536,0.0,0.0,0.8682,0.859,0.8203,0.0,0.0,0.0,0.0,0.0,0.0,0.0,0.0,0.0,0.0,0.0,0.0,0.0,0.0,0.0,0.0,0.0,0.0,0.0,0.0,0.0,0.0,0.0,0.0,0.0,0.0,0.0,0.0,0.0,0.0,0.0,0.0,0.0,0.0,0.0,0.0,0.0,0.0,0.0,0.0,0.0,0.0,0.0,0.0,0.0,0.0,0.0,0.0,0.0,0.0,0.0,0.0,0.0,0.0,0.0,0.6912,0.8423,1.0429,1.176,1.2393,1.2731,1.2915,1.2915,1.2973,1.2456,0.0,0.0,0.0,0.0,0.0,0.0,0.0,0.0,0.0,0.0,0.0,0.0,0.0,0.0,0.0,0.0,0.0,0.0,0.0,0.0,0.0,0.0,0.0,0.0,0.0,0.0,0.0,0.0,0.0,0.0,0.0,0.0,0.0,0.0,0.0,0.0,0.0,0.0,0.0,0.0,0.0,0.0,0.6616,0.8104,0.0,0.0,0.0,0.9308,0.9315,0.0,0.0,0.0,0.0,0.0,0.0,0.0,0.0,0.0,0.0,0.0,0.0,0.0,0.0,0.0,0.0,0.0,0.0,0.0,0.0,0.0,0.0,0.0,0.0,0.0,0.0,0.0,0.0,0.0,0.0,0.0,0.0,0.0,0.0,0.0,0.0,0.0,0.0,0.0,0.0,0.0,0.0,0.0,0.0,0.0,0.0,0.0,0.0,0.0,0.0,0.0,0.0,0.0,0.0,0.0,0.0,0.0,0.9136,1.1078,1.2382,1.3015,1.3106,1.3093,1.3064,1.3197,0.0,0.0,0.0,0.0,0.0,0.0,0.0,0.0,0.0,0.0,0.0,0.0,0.0,0.0,0.0,0.0,0.0,0.0,0.0,0.0,0.0,0.0,0.0,0.0,0.0,0.0,0.0,0.2258,0.0,0.0,0.0,0.0,0.0,0.0,0.0,0.0,0.0,0.0,0.0,0.0,0.0,0.0,0.7582,0.7105,0.8437,0.9446,0.0,0.0,0.9895,0.9814,1.0547,1.0907,0.0,0.0,0.0,0.0,0.0,0.0,0.0,0.0,0.0,0.0,0.0,0.0,0.0,0.0,0.0,0.0,0.0,0.0,0.0,0.0,0.0,0.0,0.0,0.0,0.0,0.0,0.0,0.0,0.0,0.0,0.0,0.0,0.0,0.0,0.0,0.0,0.0,0.0,0.0,0.0,0.0,0.0,0.0,0.0,0.0,0.0,0.0,0.0,0.0,0.0,0.0,0.0,0.0,0.0,0.0,0.9871,1.1793,1.3017,1.345,1.364,1.3656,1.3469,1.3641,1.3078,0.0,0.0,0.0,0.0,0.0,0.0,0.0,0.0,0.0,0.0,0.0,0.0,0.0,0.0,0.0,0.0,0.0,0.0,0.0,0.0,0.0,0.0,0.0,0.0,0.0,0.0,0.0,0.0,0.0,0.0,0.0,0.0,0.0,0.0,0.0,0.0,0.0,0.0,0.0,0.0,0.0,0.8202,0.8272,0.8609,0.9144,0.0,0.0,1.0414,1.0122,0.9941,1.0094,1.0891,0.0,0.0,0.0,0.0,0.0,0.0,0.0,0.0,0.0,0.0,0.0,0.0,0.0,0.0,0.0,0.0,0.0,0.0,0.0,0.0,0.0,0.0,0.0,0.0,0.0,0.0,0.0,0.0,0.0,0.0,0.0,0.0,0.0,0.0,0.0,0.0,0.0,0.0,0.0,0.0,0.0,0.0,0.0,0.0,0.0,0.0,0.0,0.0,0.0,0.0,0.0,0.0,0.0,0.9027,1.0323,1.227,1.3477,1.3874,1.4384,1.4472,1.4063,1.4932,1.4261,0.0,0.0,0.0,0.0,0.0,0.0,0.0,0.0,0.0,0.0,0.0,0.0,0.0,0.0,0.0,0.0,0.0,0.0,0.0,0.0,0.0,0.0,0.0,0.0,0.0,0.0,0.0,0.0,0.3468,0.4131,0.4897,0.0,0.0,0.0,0.0,0.0,0.0,0.0,0.0,0.0,0.0,0.9939,0.9627,0.9773,0.0,0.0,1.0888,1.0985,1.0704,1.1195,1.1591,1.1485,1.3127,0.0,0.0,0.0,0.0,0.0,0.0,0.0,0.0,0.0,0.0,0.0,0.0,0.0,0.0,0.0,0.0,0.0,0.0,0.0,0.0,0.0,0.0,0.0,0.0,0.0,0.0,0.0,0.0,0.0,0.0,0.0,0.0,0.0,0.0,0.0,0.0,0.0,0.0,0.0,0.0,0.0,0.0,0.0,0.0,0.0,0.0,0.0,0.0,0.0,0.0,0.0,0.0,0.9334,1.0847,1.2607,1.3763,1.431,1.5092,1.5209,1.4658,1.5764,1.5178,0.0,0.0,0.0,0.0,0.0,0.0,0.0,0.0,0.0,0.0,0.0,0.0,0.0,0.0,0.0,0.0,0.0,0.0,0.0,0.0,0.0,0.0,0.0,0.0,0.0,0.0,0.0,0.0,0.4308,0.4871,0.5506,0.0,0.0,0.0,0.0,0.0,0.0,0.0,0.0,0.0,0.0,1.1545,1.0843,1.0801,1.1021,1.1487,1.1891,1.2061,1.1817,1.2078,1.2203,1.194,0.0,0.0,0.0,0.0,0.0,0.0,0.0,0.0,0.0,0.0,0.0,0.0,0.0,0.0,0.0,0.0,0.0,0.0,0.0,0.0,0.0,0.0,0.0,0.0,0.0,0.0,0.0,0.4372,0.0,0.0,0.4375,0.0,0.0,0.0,0.0,0.0,0.0,0.0,0.0,0.0,0.0,0.0,0.0,0.0,0.0,0.0,0.0,0.0,0.0,0.0,0.0,0.0,0.0,0.9843,1.1366,1.2825,1.3945,1.481,1.5714,1.5869,1.5173,1.5957,1.5681,1.4089,0.0,0.0,0.0,0.0,0.0,0.0,0.0,0.0,0.0,0.0,0.0,0.0,0.0,0.0,0.0,0.0,0.0,0.0,0.0,0.0,0.0,0.0,0.0,0.0,0.0,0.0,0.4595,0.4898,0.5176,0.0,0.0,0.0,0.0,0.0,0.0,0.0,0.0,0.0,0.0,1.2593,1.2848,1.1965,1.1589,1.1821,1.2726,1.3458,1.3784,1.3563,1.223,1.1423,0.0,0.0,0.0,0.0,0.0,0.0,0.0,0.0,0.0,0.0,0.0,0.0,0.0,0.0,0.0,0.0,0.0,0.0,0.0,0.0,0.0,0.0,0.0,0.0,0.0,0.0,0.0,0.7202,0.6454,0.0,0.0,0.0,0.0,0.0,0.0,0.0,0.0,0.0,0.0,0.0,1.0242,1.0865,0.0,0.0,0.0,0.0,0.0,0.0,0.0,0.0,0.0,0.0,0.0,0.0,1.057,1.2917,1.4071,1.5298,1.6619,1.747,1.758,1.6993,1.7375,1.6549,1.4291,0.0,0.0,0.0,0.0,0.0,0.0,0.0,0.0,0.0,0.0,0.0,0.0,0.0,0.0,0.0,0.0,0.0,0.0,0.0,0.0,0.0,0.0,0.0,0.0,0.0,0.5576,0.0,0.0,0.0,0.0,0.0,0.0,0.0,0.0,0.0,0.0,0.0,1.448,1.4996,1.5323,1.5279,1.462,1.4179,1.4056,0.0,0.0,0.0,0.0,0.0,0.0,0.0,0.0,0.0,0.0,0.0,0.0,0.0,0.0,1.2406,0.9547,0.8729,0.8629,0.9015,0.0,0.0,0.0,0.0,0.0,0.0,0.0,0.0,0.0,0.0,0.0,0.0,0.0,0.0,0.8845,0.8258,0.8,0.0,0.0,0.0,0.0,0.0,0.0,0.0,0.0,1.1166,1.1907,1.1981,1.2585,1.2722,0.0,1.1884,1.1064,0.0,0.0,0.0,0.0,0.0,0.0,0.0,0.0,1.1509,1.3993,1.4978,1.6157,1.7554,1.8327,1.8433,1.7928,1.792,1.694,1.4878,1.3336,1.2066,0.0,0.0,0.0,0.0,0.0,0.0,0.0,0.0,0.0,0.0,0.0,0.0,0.0,0.0,0.0,0.0,0.0,0.0,0.0,0.0,0.0,0.0,0.0,0.6875,0.0,0.0,0.0,0.0,0.0,0.0,0.0,0.0,0.0,0.8747,1.2901,1.6286,1.7448,1.7218,1.6807,1.6417,0.0,0.0,0.0,0.0,0.0,0.0,0.0,1.5401,1.5549,1.3705,1.3413,1.7048,1.729,1.657,1.5333,0.0,0.0,1.2093,1.1253,1.115,1.1666,1.1282,1.1015,1.1484,1.1257,1.1367,0.0,0.0,0.0,0.0,0.0,0.0,0.0,0.0,1.0243,1.0348,0.0,0.9894,0.0,0.0,0.0,0.0,0.9254,1.0445,0.0,0.0,1.2977,1.3763,1.4134,1.4181,1.4181,1.4161,1.4122,1.3698,1.2838,1.0472,0.0,0.0,0.0,0.0,0.0,0.0,1.2647,1.4645,1.5554,1.6541,1.7672,1.8364,1.8503,1.7979,1.7643,1.6984,1.5902,1.5295,1.4044,1.201,1.113,0.0,0.0,0.0,0.0,0.0,0.0,0.0,0.0,0.0,0.0,0.0,0.0,0.0,0.0,0.0,0.0,0.0,0.0,0.0,0.0,0.8192,0.0,0.0,0.0,0.0,0.0,0.0,0.0,0.0,0.0,0.0,0.9113,1.3567,1.7392,1.9045,0.0,0.0,0.0,0.0,1.8016,1.7953,1.8772,1.9206,1.8688,1.7854,1.7215,1.6975,0.0,0.0,2.0016,1.9533,1.7975,1.5729,1.6313,1.6666,1.5894,1.5223,1.4951,1.5002,1.49,1.5061,1.507,1.4568,1.4631,1.6556,0.0,0.0,0.0,0.0,1.4527,1.4564,1.4335,1.4952,1.4458,1.319,1.2914,0.0,0.0,0.0,0.0,0.0,0.0,1.2545,1.323,1.4673,1.5371,1.5408,1.6036,1.6118,1.5729,1.5166,1.4762,1.4487,1.3261,1.1633,0.9717,0.0,0.0,0.0,0.0,1.3866,1.6211,1.7071,1.8016,1.9151,1.9384,1.9222,1.8691,1.859,1.8045,1.697,1.6339,1.5389,1.4132,1.3136,0.0,0.0,0.0,0.0,0.0,0.0,0.0,0.0,0.0,0.0,0.0,0.0,0.0,0.0,0.0,0.0,0.0,0.0,0.0,0.8834,0.9226,0.9346,0.0,0.0,0.0,0.0,0.0,0.0,0.0,0.0,0.0,1.164,1.5695,1.8754,0.0,0.0,1.8739,1.871,1.8822,1.9031,1.9287,2.0372,0.0,1.9553,1.923,1.92,1.9467,1.9484,1.9947,2.1293,2.0938,2.0246,1.9506,1.9488,1.9439,1.9099,1.7099,1.5676,1.5678,1.5745,1.5811,1.5965,1.5908,1.6217,1.9504,1.7933,1.6986,1.6595,1.6646,1.6956,1.7061,1.7048,1.7361,1.7004,1.6181,1.5916,1.529,1.4335,1.3603,0.0,0.0,0.0,1.4797,1.5751,1.665,1.7132,1.728,1.7774,1.7873,1.7533,1.7064,1.6573,1.6067,1.5629,1.4374,1.2359,0.0,0.0,1.2647,1.3902,1.5588,1.7696,1.8598,1.9485,2.0444,2.0276,1.9886,1.9346,1.9108,1.8688,1.8047,1.7446,1.6624,1.5601,1.4774,1.3535,0.0,0.0,0.0,0.0,0.0,0.0,0.0,0.0,0.0,0.0,0.0,0.6667,0.5758,0.0,0.0,0.0,0.7287,0.8521,1.0713,1.0888,0.0,0.0,0.0,0.0,0.0,0.0,0.0,1.2992,1.2934,1.3092,1.3876,1.7636,2.0188,1.987,1.9515,1.9416,1.9772,0.0,1.9985,2.042,2.1392,2.167,2.057,2.0437,2.0517,2.0581,2.1089,2.1693,2.2234,2.1893,2.1504,2.1465,2.1269,2.1084,2.0928,1.9333,1.8086,1.8136,1.8252,1.8395,1.8543,1.8559,1.8845,2.1765,2.1595,2.0033,1.8953,1.8294,1.8326,1.8319,1.828,1.834,1.8488,1.8744,1.8737,1.8709,1.8579,1.744,0.0,1.6906,1.6899,1.7526,1.869,1.8777,1.902,1.9439,1.9499,1.9528,1.9483,1.9424,1.8792,1.7678,1.7488,1.6858,1.5707,1.4845,1.4412,1.454,1.6105,1.7631,1.9008,1.9984,2.0809,2.1468,2.0986,2.0433,1.9899,1.934,1.9045,1.8983,1.8487,1.767,1.6535,1.6082,1.4899,1.2817,0.0,0.0,0.0,0.0,0.0,0.0,0.0,0.0,0.0,0.0,0.0,0.0,0.0,0.0,0.0,1.0038,0.0,1.2993,1.2909,0.0,0.0,0.0,1.2334,1.2671,1.4063,1.4816,1.4347,0.0,0.0,1.594,1.9373,2.1619,2.0885,2.0038,1.9799,2.0588,2.0721,2.0917,2.1413,2.1975,2.2168,2.1627,2.1545,2.1413,2.1047,2.1462,2.2237,2.2843,2.2464,2.1984,2.1944,2.1935,2.1817,2.1503,2.1569,2.1886,2.1645,2.1691,2.1806,2.18,2.1688,2.1635,2.4014,2.3981,2.3566,2.236,2.0709,2.111,2.1061,2.0716,2.1117,2.079,1.9996,1.9958,1.9679,1.9124,1.8813,1.8673,1.8688,1.868,1.9,1.9614,2.0282,2.0575,2.0633,2.1272,2.1368,2.0965,2.0402,1.9977,1.965,1.8457,1.8046,1.832,1.7483,1.6931,1.6706,1.8192,1.9335,2.0026,2.0822,2.1314,2.1468,2.0986,2.0629,2.049,1.9918,1.9428,1.9008,1.8468,1.7894,1.7188,1.6636,1.5746,1.4484,1.3064,0.0,0.0,0.0,0.0,0.0,0.0,0.0,0.0,0.0,0.9046,0.7801,0.0,1.0023,0.0,1.1576,1.3784,1.4692,1.4034,0.0,0.0,1.3894,1.4466,1.602,1.6399,1.6418,1.612,1.8182,1.9593,1.9402,2.085,2.205,2.2413,2.1789,2.1357,2.1587,2.1772,2.1991,2.2195,2.2602,2.2855,2.2711,2.2694,2.2642,2.2536,2.2683,2.2873,2.3072,2.2694,2.2342,2.2344,2.21,2.1963,2.2122,2.2144,2.2834,2.3929,2.3112,2.2164,2.292,2.2513,2.2252,2.4816,2.4816,2.4816,2.4089,2.3,2.3293,2.3236,2.2992,2.3286,2.3023,2.2378,2.2378,2.1911,2.1183,2.1167,2.1167,2.1151,2.1167,2.151,2.2107,2.2577,2.2642,2.236,2.2832,2.2588,2.1673,2.1621,2.1213,2.0494,1.9991,1.9799,1.9884,1.9792,1.9642,1.9433,2.0063,2.0651,2.1233,2.1869,2.2089,2.1852,2.1583,2.1194,2.0723,2.0396,1.9943,1.9378,1.8844,1.8329,1.7777,1.72,1.6298,1.4946,1.3981,1.2735,0.0,0.0,0.0,0.0,0.0,0.0,0.0,0.0,0.0,0.0,0.0,1.2486,1.2455,1.4153,1.5491,1.6099,1.5681,1.5483,1.5718,1.5899,1.6513,1.7809,1.7838,1.7946,1.8393,1.9373,2.0177,2.0566,2.1672,2.2589,2.3036,2.2707,2.2332,2.2146,2.2271,2.249,2.2726,2.2951,2.3203,2.3454,2.3744,2.3851,2.37,2.3677,2.3711,2.3862,2.3591,2.3348,2.3351,2.3389,2.3598,2.4034,2.3869,2.4366,2.6026,2.5846,2.5007,2.4835,2.4371,2.4281,2.5025,2.5017,2.5017,2.5025,2.5017,2.5017,2.495,2.4816,2.4816,2.4816,2.4816,2.4816,2.4369,2.3679,2.3663,2.3663,2.3663,2.3663,2.4091,2.4792,2.4816,2.4566,2.4097,2.4097,2.3462,2.2326,2.2976,2.2558,2.1172,2.1784,2.1768,2.1195,2.1784,2.2162,2.2255,2.1853,2.1926,2.24,2.2877,2.2862,2.2433,2.2332,2.182,2.0867,2.0742,2.0408,1.9804,1.9284,1.8782,1.8329,1.7794,1.6754,1.5137,1.4669,1.3714,0.0,1.1593,0.0,0.0,0.0,0.0,0.0,0.0,0.0,0.0,1.28,1.4558,1.6466,1.6897,1.7113,1.7318,1.7455,1.7547,1.7567,1.796,1.8401,1.881,1.8899,1.9376,2.0566,2.0255,2.0246,2.0937,2.251,2.3654,2.3244,2.3361,2.3255,2.2665,2.2656,2.2862,2.3151,2.3229,2.3529,2.4059,2.4649,2.4997,2.4828,2.4963,2.4954,2.5317,2.5128,2.4906,2.4957,2.5374,2.5934,2.6596,2.612,2.6458,2.8312,2.8725,2.8368,2.7142,2.6628,2.6745,2.6172,2.6172,2.6164,2.6172,2.6164,2.6197,2.5644,2.4816,2.4816,2.4816,2.4816,2.4816,2.4736,2.4557,2.4557,2.4565,2.4557,2.4557,2.4638,2.4816,2.4816,2.4733,2.4641,2.4641,2.4511,2.4283,2.4426,2.4306,2.4,2.3465,2.3481,2.3992,2.3473,2.3546,2.4202,0.0,0.0,0.0,2.3037,2.3045,2.2945,2.2533,2.1988,2.1356,2.0931,0.0,1.9804,1.9296,1.8951,1.8838,1.8343,0.0,0.0,0.0,0.0,0.0,0.0,0.0,0.0,0.0,0.0,0.0,1.3893,1.3756,1.311,1.3653,1.4696,1.6245,1.7849,1.8738,1.8575,1.8441,1.8364,1.8392,1.9073,1.9708,2.0166,2.0498,2.0869,2.1201,2.2561,2.3254,2.2943,2.502,2.5762,2.3763,2.4191,2.4545,2.3822,2.3632,2.3566,2.3672,2.403,2.4325,2.4682,2.5524,2.6284,2.6631,2.716,2.7349,2.7403,2.7404,2.7371,2.7349,2.7491,2.761,2.7818,2.7651,2.8058,2.9348,3.0275,3.0377,2.8785,2.81,2.8068,2.7286,2.7286,2.7286,2.7286,0.0,2.7286,2.6967,2.6422,2.6155,2.6171,2.6422,2.6431,2.6431,2.6422,2.6155,2.6029,2.6013,2.5737,2.5653,2.5653,2.5653,2.546,2.5201,2.5201,2.4838,2.4181,2.4589,2.4581,2.4173,2.414,2.4361,2.4767,2.4345,2.4353,2.48,2.4816,2.4507,2.3948,2.3687,2.3537,2.3537,2.3002,2.2425,2.192,2.1619,0.0,0.0,0.0,0.0,0.0,0.0,0.0,0.0,0.0,0.0,1.5112,1.5128,1.4796,1.3887,1.4199,1.4706,1.5327,1.6176,1.6223,1.5174,1.4881,1.5503,1.7276,1.8991,1.9652,1.8995,1.9311,1.959,1.962,2.0371,2.0986,2.1271,2.19,2.2433,2.2849,2.4118,2.5172,2.5813,2.7416,2.7788,2.5976,2.6217,2.6465,2.5705,2.4712,2.4283,2.4964,2.5988,2.6631,2.6841,2.7352,2.7903,2.8296,2.8556,2.8723,2.8757,2.8757,2.8746,2.8779,2.8996,2.9296,2.9593,2.9847,3.0236,3.0883,3.1649,3.1886,3.0758,3.0108,2.9888,2.8113,2.8113,2.8113,2.8113,2.8113,2.8113,2.8172,2.8213,2.767,0.0,0.0,2.8113,2.8113,2.8072,2.7629,2.7437,2.7403,2.7002,2.6784,2.6792,2.6776,2.6457,2.5921,2.5896,2.5235,2.4085,2.4756,2.4731,2.4076,2.4756,2.5101,2.5093,2.5101,2.5109,2.5093,2.5101,2.5101,2.5067,2.4481,2.4122,2.413,2.3662,2.3145,2.2616,2.2515,2.2182,2.1651,2.0671,2.0087,2.0081,1.9265,1.853,1.7987,1.8757,1.8438,1.6774,1.7326,1.7263,1.6061,1.5958,1.639,1.7351,1.8392,1.8434,1.7156,1.6454,1.6843,1.8679,2.0037,2.0405,1.9403,2.0216,2.083,2.083,2.1544,2.2075,2.2334,2.3227,2.4092,2.4719,2.5736,2.6854,2.8221,2.9375,2.9856,2.9137,2.869,2.8292,2.7624,2.6333,2.5772,2.6783,2.7703,2.8566,2.8892,2.9229,2.9624,2.967,2.9908,3.0056,3.0045,3.0045,3.0045,3.019,3.0534,3.1004,3.1443,3.179,3.2235,3.2319,3.2727,3.2964,3.2466,3.2003,3.1665,2.8113,2.8113,2.8113,2.8113,2.8113,2.8113,2.8364,2.8731,2.8222,2.8047,2.8113,2.8113,2.8113,2.8113,2.8021,2.7971,2.7971,2.7912,2.7871,2.7862,2.788,2.7604,2.7085,2.7051,2.6722,2.6144,2.6197,2.6188,2.6103,2.6188,2.6264,2.6239,2.6273,2.6248,2.6273,2.6264,2.6239,2.6248,2.5201,2.4691,2.4691,2.4608,2.4323,2.3778,2.3253,2.2726,2.2182,2.1594,2.1256,2.1242,2.1123,2.0795,2.0257,2.0221,1.9862,1.9118,1.8695,1.837,1.8166,1.8135,1.8734,2.0071,2.0388,1.9883,1.849,1.8599,1.9025,1.9727,2.0954,2.1501,2.0996,2.1397,2.1792,2.1841,2.216,2.2793,2.3826,2.4809,2.5754,2.6733,2.8238,2.88,2.8653,3.0001,3.1464,3.1867,3.0895,2.9862,2.9307,2.8588,2.8431,2.8741,2.854,2.8619,2.9432,2.9987,3.0563,3.0899,3.1777,3.2296,3.2286,3.2261,3.2261,3.2492,3.2459,3.2599,3.2752,3.2878,3.2893,3.2903,3.304,3.304,3.2903,3.2813,3.2799,2.9026,2.9035,2.9026,2.9026,2.9026,2.9035,2.9142,2.9377,2.9126,2.9026,2.9026,2.9026,2.9026,2.901,2.869,2.853,2.8521,2.8238,2.8113,2.8113,2.8113,2.7962,2.7754,2.772,2.7613,2.7378,2.7386,2.7361,2.7361,2.7361,2.7386,2.7361,2.7352,2.7211,2.6943,2.6918,2.6792,2.6474,2.567,2.5226,2.5226,2.4967,2.4683,2.4448,2.4156,2.3898,2.3662,2.315,2.2856,2.2849,2.254,2.2257,2.2024,2.2228,2.2035,2.1351,2.128,2.1047,2.0577,2.0788,2.1336,2.2285,2.2588,2.2567,2.2212,2.0392,1.9895,2.1241,2.176,2.1893,2.1844,2.2613,2.3474,2.4336,2.4819,2.5455,2.6245,2.7246,2.8062,2.8683,3.0023,3.0793,3.0294,3.1427,3.2424,3.2965,3.2269,3.1698,3.1409,3.1211,3.0917,3.054,3.0631,3.1,3.1335,3.1689,3.2042,3.2228,3.2698,3.3068,3.3126,3.3126,3.3126,3.3126,3.3126,3.3126,3.3126,3.3101,3.3126,3.3126,3.3126,3.3126,3.3126,3.3126,3.3126,3.0175,3.0166,3.0166,3.0166,3.0166,3.0166,3.0166,3.0166,3.0166,3.0156,3.014,2.9924,2.9779,2.9739,2.9292,2.9107,2.9057,2.8665,2.8489,2.8464,2.8499,2.8414,2.8288,2.8288,2.8204,2.8122,2.8113,2.8113,2.8113,2.8113,2.8215,2.8372,2.8408,2.8296,2.8151,2.7914,2.7596,2.7172,2.6509,2.6038,2.5795,2.5377,2.5192,2.5176,2.5059,2.4967,2.4959,2.4448,2.4172,2.418,2.373,2.3481,2.3489,2.3913,2.3871,2.3297,2.3469,2.337,2.279,2.3136,2.3686,2.432,2.4648,2.5112,2.5515,2.3086,2.1745,2.2951,2.2604,2.2469,2.3299,2.4127,2.5302,2.6685,2.7215,2.7652,2.8423,2.9379,3.0121,3.0402,3.1491,3.2235,3.2342,3.2735,3.3061,3.3072,3.3126,3.3126,3.3126,3.3126,3.2633,3.2185,3.2492,3.2896,3.3126,3.3036,3.3025,3.3126,3.3104,3.3126,3.3126,3.3126,3.3126,3.3126,3.3126,3.3126,3.3126,3.3126,3.3126,3.3126,3.3126,3.3126,3.3126,3.3126,3.3126,3.1231,3.1246,3.122,3.1246,3.122,3.122,3.1205,3.122,3.1246,3.1246,3.1105,3.0241,2.9829,2.9779,2.9764,2.9754,2.9729,2.9663,2.9638,2.9628,2.9638,2.9352,2.8881,2.8822,2.858,2.8197,2.8172,2.8213,2.8197,2.82,2.8569,2.9267,2.9372,2.9826,3.0412,2.9729,2.925,2.9197,2.833,2.7412,2.6474,2.6373,2.6348,2.6315,2.582,2.5544,2.5586,2.5,2.4741,2.4708,2.4741,2.4658,2.4691,2.4716,2.4693,2.4613,2.4362,2.412,2.4165,2.4667,2.5394,2.6212,2.6349,2.6796,2.7693,2.7449,2.6521,2.5382,2.3877,2.4172,2.5888,2.6276,2.6813,2.7878,2.8153,2.8458,2.9539,3.0159,3.0874,3.1909,3.2485,3.3004,3.2953,3.304,3.3101,3.3126,3.3126,3.3126,3.3126,3.3126,3.3068,3.2907,3.3079,3.3079,3.3126,3.3126,3.3126,3.3126,3.3126,3.3126,3.3126,3.3126,3.3126,3.3126,3.3126,3.3126,3.3126,3.3126,3.3126,3.3126,3.3126,3.3126,3.3126,3.3126,3.3126,3.1406,3.1406,3.1406,3.1406,3.1406,3.1406,3.1406,3.1406,3.1406,3.1406,3.1346,3.0929,3.0733,3.0768,3.0743,3.0743,3.0718,3.0432,3.0467,3.0643,3.0115,2.982,2.9885,2.9569,2.9302,2.9101,2.9101,2.9101,2.9214,2.966,3.0125,3.0553,3.1039,3.1387,3.1412,3.051,2.9865,2.9504,2.8579,2.7871,2.7503,2.7462,2.7419,2.7428,2.7193,2.7059,2.7059,2.6858,2.6749,2.6757,2.674,2.6749,2.6749,2.6757,2.6757,2.674,2.6599,2.651,2.6548,2.6771,2.7214,2.7911,2.7969,2.843,2.9426,2.9289,2.8969,2.8811,2.7778,2.7293,2.7555,2.8065,2.8746,2.9506,3.0118,3.0839,3.1641,3.1938,3.2286,3.2699,3.2939,3.3126,3.3126,3.3126,3.3126,3.3126,3.3126,3.3126,3.3126,3.3126,3.3126,3.3126,3.3126,3.3126,3.3126,3.3126,3.3126,3.3126,3.3126,3.3126,3.3126,3.3126,3.3126,3.3126,3.3126,3.3126,3.3126,3.3126,3.3126,3.3126,3.3126,3.3126,3.3126,3.3126,3.3126,3.1859,3.1863,3.1884,3.1873,3.1873,3.1884,3.1884,3.1873,3.1873,3.1848,3.1884,3.1884,3.1859,3.1823,3.1547,3.1406,3.1346,3.0984,3.1009,3.1296,3.0567,3.0467,3.0758,3.0432,3.0251,3.0241,3.0241,3.0398,3.0704,3.1325,3.1862,3.229,3.2913,3.3129,3.2723,3.1661,3.0806,3.0317,2.9204,2.8565,2.8574,2.8565,2.8423,2.8138,2.8113,2.8113,2.8113,2.8113,2.8113,2.8088,2.8113,2.8113,2.8113,2.8113,2.8113,2.8122,2.8238,2.8339,2.8339,2.8464,2.879,2.9283,2.9349,2.975,3.0522,3.0457,3.0658,3.1309,3.1061,3.022,2.9516,3.0109,3.084,3.1288,3.2049,3.2631,3.2993,3.3126,3.3068,3.3126,3.3101,3.3126,3.3126,3.3126,3.3126,3.3126,3.3126,3.3126,3.3126,3.3126,3.3151,3.3291,3.3456,3.3438,3.3197,3.3126,3.3126,3.3126,3.3126,3.3126,3.3126,3.3126,3.3126,3.3126,3.3126,3.3126,3.3126,3.3126,3.3176,3.3126,3.3151,3.3176,3.3126,3.3126,3.3126,3.3014,3.3014,3.3025,3.2975,3.2989,3.2964,3.2989,3.2914,3.2975,3.2989,3.295,3.2975,3.3014,3.2889,3.1934,3.1421,3.1432,3.1396,3.1432,3.1472,3.1321,3.1321,3.1381,3.1356,3.1306,3.1195,3.118,3.1709,3.2666,3.291,3.358,3.4744,3.4856,3.5033,3.4965,3.3379,3.2494,3.2208,3.0608,2.9729,2.9739,2.9704,2.9236,2.8364,2.8147,2.8188,2.8163,2.8138,2.8138,2.8138,2.8188,2.8172,2.8147,2.8147,2.8188,2.8197,2.8615,2.8907,2.8982,2.9418,2.992,3.0397,3.0437,3.0748,3.126,3.1246,3.1497,3.2093,3.2506,3.2432,3.1939,3.2147,3.2676,3.28,3.2939,3.3054,3.3101,3.3126,3.3126,3.3126,3.3126,3.3126,3.3126,3.3126,3.3115,3.314,3.314,3.3212,3.3255,3.318,3.3326,3.3826,3.4193,3.431,3.3402,3.3114,3.3107,3.3294,3.3398,3.3241,3.3151,3.3126,3.3176,3.319,3.3316,3.3341,3.3176,3.3176,3.3266,3.3316,3.3366,3.3341,3.3517,3.3241,3.3291,3.3126,3.3126,3.3126,3.3126,3.3126,3.3126,3.3126,3.3126,3.3126,3.3126,3.3126,3.3126,3.3126,3.3075,3.2688,3.2487,3.2472,3.21,3.2114,3.2361,3.1758,3.1597,3.1863,3.1562,3.1406,3.1406,3.1417,3.1948,3.3072,3.4274,3.5166,3.5661,3.6248,3.6599,3.6335,3.4752,3.3753,3.3559,3.1818,3.0809,3.0793,3.0819,3.0457,2.9735,2.9343,2.9211,2.9167,2.9186,2.9176,2.9186,2.9176,2.9176,2.9176,2.9186,2.9176,2.9227,2.9684,2.9986,3.0061,3.0507,3.0894,3.1095,3.112,3.1361,3.1727,3.1637,3.1763,3.2577,3.2928,3.2953,3.2864,3.297,3.3114,3.3108,3.3126,3.3126,3.3126,3.3126,3.3126,3.3126,3.3126,3.3126,3.314,3.3126,3.3241,3.3578,3.3896,3.407,3.3989,3.3576,3.3441,3.4327,3.5141,3.5478,3.4667,3.3601,3.3219,3.3707,3.394,3.4115,3.4098,3.4045,3.4095,3.3997,3.3972,3.39,3.3875,3.3911,3.3922,3.403,3.403,3.3897,3.4148,3.3864,3.3914,3.3126,3.3126,3.3126,3.3126,3.3126,3.3126,3.3126,3.3126,3.3126,3.3126,3.3126,3.3126,3.3126,3.3126,3.3126,3.3126,3.3075,3.2677,3.2717,3.3014,3.23,3.215,3.2376,3.2125,3.1959,3.2032,3.2337,3.3149,3.4533,3.5929,3.6622,3.6842,3.7444,3.7614,3.7124,3.5406,3.4389,3.4021,3.2432,3.1406,3.1406,3.1406,3.1246,3.0874,3.0482,3.014,2.9829,2.9779,2.9779,2.9779,2.9779,2.988,3.003,3.0231,3.0316,3.0357,3.0658,3.0849,3.0874,3.121,3.1472,3.1647,3.1662,3.1888,3.238,3.2139,3.2386,3.2925,3.3126,3.3126,3.3126,3.3101,3.3126,3.3126,3.3126,3.3126,3.3126,3.3126,3.3126,3.3104,3.3107,3.3183,3.3402,3.3889,3.4131,3.4229,3.4594,3.4855,3.4603,3.4187,3.3886,3.4822,3.5714,3.6006,3.5676,3.4919,3.4259,3.4596,3.4886,3.5023,3.4888,3.4874,3.4874,3.4764,3.4705,3.4633,3.4621,3.4669,3.4764,3.486,3.4636,3.4377,3.4469,3.4499,3.4496,3.3126,3.3126,3.3126,3.3126,3.3126,3.3126,3.3126,3.3126,3.3126,3.3126,3.3126,3.3126,3.3126,3.3126,3.3126,3.3126,3.309,3.304,3.304,3.3075,3.3025,3.3,3.3014,3.2975,3.3021,3.317,3.422,3.569,3.7329,3.7641,3.7976,3.8314,3.833,3.8153,3.7468,3.5678,3.4527,3.4155,3.2624,3.1553,3.1411,3.1537,3.1522,3.1421,3.1361,3.0894,2.993,2.988,2.9939,2.9905,2.9905,3.0071,3.0608,3.1009,3.1331,3.1271,3.1371,3.1386,3.1421,3.1472,3.1813,3.2114,3.2215,3.2441,3.2853,3.2953,3.2989,3.3065,3.3126,3.3126,3.3126,3.3126,3.3126,3.3126,3.3126,3.3126,3.3126,3.3126,3.3126,3.3172,3.3144,3.3317,3.4056,3.5067,3.5575,3.4981,3.508,3.5274,3.5047,3.4838,3.4995,3.544,3.5998,3.6255,3.6331,3.6329,3.5869,3.5592,3.5836,3.5981,3.545,3.5285,3.5335,3.5287,3.5253,3.5168,3.5122,3.517,3.526,3.5294,3.5036,3.4979,3.5056,3.5109,3.4911,3.3126,3.3126,3.3126,3.3126,3.3126,3.3126,3.3126,3.3126,3.3126,3.3126,3.3126,3.3126,3.3126,3.3126,3.3126,3.3126,3.3126,3.3126,3.3126,3.3126,3.3126,3.3126,3.3126,3.3111,3.3481,3.4408,3.6001,3.7127,3.7795,3.8527,3.8989,3.9086,3.9071,3.8973,3.8635,3.6741,3.5631,3.5378,3.3612,3.2573,3.2562,3.2562,3.2376,3.2014,3.1928,3.1612,3.0969,3.0894,3.0919,3.0869,3.0919,3.0994,3.117,3.1296,3.1406,3.1446,3.1763,3.1964,3.2024,3.2326,3.2577,3.2778,3.2803,3.2878,3.3075,3.3126,3.3126,3.3126,3.3126,3.3126,3.3126,3.3126,3.3151,3.3126,3.3126,3.3151,3.3251,3.3557,3.3747,3.3627,3.3322,3.3516,3.4393,3.5658,3.6044,3.5479,3.5697,3.5904,3.5873,3.5741,3.5867,3.6142,3.6385,3.6545,3.6653,3.6696,3.643,3.6146,3.6331,3.6391,3.5925,3.5699,3.5749,3.5763,3.574,3.5705,3.5622,3.5645,3.5749,3.5873,3.584,3.5842,3.5842,3.5734,3.5514,3.3126,3.3126,3.3126,3.3126,3.3126,3.3126,3.3126,3.3126,3.3126,3.3126,3.3126,3.3126,3.3126,3.3126,3.3126,3.3126,3.3126,3.3126,3.3126,3.3126,3.3126,3.3126,3.3186,3.3556,3.4231,3.5369,3.7001,3.8013,3.8435,3.9035,3.9382,3.9382,3.9412,3.9382,3.9201,3.7339,3.6184,3.5904,3.4152,3.3126,3.3101,3.3126,3.2903,3.2591,3.2541,3.2365,3.206,3.2035,3.1834,3.1547,3.1572,3.1677,3.1656,3.1888,3.2035,3.21,3.2315,3.2541,3.2566,3.2864,3.3126,3.3126,3.3126,3.3101,3.3126,3.3126,3.3126,3.3126,3.3126,3.3212,3.3435,3.3416,3.3481,3.3696,3.3542,3.3506,3.3704,3.41,3.4226,3.4045,3.3837,3.4148,3.4881,3.5693,3.6229,3.5985,3.6144,3.6399,3.6402,3.638,3.6457,3.6655,3.6999,3.709,3.7033,3.6998,3.6912,3.6759,3.6679,3.6535,3.6202,3.6153,3.619,3.6165,3.6142,3.6117,3.6045,3.6132,3.6215,3.6405,3.6519,3.6443,3.6332,3.6267,3.6219,3.3126,3.3126,3.3126,3.3126,3.3126,3.3126,3.3126,3.3126,3.3126,3.3126,3.3126,3.3126,3.3126,3.3126,3.3126,3.3126,3.3126,3.3126,3.3126,3.3126,3.3111,3.3165,3.3439,3.4324,3.5308,3.634,3.7463,3.8425,3.9192,3.9328,3.9412,3.9412,3.9412,3.9412,3.8998,3.7271,3.6184,3.5934,3.4157,3.3122,3.3126,3.3126,3.309,3.304,3.304,3.2989,3.295,3.2925,3.2537,3.1758,3.2049,3.2198,3.2206,3.2746,3.3,3.2928,3.3065,3.304,3.3075,3.3075,3.3126,3.3126,3.3126,3.3126,3.3126,3.3122,3.3172,3.3276,3.3302,3.356,3.4079,3.4064,3.4173,3.4564,3.4237,3.4173,3.4577,3.4689,3.465,3.4477,3.4565,3.4946,3.5403,3.6111,3.6487,3.6529,3.6579,3.6693,3.6621,3.6723,3.6761,3.7107,3.7666,3.7705,3.7697,3.7438,3.7376,3.7338,3.721,3.7046,3.6832,3.6807,3.6795,3.6745,3.6631,3.6569,3.6496,3.6586,3.6697,3.6871,3.6921,3.6845,3.6874,3.6867,3.6955,3.3126,3.3126,3.3126,3.3126,3.3126,3.3126,3.3126,3.3115,3.3126,3.319,3.3126,3.3126,3.3176,3.3126,3.3151,3.3126,3.3176,3.314,3.3126,3.3126,3.3126,3.3598,3.4345,3.5329,3.6358,3.7377,3.8331,3.9128,3.9364,3.9412,3.9412,3.9412,3.9412,3.9412,3.9071,3.731,3.6263,3.5924,3.4168,3.3122,3.3126,3.3126,3.3126,3.3126,3.3126,3.3126,3.3126,3.3126,3.3014,3.2713,3.2763,3.2853,3.2807,3.3004,3.3126,3.3126,3.3126,3.3126,3.3126,3.3126,3.3126,3.3126,3.3176,3.3126,3.3115,3.3124,3.3368,3.3782,3.4128,3.4441,3.4838,3.4701,3.4801,3.5118,3.4904,3.4664,3.4828,3.5043,3.5216,3.5102,3.5548,3.5876,3.6172,3.6825,3.7389,3.7305,3.7334,3.7449,3.7275,3.692,3.6909,3.7836,3.8373,3.8373,3.8287,3.8002,3.784,3.7852,3.7826,3.7813,3.7675,3.7637,3.7637,3.7625,3.7398,3.7273,3.7091,3.7007,3.7167,3.7448,3.7462,3.7524,3.7625,3.7665,3.7665,3.3778,3.371,3.3304,3.3241,3.3442,3.3431,3.3556,3.3746,3.3782,3.3771,3.3782,3.3771,3.3771,3.3782,3.3771,3.3782,3.3771,3.3771,3.3771,3.3892,3.436,3.463,3.5061,3.6101,3.7204,3.7843,3.8898,3.9319,3.9412,3.9412,3.9412,3.9412,3.9412,3.9412,3.9301,3.7814,3.6595,3.6023,3.4578,3.3609,3.3144,3.3126,3.3126,3.3126,3.3126,3.3126,3.3126,3.3126,3.309,3.3101,3.3101,3.3126,3.3126,3.3126,3.3126,3.3126,3.3126,3.3126,3.3126,3.3126,3.3215,3.338,3.3431,3.3556,3.3713,3.3679,3.3853,3.431,3.4729,3.5062,3.5314,3.5372,3.5655,3.6083,3.5932,3.5755,3.5732,3.607,3.6045,3.5996,3.6118,3.6425,3.6449,3.7386,3.787,3.7971,3.7887,3.7926,3.7852,3.7394,3.7332,3.8291,3.8956,3.8994,3.902,3.8818,3.8667,3.8617,3.8768,3.8705,3.8579,3.8478,3.8115,3.804,3.8014,3.7965,3.7754,3.7692,3.8014,3.82,3.8202,3.819,3.8266,3.8429,3.8442,3.4741,3.4622,3.367,3.3556,3.3947,3.3986,3.4187,3.4603,3.4603,3.4591,3.4603,3.4678,3.4552,3.4692,3.4502,3.4653,3.4639,3.4793,3.5056,3.5502,3.6149,3.6493,3.6022,3.7317,3.8208,3.8588,3.9224,3.9477,3.9571,3.9511,3.9412,3.9412,3.9412,3.9412,3.9183,3.8267,3.7243,3.6202,3.5105,3.4016,3.3304,3.3126,3.3165,3.3291,3.3302,3.3276,3.3276,3.3251,3.3266,3.3291,3.3154,3.3126,3.3126,3.3126,3.3165,3.3241,3.3266,3.3266,3.3316,3.3431,3.3506,3.3886,3.3986,3.4162,3.4418,3.4325,3.4343,3.4778,3.5172,3.5541,3.584,3.6207,3.6696,3.7061,3.7198,3.7274,3.7361,3.7336,3.711,3.6708,3.6627,3.6604,3.6961,3.7518,3.8315,3.8702,3.8654,3.8592,3.8592,3.8379,3.8404,3.8831,3.9322,3.9626,3.965,3.9672,3.9568,3.9503,3.9758,3.9786,3.9588,3.9297,3.8617,3.8341,3.8605,3.863,3.8442,3.8542,3.8856,3.8919,3.8869,3.8831,3.8831,3.9044,3.9143,3.5083,3.4683,3.4463,3.4438,3.4513,3.4539,3.4603,3.4728,3.4717,3.4803,3.4728,3.4728,3.4776,3.4798,3.4916,3.4692,3.5128,3.5845,3.6528,3.7565,3.8588,3.896,3.8709,3.9312,3.979,4.0276,4.0219,4.0208,4.0127,3.9759,3.9412,3.9481,3.9601,3.9412,3.9336,3.8629,3.73,3.6231,3.5271,3.4324,3.3416,3.3215,3.338,3.3671,3.3732,3.3732,3.3732,3.3732,3.3947,3.4048,3.3632,3.3241,3.3241,3.3201,3.3366,3.3646,3.3721,3.3908,3.4248,3.4251,3.4388,3.4488,3.4527,3.4589,3.4655,3.4753,3.4891,3.53,3.5827,3.6353,3.6782,3.7324,3.7613,3.7764,3.7839,3.8027,3.8329,3.809,3.7889,3.7978,3.7866,3.7966,3.8768,3.8869,3.931,3.9436,3.9399,3.9334,3.9308,3.9257,3.9395,3.9582,3.9824,4.0091,4.0088,4.0185,4.0309,4.0216,4.0458,4.0924,4.0716,4.0194,3.9522,3.9308,3.9383,3.9295,3.9244,3.9358,3.9636,3.9599,3.9612,3.9585,3.9634,3.9795,3.9907,3.6852,3.6978,3.5968,3.5675,3.5806,3.5341,3.5241,3.5454,3.5479,3.549,3.5504,3.5479,3.5801,3.6262,3.633,3.6593,3.7192,3.7755,3.8706,3.9693,4.0435,4.093,4.1419,4.1361,4.1567,4.1465,4.1064,4.0885,4.0765,4.0526,4.0388,4.0337,4.0316,4.0436,4.0337,3.9689,3.8678,3.7385,3.6586,3.5542,3.4128,3.3847,3.3922,3.4212,3.4262,3.4262,3.4274,3.4274,3.4438,3.4488,3.4173,3.3847,3.3847,3.3847,3.3997,3.4187,3.4288,3.4363,3.4628,3.4717,3.4792,3.5068,3.5079,3.5442,3.5718,3.594,3.6227,3.6599,3.6985,3.736,3.7785,3.7838,3.8102,3.8379,3.8429,3.868,3.9032,3.8781,3.8605,3.8944,3.8944,3.9082,3.9487,3.974,4.0172,4.0222,4.0067,3.9997,4.0141,4.0128,4.0115,4.0266,4.0448,4.0538,4.051,4.0647,4.0978,4.0923,4.0896,4.1533,4.1905,4.122,4.0487,4.0349,4.0223,4.0269,4.023,4.0346,4.0465,4.0709,4.0722,4.0553,4.0423,4.0457,4.0595,3.8436,3.9145,3.7257,3.6748,3.6978,3.6093,3.5906,3.6318,3.6405,3.6395,3.6662,3.6676,3.7235,3.8134,3.8299,3.9045,3.9797,4.0083,4.0562,4.1592,4.1745,4.2242,4.2793,4.2872,4.2574,4.1713,4.1583,4.1553,4.1523,4.1433,4.1134,4.1313,4.1343,4.1194,4.1304,4.1279,4.0052,3.8129,3.7748,3.6689,3.4941,3.4577,3.4603,3.4628,3.4803,3.4803,3.4828,3.484,3.4879,3.4954,3.4954,3.4954,3.4904,3.4728,3.4767,3.4778,3.4828,3.4954,3.5141,3.5216,3.5431,3.5734,3.5896,3.6334,3.7036,3.7284,3.7385,3.7639,3.7865,3.8115,3.8515,3.8554,3.8655,3.9007,3.917,3.9409,3.9735,3.9534,3.9597,3.9647,3.9544,3.953,3.9744,3.997,4.0543,4.0965,4.0769,4.0699,4.0852,4.0897,4.0826,4.1051,4.1263,4.1322,4.1267,4.1146,4.1464,4.1692,4.1588,4.2035,4.268,4.2206,4.1517,4.1152,4.1036,4.1019,4.0943,4.0898,4.1143,4.1668,4.1541,4.1016,4.0959,4.1104,4.1272,3.7149,3.6936,3.6569,3.6483,3.6522,3.6301,3.6291,3.6393,3.6499,3.6952,3.7769,3.7861,3.848,3.936,3.9601,4.0253,4.1095,4.1358,4.1875,4.276,4.287,4.315,4.321,4.329,4.309,4.2921,4.2531,4.2251,4.2101,4.1712,4.1663,4.1493,4.1523,4.1523,4.1553,4.1329,4.0559,3.8791,3.8325,3.7128,3.5571,3.4935,3.4879,3.4904,3.5193,3.5344,3.5369,3.5406,3.5593,3.6043,3.6105,3.6105,3.5968,3.5317,3.5155,3.5294,3.5444,3.5631,3.5968,3.647,3.6746,3.6985,3.7174,3.7475,3.78,3.7886,3.7913,3.7953,3.8254,3.8555,3.8592,3.9057,3.966,4.0023,4.0224,4.0362,4.075,4.0802,4.0601,4.0474,4.0127,3.9857,4.0162,4.057,4.1226,4.1521,4.1361,4.1304,4.1435,4.1433,4.1335,4.168,4.2141,4.2118,4.2118,4.1943,4.1989,4.2409,4.2445,4.2445,4.2893,4.2885,4.2548,4.1993,4.1603,4.1476,4.1426,4.1464,4.1542,4.1863,4.1632,4.1339,4.1538,4.1736,4.1902,3.8191,3.8945,3.7815,3.7289,3.7185,3.6615,3.6756,3.7254,3.7312,3.794,3.8749,3.9094,3.9661,4.0543,4.0788,4.1399,4.2193,4.2487,4.282,4.327,4.329,4.329,4.3359,4.3359,4.329,4.322,4.3,4.288,4.2851,4.2581,4.2332,4.2392,4.2392,4.2392,4.2392,4.2383,4.1399,4.0043,3.9207,3.8174,3.6475,3.5943,3.5614,3.5655,3.5794,3.5944,3.5981,3.5956,3.6232,3.6671,3.6808,3.6959,3.6947,3.6734,3.622,3.607,3.6208,3.6446,3.6833,3.7299,3.7563,3.7613,3.7914,3.8165,3.8341,3.8403,3.8404,3.8655,3.8817,3.9319,3.9748,3.9973,4.0337,4.0789,4.0939,4.1051,4.1291,4.1497,4.142,4.1227,4.0958,4.0778,4.0816,4.1317,4.1964,4.2077,4.1915,4.1947,4.2019,4.2019,4.1943,4.2231,4.264,4.2656,4.2707,4.274,4.2616,4.2997,4.3215,4.3201,4.3165,4.3229,4.2964,4.2509,4.2233,4.2169,4.2208,4.232,4.2219,4.2119,4.2169,4.2194,4.2283,4.2397,4.2562,3.92,4.0718,3.8633,3.7743,3.7643,3.7069,3.7254,3.8017,3.8368,3.9128,4.0145,4.0296,4.0863,4.168,4.204,4.2457,4.3319,4.3349,4.3499,4.3569,4.3778,4.3748,4.3718,4.3688,4.3848,4.3938,4.3858,4.3569,4.33,4.3369,4.3429,4.324,4.3329,4.3509,4.3449,4.318,4.2667,4.177,4.0496,3.9288,3.8018,3.7175,3.6708,3.672,3.6708,3.6733,3.6783,3.6771,3.6947,3.7236,3.7387,3.7538,3.7889,3.799,3.7588,3.6947,3.7148,3.7299,3.75,3.7876,3.8203,3.8203,3.8316,3.8617,3.8944,3.9145,3.9244,3.9654,4.0125,4.0289,4.0642,4.0715,4.0939,4.1316,4.1491,4.1567,4.1808,4.1986,4.2176,4.197,4.1754,4.1727,4.18,4.1904,4.2514,4.2578,4.2427,4.2464,4.2534,4.266,4.2674,4.2838,4.3034,4.3053,4.3226,4.3537,4.3478,4.36,4.3754,4.3768,4.3657,4.357,4.3341,4.3223,4.3313,4.3313,4.3277,4.3025,4.2749,4.2635,4.29,4.3025,4.3,4.3062,4.3226,3.8255,3.8409,3.7162,3.6592,3.6814,3.7494,3.7948,3.8349,3.9359,4.0329,4.1582,4.1499,4.2135,4.2898,4.311,4.321,4.3509,4.3948,4.4177,4.4237,4.4636,4.4845,4.4975,4.5065,4.4825,4.4785,4.4885,4.4326,4.3838,4.3997,4.3878,4.3658,4.3967,4.4177,4.4147,4.3818,4.3025,4.2294,4.0841,3.9123,3.7753,3.7609,3.7688,3.7713,3.7713,3.7663,3.7625,3.7588,3.7751,3.7864,3.7914,3.7939,3.799,3.799,3.799,3.7864,3.7864,3.7914,3.8015,3.8454,3.8869,3.8969,3.9183,3.9484,3.9698,4.0075,4.0203,3.972,4.0784,4.1376,4.1321,4.124,4.1555,4.1845,4.2071,4.2322,4.2576,4.2651,4.2777,4.2864,4.2682,4.2746,4.2822,4.2889,4.2969,4.2981,4.2992,4.3028,4.3101,4.3277,4.3433,4.3627,4.3525,4.3529,4.374,4.4037,4.4353,4.4342,4.422,4.426,4.4159,4.4084,4.4242,4.4202,4.4227,4.4016,4.3614,4.3327,4.3101,4.3162,4.3321,4.351,4.3639,4.374,4.384,3.8727,3.7994,3.6873,3.6779,3.7379,3.7903,3.9128,4.0546,4.12,4.2283,4.3485,4.3689,4.4008,4.4316,4.4426,4.4416,4.4476,4.4725,4.4855,4.4885,4.5185,4.5334,4.5244,4.5274,4.5274,4.5394,4.5274,4.5065,4.4636,4.4666,4.4666,4.4516,4.4666,4.4855,4.4845,4.4576,4.437,4.3597,4.2058,3.9869,3.8305,3.7864,3.8015,3.8015,3.804,3.804,3.8065,3.799,3.8216,3.8366,3.8429,3.8567,3.8843,3.8969,3.8982,3.8982,3.8982,3.8831,3.8655,3.9095,3.9434,3.976,4.0023,4.0174,4.0401,4.0727,4.1138,4.1033,4.1884,4.2199,4.194,4.182,4.2146,4.2462,4.2635,4.2785,4.3062,4.3352,4.3452,4.3539,4.3625,4.3625,4.3578,4.3433,4.3476,4.3641,4.3649,4.3668,4.3815,4.4052,4.4227,4.4432,4.4235,4.3983,4.4278,4.4583,4.5164,4.5157,4.4586,4.4626,4.4612,4.4622,4.478,4.4715,4.4529,4.4227,4.3915,4.3744,4.3612,4.3662,4.3765,4.3959,4.4163,4.4278,4.4378,3.9717,3.8655,3.7375,3.7572,3.8795,3.9083,4.0592,4.2686,4.3158,4.403,4.4989,4.5213,4.5213,4.5274,4.5214,4.5125,4.5274,4.5443,4.5533,4.5574,4.5723,4.5873,4.5963,4.5873,4.5873,4.5783,4.5992,4.5873,4.5873,4.5783,4.5704,4.5334,4.5424,4.5514,4.5514,4.5202,4.4813,4.3693,4.2548,4.0599,3.8722,3.8417,3.8467,3.8467,3.8429,3.8404,3.8417,3.8467,3.8781,3.8956,3.9007,3.9145,3.9471,3.9697,3.9798,3.9873,3.9935,3.9973,3.9747,3.9886,4.0186,4.0474,4.0725,4.0814,4.1076,4.1339,4.169,4.2037,4.2493,4.2676,4.2563,4.25,4.2705,4.3006,4.3231,4.3256,4.3371,4.375,4.3976,4.4012,4.4113,4.4274,4.4166,4.39,4.3943,4.4238,4.4321,4.4321,4.4536,4.4788,4.4878,4.5023,4.4881,4.4573,4.4594,4.5003,4.5631,4.5875,4.53,4.5129,4.5225,4.5236,4.5332,4.5156,4.493,4.5031,4.507,4.4598,4.4182,4.4212,4.4263,4.4485,4.4675,4.4801,4.4991,4.1131,4.0481,3.8777,3.906,4.0686,4.1841,4.2707,4.3773,4.4653,4.5129,4.5463,4.5364,4.5484,4.5424,4.5544,4.5514,4.5434,4.5982,4.6181,4.642,4.679,4.6909,4.689,4.689,4.698,4.701,4.686,4.692,4.713,4.695,4.6352,4.5544,4.6082,4.6211,4.6091,4.5801,4.4431,4.3343,4.242,4.131,3.9724,3.9245,3.9521,3.9572,3.9572,3.9572,3.9584,3.9572,3.9622,3.976,3.9672,3.9697,3.9998,4.035,4.0526,4.0512,4.075,4.0864,4.0889,4.0613,4.0738,4.1051,4.1327,4.1515,4.1802,4.1836,4.2215,4.276,4.3095,4.3129,4.3168,4.3313,4.3454,4.3511,4.374,4.3905,4.4044,4.4324,4.4514,4.45,4.465,4.4926,4.5045,4.4831,4.4785,4.5056,4.5011,4.4985,4.5235,4.5456,4.5453,4.5497,4.5454,4.5218,4.4853,4.5299,4.5952,4.6167,4.5863,4.5864,4.6024,4.601,4.5784,4.5834,4.5708,4.5959,4.601,4.5354,4.4849,4.4754,4.4813,4.5121,4.5327,4.5503,4.5719,4.2106,4.1866,4.156,4.1884,4.2549,4.3013,4.3981,4.5178,4.5713,4.6161,4.6501,4.652,4.652,4.6491,4.6531,4.6531,4.6561,4.677,4.6869,4.6969,4.7189,4.7309,4.7298,4.7339,4.7268,4.7369,4.7339,4.7298,4.7268,4.7728,4.7709,4.729,4.7029,4.6909,4.676,4.6542,4.5082,4.3501,4.2838,4.2004,4.0466,4.0036,4.0337,4.0675,4.0688,4.0688,4.0675,4.0675,4.0688,4.0613,4.0437,4.0462,4.0613,4.1053,4.1153,4.1065,4.1302,4.1542,4.1731,4.1391,4.1266,4.1795,4.2146,4.2395,4.2554,4.2554,4.2668,4.3075,4.3663,4.3941,4.3747,4.403,4.4224,4.4162,4.4273,4.4517,4.4721,4.4976,4.5091,4.5091,4.5417,4.5744,4.5828,4.5837,4.5834,4.5862,4.576,4.5692,4.584,4.5954,4.5919,4.5893,4.5837,4.5979,4.568,4.594,4.6336,4.6401,4.6451,4.6486,4.6562,4.6286,4.616,4.6286,4.6386,4.6411,4.6245,4.5824,4.5563,4.5472,4.5602,4.5853,4.6035,4.6205,4.6386,4.3534,4.3728,4.4205,4.4398,4.4398,4.4398,4.5221,4.6414,4.66,4.682,4.7298,4.7298,4.7298,4.7298,4.7268,4.7238,4.7189,4.7238,4.7268,4.7279,4.7279,4.7429,4.7549,4.7668,4.7818,4.7788,4.7889,4.7978,4.8068,4.8397,4.8457,4.8368,4.8147,4.7997,4.7938,4.7746,4.6609,4.4636,4.3879,4.2863,4.111,4.075,4.0826,4.1188,4.1188,4.1188,4.1163,4.1138,4.1163,4.1127,4.1051,4.1051,4.1341,4.1656,4.1795,4.1717,4.1742,4.2019,4.2171,4.2171,4.2007,4.2436,4.2925,4.3151,4.3223,4.3111,4.3024,4.348,4.4324,4.4882,4.4463,4.4581,4.4638,4.4536,4.5068,4.5363,4.5403,4.5583,4.5658,4.5723,4.601,4.6145,4.6135,4.6155,4.615,4.6134,4.6069,4.5999,4.6094,4.6164,4.6175,4.6175,4.6165,4.6366,4.6582,4.6743,4.6944,4.7312,4.7297,4.7044,4.6954,4.6712,4.6737,4.6988,4.7014,4.6813,4.6692,4.6596,4.6426,4.622,4.6416,4.6627,4.6949,4.711,4.7059,4.555,4.6209,4.6166,4.6186,4.6122,4.6217,4.6587,4.7149,4.7179,4.7238,4.7298,4.7298,4.7298,4.7298,4.7298,4.7369,4.7459,4.7418,4.7478,4.7578,4.7728,4.7848,4.8098,4.8338,4.8468,4.9078,4.9007,4.8887,4.9078,4.9176,4.9235,4.9325,4.9235,4.9127,4.9217,4.9228,4.7817,4.5686,4.5305,4.3608,4.2106,4.1452,4.1391,4.1553,4.1603,4.1628,4.1654,4.1628,4.1654,4.1603,4.1578,4.1553,4.1603,4.2021,4.2185,4.2185,4.2649,4.29,4.3,4.2975,4.3039,4.3126,4.3589,4.3765,4.3687,4.349,4.3462,4.4078,4.5204,4.5501,4.5279,4.5051,4.503,4.519,4.5724,4.602,4.606,4.616,4.6235,4.6446,4.6371,4.6306,4.63,4.6315,4.6365,4.634,4.6306,4.6361,4.6486,4.6587,4.6712,4.6687,4.6712,4.6843,4.7085,4.7295,4.7577,4.7988,4.8003,4.7602,4.7506,4.7456,4.7541,4.7716,4.7591,4.734,4.7454,4.7552,4.7359,4.7231,4.7252,4.7459,4.778,4.786,4.7643,4.6091,4.632,4.679,4.6969,4.6969,4.6969,4.7089,4.7279,4.7298,4.7298,4.7298,4.7298,4.7298,4.7298,4.7429,4.7578,4.7948,4.7967,4.8057,4.8558,4.8517,4.8738,4.8917,4.8977,4.9138,4.9228,4.9318,4.9408,4.9269,4.9684,4.9871,4.9961,5.0152,5.0044,4.9516,4.9186,4.8276,4.6781,4.579,4.4576,4.327,4.2425,4.2073,4.2375,4.2402,4.232,4.2295,4.227,4.227,4.227,4.2283,4.2308,4.2359,4.2713,4.2738,4.2838,4.3226,4.3714,4.3926,4.4052,4.4066,4.4141,4.4177,4.4353,4.4281,4.4194,4.4386,4.4794,4.5691,4.5912,4.5913,4.5899,4.5885,4.5885,4.6235,4.6486,4.6612,4.6747,4.6898,4.7193,4.7253,4.7082,4.7005,4.6594,4.6547,4.7155,4.7299,4.7239,4.7315,4.739,4.749,4.739,4.738,4.7446,4.7587,4.7923,4.7983,4.8196,4.8162,4.7863,4.7857,4.8109,4.8058,4.8068,4.7983,4.7908,4.8011,4.8121,4.8303,4.8311,4.822,4.8048,4.8096,4.8064,4.7863,4.6659,4.67,4.7119,4.7298,4.7298,4.7298,4.7298,4.7298,4.7298,4.7298,4.7369,4.7519,4.7668,4.7728,4.7908,4.8128,4.8648,4.8637,4.8738,4.9288,4.9258,4.9366,4.9505,4.9655,4.9823,4.9834,4.9954,5.0014,5.0103,5.0368,5.0506,5.0667,5.0913,5.0311,4.9771,4.946,4.9069,4.7567,4.6291,4.5485,4.4309,4.3434,4.2916,4.3284,4.3303,4.295,4.2975,4.3,4.3025,4.3025,4.3025,4.3101,4.3215,4.3277,4.3363,4.3614,4.3865,4.4367,4.4729,4.488,4.4945,4.5196,4.5031,4.493,4.498,4.5072,4.5283,4.5673,4.6093,4.638,4.6577,4.6592,4.6748,4.6748,4.6893,4.717,4.7239,4.739,4.745,4.777,4.7767,4.7671,4.7664,4.7084,4.6701,4.7536,4.836,4.8234,4.8043,4.7986,4.8027,4.7967,4.7911,4.7936,4.8193,4.8626,4.8652,4.851,4.841,4.8335,4.8535,4.8812,4.8611,4.8485,4.8611,4.8686,4.8586,4.8658,4.8847,4.8995,4.8995,4.8781,4.851,4.841,4.8335,4.7298,4.7298,4.7298,4.7298,4.7298,4.7298,4.7298,4.7298,4.7369,4.7369,4.7388,4.8068,4.8319,4.8457,4.8947,4.9217,4.9307,4.9307,4.9456,4.9527,4.9707,4.9912,5.0129,5.0267,5.0469,5.0888,5.1008,5.0769,5.1086,5.0996,5.1026,5.1206,5.1337,5.0852,5.0525,5.0501,4.9752,4.8001,4.7494,4.6746,4.5782,4.4307,4.4301,4.446,4.4084,4.3467,4.3327,4.3302,4.3251,4.3201,4.3151,4.3427,4.3653,4.3801,4.4152,4.4453,4.4629,4.4995,4.5397,4.5482,4.5658,4.5874,4.5799,4.5638,4.5598,4.5809,4.5995,4.6125,4.6376,4.6839,4.7181,4.7403,4.7625,4.768,4.7769,4.7879,4.7908,4.7983,4.7992,4.8046,4.7952,4.7986,4.8256,4.7857,4.7541,4.8221,4.8903,4.8786,4.857,4.8224,4.8265,4.8378,4.8347,4.8409,4.8716,4.9113,4.9163,4.9012,4.9163,4.9163,4.9389,4.9364,4.9188,4.9113,4.9389,4.9414,4.9138,4.9188,4.9405,4.9487,4.941,4.9344,4.9022,4.9163,4.9163,4.7298,4.7298,4.7298,4.7298,4.7298,4.7309,4.7298,4.7369,4.7758,4.7997,4.8038,4.8708,4.8977,4.9037,4.9228,4.9565,4.9811,5.0009,5.032,5.041,5.0463,5.0709,5.0817,5.0877,5.1068,5.1128,5.1217,5.1217,5.1187,5.1217,5.1576,5.1846,5.1917,5.175,5.1915,5.2371,5.0282,4.8837,4.8691,4.8275,4.743,4.6116,4.6088,4.566,4.4746,4.4133,4.3976,4.4001,4.4001,4.4052,4.4077,4.4278,4.4317,4.4403,4.4589,4.5146,4.5296,4.5472,4.5949,4.606,4.616,4.6411,4.6461,4.6386,4.6286,4.6235,4.6512,4.6642,4.6835,4.7332,4.7784,4.8044,4.818,4.8243,4.8306,4.8366,4.841,4.8551,4.8586,4.8705,4.8609,4.8625,4.8912,4.8899,4.8725,4.9208,4.938,4.9254,4.9097,4.8766,4.865,4.8764,4.8855,4.8917,4.9083,4.9439,4.9515,4.954,4.959,4.959,4.954,4.9515,4.9565,4.959,4.959,4.959,4.954,4.959,4.959,4.959,4.9522,4.9581,4.959,4.959,4.959,4.7298,4.7298,4.7298,4.7459,4.7679,4.7698,4.7818,4.8098,4.8248,4.8438,4.8768,4.9374,4.9655,4.9714,4.9984,5.029,5.0566,5.0607,5.0787,5.0978,5.1217,5.1158,5.1187,5.1217,5.1187,5.1217,5.1217,5.1217,5.1307,5.1588,5.1947,5.2558,5.2588,5.247,5.2452,5.2378,5.1432,5.0174,4.9585,4.9693,4.8926,4.7769,4.7095,4.6687,4.5494,4.4872,4.464,4.464,4.4614,4.4589,4.4589,4.4754,4.4905,4.5131,4.5332,4.5799,4.5824,4.5949,4.6235,4.6537,4.6587,4.6763,4.7114,4.7189,4.6863,4.6662,4.6938,4.7184,4.753,4.7883,4.8284,4.8614,4.8636,4.8658,4.8702,4.8761,4.8928,4.9095,4.928,4.9464,4.9499,4.9473,4.954,4.959,4.959,4.954,4.9515,4.949,4.9439,4.9307,4.9215,4.9273,4.9348,4.9432,4.959,4.959,4.959,4.959,4.959,4.959,4.959,4.959,4.959,4.959,4.959,4.959,4.959,4.959,4.959,4.959,4.959,4.959,4.959,4.959,4.959,4.7298,4.7298,4.7298,4.7668,4.8248,4.8248,4.8648,4.9277,4.8787,4.8798,4.9415,5.0009,5.0278,5.038,5.0709,5.0948,5.1056,5.1056,5.1038,5.1217,5.1217,5.1217,5.1217,5.1217,5.1307,5.1277,5.1367,5.1576,5.1636,5.2007,5.2618,5.3228,5.3276,5.3094,5.2695,5.3265,5.2692,5.1694,5.1332,5.1321,4.9782,4.8328,4.7214,4.7001,4.6062,4.5077,4.4888,4.4765,4.4715,4.474,4.484,4.5131,4.5508,4.5859,4.6135,4.6336,4.6361,4.6512,4.6712,4.6988,4.7139,4.7324,4.7626,4.7857,4.7631,4.7139,4.7315,4.7908,4.8309,4.8578,4.8935,4.9096,4.914,4.9136,4.9163,4.9213,4.9289,4.938,4.9439,4.959,4.959,4.959,4.959,4.959,4.959,4.959,4.959,4.959,4.959,4.959,4.959,4.959,4.959,4.959,4.959,4.959,4.959,4.959,4.959,4.959,4.959,4.959,4.959,4.959,4.959,4.959,4.959,4.959,4.959,4.959,4.959,4.959,4.959,4.959,4.959,4.7298,4.7298,4.7298,4.7698,4.8278,4.8319,4.8985,4.9949,4.983,4.98,5.0099,5.0607,5.0936,5.0936,5.1056,5.1217,5.1217,5.1217,5.1217,5.1217,5.1217,5.1307,5.1247,5.1337,5.1517,5.1828,5.2025,5.2175,5.2606,5.2947,5.3264,5.3892,5.3982,5.3724,5.3854,5.4508,5.4014,5.3283,5.3411,5.3094,5.1891,5.1609,5.1116,4.9692,4.8303,4.6788,4.6355,4.5853,4.5874,4.5909,4.5869,4.5984,4.6125,4.6261,4.6512,4.6813,4.6913,4.7064,4.733,4.7541,4.7691,4.7892,4.8184,4.8426,4.835,4.7807,4.7857,4.8551,4.9003,4.928,4.943,4.952,4.9593,4.9588,4.959,4.959,4.959,4.959,4.959,4.959,4.959,4.959,4.959,4.959,4.959,4.959,4.959,4.959,4.959,4.959,4.959,4.959,4.959,4.959,4.959,4.959,4.959,4.959,4.959,4.959,4.959,4.959,4.959,4.959,4.959,4.959,4.959,4.959,4.959,4.959,4.959,4.959,4.959,4.959,4.959,4.7298,4.7328,4.7649,4.8128,4.8727,4.9015,4.971,5.0548,5.0637,5.0637,5.0667,5.1026,5.1217,5.1217,5.1217,5.1217,5.1217,5.1217,5.1217,5.1217,5.1337,5.1445,5.1475,5.1666,5.2127,5.2498,5.2648,5.2947,5.3545,5.3725,5.3952,5.4521,5.467,5.479,5.5222,5.5222,5.5222,5.5128,5.5222,5.4722,5.3798,5.335,5.2281,5.0754,4.9351,4.8134,4.7431,4.68,4.6301,4.6411,4.6446,4.6612,4.6737,4.6963,4.7164,4.7365,4.749,4.7591,4.7908,4.8134,4.8284,4.846,4.8786,4.9104,4.9154,4.8711,4.8686,4.928,4.9305,4.9531,4.9515,4.9588,4.9588,4.9606,4.959,4.959,4.959,4.959,4.959,4.959,4.959,4.959,4.959,4.959,4.959,4.959,4.959,4.959,4.959,4.959,4.959,4.959,4.959,4.959,4.959,4.959,4.959,4.959,4.959,4.959,4.959,4.959,4.959,4.959,4.959,4.959,4.959,4.959,4.959,4.959,4.959,4.959,4.9599,4.9649,4.9674,4.7358,4.7519,4.8038,4.8727,4.9415,4.9949,5.0548,5.1086,5.1187,5.1187,5.1146,5.1176,5.1217,5.1217,5.1217,5.1217,5.1277,5.1457,5.1397,5.1457,5.1588,5.1935,5.2217,5.2378,5.2797,5.3216,5.3486,5.3845,5.4311,5.4371,5.4581,5.5102,5.5222,5.5222,5.5222,5.5222,5.5222,5.5281,5.5311,5.5401,5.4776,5.4081,5.2841,5.132,5.0051,4.9207,4.8507,4.7752,4.6964,4.6687,4.6973,4.7043,4.7209,4.7419,4.7726,4.7902,4.7992,4.8093,4.8335,4.8702,4.8827,4.9028,4.943,4.9565,4.9565,4.9565,4.954,4.954,4.9565,4.959,4.959,4.959,4.959,4.959,4.959,4.959,4.959,4.959,4.959,4.959,4.959,4.959,4.959,4.959,4.959,4.959,4.959,4.959,4.959,4.959,4.959,4.959,4.959,4.959,4.959,4.959,4.959,4.959,4.959,4.959,4.959,4.959,4.959,4.959,4.959,4.9615,4.959,4.959,4.959,4.9674,4.959,4.9624,4.9801,4.9826,4.9818,4.7608,4.8128,4.8248,4.8955,4.9961,5.0177,5.0596,5.1158,5.1217,5.1217,5.1217,5.1217,5.1217,5.1217,5.1217,5.1277,5.1427,5.1696,5.1947,5.2037,5.2366,5.2725,5.2995,5.3186,5.3456,5.3905,5.4384,5.4832,5.482,5.491,5.5042,5.5192,5.5251,5.5251,5.5222,5.5281,5.5431,5.5551,5.5833,5.6013,5.6042,5.5399,5.4723,5.3923,5.3559,5.198,5.0671,4.9781,4.8781,4.8094,4.7657,4.7604,4.7673,4.7839,4.8187,4.8438,4.8545,4.8761,4.8987,4.9188,4.9305,4.933,4.959,4.959,4.959,4.959,4.9565,4.9565,4.959,4.959,4.959,4.959,4.959,4.959,4.959,4.959,4.959,4.959,4.959,4.959,4.959,4.959,4.959,4.959,4.959,4.959,4.959,4.959,4.959,4.959,4.959,4.959,4.959,4.959,4.959,4.959,4.959,4.959,4.959,4.959,4.959,4.959,4.959,4.959,4.9615,4.9615,4.9615,4.9767,4.98,4.9859,4.9674,4.9674,4.9927,5.0087,5.0137]}]]